Casey Cardinia Extra HPV Festival 2012 on Casey @ loops
Laptimes of 6 Hr Endirance Race - 6 hr Race


Time of Day Lap LeadLap Lap Tm Speed Hits Strength Noise
74 - Aurora Aurora Racing - Community
12:01:10.4 1 1 1:59.126 36.264 53 167 0
12:03:08.9 2 2 1:58.543 36.442 57 165 0
12:05:09.2 3 3 2:00.307 35.908 54 167 0
12:07:11.2 4 4 2:01.998 35.410 54 167 0
12:09:14.2 5 5 2:02.982 35.127 57 167 0
12:11:17.6 6 6 2:03.395 35.010 56 164 0
12:13:20.3 7 7 2:02.644 35.224 55 163 0
12:15:23.8 8 8 2:03.557 34.964 56 165 0
12:17:29.0 9 9 2:05.229 34.497 56 165 0
12:19:32.4 10 10 2:03.336 35.026 54 164 0
12:21:36.8 11 11 2:04.432 34.718 54 165 0
12:23:41.8 12 12 2:05.038 34.549 57 166 0
12:25:46.8 13 13 2:04.986 34.564 59 166 0
12:27:53.7 14 14 2:06.858 34.054 54 166 0
12:29:58.8 15 15 2:05.062 34.543 59 164 0
12:32:04.0 16 16 2:05.280 34.483 57 164 0
12:34:09.9 17 17 2:05.868 34.322 57 166 0
12:36:15.1 18 18 2:05.175 34.512 56 166 0
12:38:20.6 19 19 2:05.563 34.405 56 165 0
12:40:27.9 20 20 2:07.279 33.941 58 165 0
12:42:31.9 21 21 2:03.973 34.846 58 166 0
12:44:35.8 22 22 2:03.875 34.874 55 165 0
12:46:41.7 23 23 2:05.936 34.303 58 165 0
12:48:46.8 24 24 2:05.072 34.540 55 167 0
12:50:51.0 25 25 2:04.188 34.786 57 164 0
12:52:54.2 26 26 2:03.200 35.065 56 163 0
12:55:01.3 27 27 2:07.156 33.974 57 167 0
12:57:06.8 28 28 2:05.451 34.436 56 165 0
12:59:12.2 29 29 2:05.458 34.434 55 166 0
13:01:19.1 30 30 2:06.900 34.043 59 166 0
13:03:25.3 31 31 2:06.124 34.252 58 165 0
13:05:31.3 32 32 2:06.059 34.270 56 167 0
13:07:38.0 33 33 2:06.669 34.105 55 165 0
13:09:44.8 34 34 2:06.826 34.062 56 166 0
13:11:51.1 35 35 2:06.247 34.219 54 166 0
13:15:03.6 36 36 3:12.574 22.433 56 165 0
13:17:04.3 37 37 2:00.622 35.814 56 163 0
13:19:05.3 38 38 2:01.070 35.682 57 167 0
13:21:09.4 39 39 2:04.097 34.811 57 166 0
13:23:21.7 40 40 2:12.294 32.655 60 165 0
13:25:36.3 41 41 2:14.568 32.103 57 166 0
13:27:46.2 42 42 2:09.960 33.241 58 167 0
13:29:54.3 43 43 2:08.014 33.746 56 165 0
13:31:58.1 44 44 2:03.827 34.887 56 162 0
13:34:07.3 45 45 2:09.198 33.437 58 163 0
13:36:20.7 46 46 2:13.405 32.383 59 163 0
13:38:33.7 47 47 2:13.053 32.468 56 165 0
13:40:38.7 48 48 2:04.971 34.568 57 163 0
13:42:50.2 49 49 2:11.513 32.848 58 164 0
13:45:13.6 50 50 2:23.343 30.138 59 163 0
13:47:24.2 51 51 2:10.598 33.079 56 165 0
13:49:48.0 52 52 2:23.800 30.042 59 163 0
13:52:00.4 53 53 2:12.466 32.612 57 165 0
13:54:18.7 54 54 2:18.321 31.232 53 165 0
13:56:39.3 55 55 2:20.567 30.733 58 166 0
13:58:38.9 56 56 1:59.572 36.129 53 166 0
14:00:52.6 57 57 2:13.720 32.306 59 164 0
14:03:09.5 58 58 2:16.847 31.568 58 164 0
14:05:25.9 59 59 2:16.480 31.653 59 166 0
14:07:55.5 60 60 2:29.572 28.882 57 165 0
14:09:54.8 61 61 1:59.285 36.216 54 163 0
14:12:11.4 62 62 2:16.603 31.624 62 165 0
14:14:20.9 63 63 2:09.483 33.363 56 165 0
14:17:28.2 64 64 3:07.353 23.058 58 164 0
14:19:46.6 65 65 2:18.382 31.218 53 163 0
14:22:01.6 66 66 2:15.020 31.995 56 165 0
14:24:15.0 67 67 2:13.372 32.391 58 166 0
14:26:26.8 68 68 2:11.772 32.784 59 166 0
14:28:35.3 69 69 2:08.556 33.604 57 164 0
14:30:48.3 70 70 2:12.928 32.499 56 164 0
14:33:01.0 71 71 2:12.752 32.542 57 165 0
14:35:12.7 72 72 2:11.731 32.794 59 164 0
14:37:25.5 73 73 2:12.729 32.548 57 166 0
14:39:38.9 74 74 2:13.474 32.366 57 165 0
14:41:50.1 75 75 2:11.119 32.947 56 164 0
14:43:59.7 76 76 2:09.657 33.319 58 166 0
14:46:13.4 77 77 2:13.629 32.328 58 164 0
14:48:25.9 78 78 2:12.573 32.586 59 166 0
14:50:37.3 79 79 2:11.365 32.885 57 163 0
14:52:49.7 80 80 2:12.422 32.623 58 166 0
14:55:06.9 81 81 2:17.182 31.491 57 165 0
14:57:20.8 82 82 2:13.875 32.269 55 165 0
14:59:33.3 83 83 2:12.500 32.604 58 165 0
15:01:43.7 84 84 2:10.438 33.119 59 165 0
15:03:56.3 85 85 2:12.581 32.584 56 162 0
15:06:08.1 86 86 2:11.845 32.766 56 166 0
15:08:21.3 87 87 2:13.194 32.434 60 164 0
15:10:36.0 88 88 2:14.631 32.088 58 165 0
15:12:44.7 89 89 2:08.704 33.565 56 165 0
15:14:55.0 90 90 2:10.329 33.147 59 165 0
15:17:05.1 91 91 2:10.079 33.211 56 163 0
15:19:15.5 92 92 2:10.462 33.113 58 163 0
15:21:25.6 93 93 2:10.031 33.223 57 165 0
15:23:37.7 94 94 2:12.174 32.684 57 165 0
15:25:50.8 95 95 2:13.109 32.455 59 164 0
15:29:29.2 96 96 3:38.317 19.788 55 163 0
15:31:32.7 97 97 2:03.583 34.956 56 162 0
15:33:39.0 98 98 2:06.210 34.229 55 163 0
15:35:45.6 99 99 2:06.648 34.110 53 163 0
15:37:53.8 100 100 2:08.179 33.703 57 164 0
15:40:03.5 101 101 2:09.692 33.310 56 163 0
15:42:09.5 102 102 2:06.000 34.286 55 165 0
15:44:18.7 103 103 2:09.273 33.418 58 166 0
15:46:26.3 104 104 2:07.597 33.857 59 163 0
15:48:36.3 105 105 2:09.909 33.254 52 165 0
15:50:45.4 106 106 2:09.161 33.447 57 163 0
15:53:03.6 107 107 2:18.185 31.262 59 166 0
15:55:13.0 108 108 2:09.368 33.393 57 165 0
15:57:22.2 109 109 2:09.269 33.419 54 164 0
15:59:33.8 110 110 2:11.611 32.824 55 164 0
16:01:45.3 111 111 2:11.470 32.859 58 165 0
16:03:57.8 112 112 2:12.434 32.620 57 162 0
16:06:09.7 113 113 2:11.974 32.734 57 163 0
16:08:22.8 114 114 2:13.090 32.459 58 163 0
16:10:34.8 115 115 2:12.009 32.725 58 162 0
16:12:47.2 116 116 2:12.362 32.638 57 164 0
16:15:05.3 117 117 2:18.122 31.277 57 163 0
16:17:16.9 118 118 2:11.546 32.840 57 164 0
16:19:28.6 119 119 2:11.795 32.778 59 163 0
16:21:42.4 120 120 2:13.738 32.302 57 163 0
16:24:05.4 121 121 2:22.966 30.217 59 162 0
16:26:18.3 122 122 2:12.987 32.484 58 161 0
16:28:36.0 123 123 2:17.686 31.376 58 162 0
16:30:48.7 124 124 2:12.646 32.568 57 163 0
16:33:00.2 125 125 2:11.495 32.853 58 164 0
16:35:11.4 126 126 2:11.250 32.914 58 164 0
16:37:25.1 127 127 2:13.667 32.319 56 162 0
16:39:35.4 128 128 2:10.350 33.142 56 162 0
16:41:49.2 129 129 2:13.812 32.284 57 163 0
16:44:01.5 130 130 2:12.207 32.676 56 163 0
16:46:17.1 131 131 2:15.691 31.837 60 162 0
16:48:28.8 132 132 2:11.658 32.812 60 162 0
16:50:41.7 133 133 2:12.876 32.512 54 164 0
16:52:54.9 134 134 2:13.251 32.420 57 163 0
16:55:13.9 135 135 2:19.009 31.077 60 164 0
17:00:47.4 136 136 5:33.472 12.955 57 162 0
17:02:50.8 137 137 2:03.342 35.025 55 164 0
17:04:56.9 138 138 2:06.196 34.232 57 163 0
17:07:15.9 139 139 2:18.948 31.091 57 162 0
17:09:19.2 140 140 2:03.284 35.041 55 163 0
17:11:22.9 141 141 2:03.690 34.926 58 163 0
17:13:28.5 142 142 2:05.659 34.379 58 163 0
17:15:33.9 143 143 2:05.339 34.467 54 162 0
17:17:37.5 144 144 2:03.589 34.955 58 163 0
17:19:41.4 145 145 2:03.957 34.851 54 164 0
17:21:45.4 146 146 2:03.979 34.845 58 163 0
17:23:51.7 147 147 2:06.304 34.203 57 163 0
17:25:55.7 148 148 2:04.050 34.825 53 161 0
17:28:00.8 149 149 2:05.042 34.548 57 162 0
17:30:05.9 150 150 2:05.079 34.538 56 161 0
17:32:12.1 151 151 2:06.194 34.233 51 162 0
17:34:18.2 152 152 2:06.142 34.247 58 163 0
17:36:26.2 153 153 2:08.002 33.749 57 162 0
17:38:33.6 154 154 2:07.366 33.918 56 163 0
17:40:44.2 155 155 2:10.599 33.078 56 163 0
17:42:51.1 156 156 2:06.903 34.042 57 163 0
17:45:05.7 157 157 2:14.632 32.087 57 162 0
17:47:17.7 158 158 2:12.003 32.727 53 164 0
17:49:29.6 159 159 2:11.863 32.761 54 165 0
17:51:41.5 160 160 2:11.933 32.744 58 162 0
17:53:54.9 161 161 2:13.382 32.388 57 163 0
17:56:05.9 162 162 2:10.976 32.983 58 163 0
17:58:15.4 163 163 2:09.493 33.361 58 163 0
18:00:40.6 164 164 2:25.268 29.738 58 163 0
47 - Trump Platt Racing - Community
12:01:16.2 1 1 2:04.923 34.581 53 149 0
12:03:28.7 2 2 2:12.446 32.617 56 149 0
12:05:45.3 3 3 2:16.571 31.632 56 148 0
12:08:02.7 4 4 2:17.471 31.425 56 150 0
12:10:20.1 5 5 2:17.366 31.449 53 152 0
12:12:37.8 6 6 2:17.749 31.361 57 150 0
12:14:54.8 7 7 2:16.997 31.534 57 150 0
12:17:19.6 8 8 2:24.798 29.835 59 150 0
12:19:46.0 9 10 2:26.348 29.519 59 151 0
12:22:11.9 10 11 2:25.896 29.610 55 150 0
12:24:37.7 11 12 2:25.766 29.637 57 150 0
12:26:59.1 12 13 2:21.456 30.540 57 150 0
12:29:28.1 13 14 2:29.025 28.988 58 145 0
12:31:54.3 14 15 2:26.173 29.554 60 150 0
12:35:15.6 15 17 3:21.278 21.463 57 150 0
12:37:31.1 16 18 2:15.478 31.887 56 149 0
12:39:47.4 17 19 2:16.369 31.679 58 150 0
12:42:06.9 18 20 2:19.472 30.974 57 150 0
12:44:27.7 19 21 2:20.748 30.693 55 146 0
12:46:46.6 20 23 2:18.973 31.085 56 151 0
12:49:09.3 21 24 2:22.666 30.281 54 149 0
12:51:35.3 22 25 2:26.059 29.577 58 148 0
12:54:03.4 23 26 2:28.100 29.169 58 146 0
12:56:26.1 24 27 2:22.678 30.278 56 150 0
12:58:48.7 25 28 2:22.552 30.305 58 149 0
13:01:12.5 26 29 2:23.851 30.031 58 150 0
13:03:40.0 27 31 2:27.492 29.290 57 151 0
13:06:08.3 28 32 2:28.271 29.136 53 145 0
13:08:33.6 29 33 2:25.351 29.721 58 149 0
13:11:05.9 30 34 2:32.251 28.374 60 147 0
13:13:36.7 31 35 2:30.816 28.644 57 147 0
13:16:03.2 32 36 2:26.509 29.486 60 149 0
13:18:30.5 33 37 2:27.316 29.325 57 150 0
13:20:58.9 34 38 2:28.392 29.112 58 146 0
13:24:35.2 35 40 3:36.295 19.973 55 149 0
13:26:50.4 36 41 2:15.175 31.959 54 150 0
13:29:05.3 37 42 2:14.947 32.013 56 151 0
13:31:22.0 38 43 2:16.635 31.617 51 150 0
13:33:38.6 39 44 2:16.633 31.618 55 149 0
13:35:53.6 40 45 2:15.024 31.994 53 150 0
13:38:06.5 41 46 2:12.823 32.524 55 150 0
13:40:20.6 42 47 2:14.125 32.209 56 149 0
13:42:36.4 43 48 2:15.809 31.809 54 149 0
13:44:49.5 44 49 2:13.147 32.445 55 148 0
13:47:01.7 45 50 2:12.185 32.681 53 146 0
13:49:16.0 46 51 2:14.236 32.182 55 150 0
13:51:30.2 47 52 2:14.193 32.192 55 148 0
13:53:47.0 48 53 2:16.844 31.569 55 149 0
13:56:02.4 49 54 2:15.361 31.915 56 150 0
13:58:19.6 50 55 2:17.230 31.480 55 150 0
14:00:37.3 51 56 2:17.753 31.360 57 151 0
14:02:54.5 52 57 2:17.199 31.487 55 150 0
14:05:13.2 53 58 2:18.692 31.148 57 150 0
14:07:31.1 54 59 2:17.910 31.325 58 150 0
14:09:48.2 55 60 2:17.100 31.510 57 150 0
14:12:07.9 56 61 2:19.640 30.937 55 150 0
14:14:23.1 57 63 2:15.232 31.945 54 149 0
14:16:39.4 58 63 2:16.285 31.698 56 149 0
14:18:55.5 59 64 2:16.066 31.749 54 151 0
14:21:13.8 60 65 2:18.330 31.230 56 149 0
14:23:30.2 61 66 2:16.424 31.666 55 150 0
14:25:48.0 62 67 2:17.732 31.365 57 148 0
14:28:06.2 63 68 2:18.215 31.256 57 150 0
14:30:24.0 64 69 2:17.789 31.352 56 150 0
14:33:47.6 65 71 3:23.614 21.217 54 149 0
14:35:51.8 66 72 2:04.224 34.776 55 149 0
14:37:59.1 67 73 2:07.262 33.946 53 149 0
14:40:07.6 68 74 2:08.547 33.606 53 149 0
14:42:17.5 69 75 2:09.859 33.267 55 151 0
14:44:26.6 70 76 2:09.158 33.447 55 150 0
14:46:36.8 71 77 2:10.208 33.178 55 151 0
14:48:45.8 72 78 2:09.001 33.488 55 148 0
14:50:58.3 73 79 2:12.455 32.615 57 150 0
14:53:12.2 74 80 2:13.874 32.269 48 147 0
14:55:25.5 75 81 2:13.311 32.405 56 150 0
14:58:18.0 76 82 2:52.541 25.038 58 147 0
15:01:57.8 77 84 3:39.808 19.654 53 148 0
15:04:06.2 78 85 2:08.351 33.658 55 147 0
15:06:17.9 79 86 2:11.713 32.799 55 146 0
15:08:38.3 80 87 2:20.462 30.756 56 148 0
15:11:03.5 81 88 2:25.181 29.756 55 145 0
15:13:23.4 82 89 2:19.850 30.890 57 146 0
15:15:41.2 83 90 2:17.789 31.352 54 147 0
15:17:56.5 84 91 2:15.385 31.909 55 146 0
15:20:14.0 85 92 2:17.415 31.438 53 146 0
15:22:40.6 86 93 2:26.607 29.467 57 144 0
15:26:44.3 87 95 4:03.701 17.727 51 148 0
15:29:02.3 88 95 2:18.047 31.294 56 148 0
15:31:20.7 89 96 2:18.408 31.212 52 146 0
15:33:41.3 90 98 2:20.580 30.730 55 146 0
15:36:03.9 91 99 2:22.616 30.291 58 146 0
15:38:26.5 92 100 2:22.571 30.301 56 145 0
15:41:48.2 93 101 3:21.751 21.413 54 148 0
15:43:57.5 94 102 2:09.240 33.426 54 147 0
15:46:09.0 95 103 2:11.521 32.846 54 149 0
15:48:23.9 96 104 2:14.943 32.014 55 147 0
15:50:38.4 97 105 2:14.437 32.134 55 149 0
15:52:53.8 98 106 2:15.462 31.891 54 150 0
15:55:09.1 99 107 2:15.270 31.936 56 149 0
15:57:24.9 100 109 2:15.810 31.809 55 150 0
15:59:44.4 101 110 2:19.470 30.974 57 149 0
16:02:06.8 102 111 2:22.421 30.333 57 149 0
16:04:27.1 103 112 2:20.248 30.803 55 148 0
16:06:45.8 104 113 2:18.705 31.145 57 148 0
16:09:03.8 105 114 2:18.069 31.289 58 150 0
16:11:23.8 106 115 2:19.998 30.858 58 149 0
16:13:43.8 107 116 2:19.916 30.876 57 147 0
16:16:04.0 108 117 2:20.214 30.810 58 149 0
16:18:24.3 109 118 2:20.314 30.788 56 148 0
16:20:43.9 110 119 2:19.632 30.938 58 149 0
16:23:03.2 111 120 2:19.296 31.013 57 148 0
16:25:29.9 112 121 2:26.677 29.452 57 150 0
16:27:55.6 113 122 2:25.757 29.638 58 151 0
16:30:16.7 114 123 2:21.012 30.636 56 147 0
16:32:36.4 115 124 2:19.755 30.911 58 148 0
16:34:54.8 116 125 2:18.411 31.211 57 149 0
16:37:14.8 117 126 2:20.000 30.857 59 149 0
16:39:35.1 118 127 2:20.292 30.793 55 150 0
16:41:49.5 119 129 2:14.374 32.149 56 148 0
16:44:01.2 120 129 2:11.680 32.807 53 147 0
16:46:16.8 121 130 2:15.673 31.841 58 148 0
16:48:30.3 122 132 2:13.472 32.366 56 148 0
16:50:48.3 123 133 2:17.954 31.315 60 150 0
16:54:21.6 124 134 3:33.311 20.252 52 148 0
16:56:24.0 125 135 2:02.448 35.280 50 147 0
16:58:28.7 126 135 2:04.716 34.639 54 150 0
17:00:38.4 127 135 2:09.630 33.326 54 149 0
17:02:50.4 128 136 2:12.065 32.711 51 146 0
17:04:56.7 129 137 2:06.214 34.228 52 148 0
17:10:16.4 130 140 5:19.758 13.510 60 147 0
17:13:39.3 131 142 3:22.840 21.298 55 147 0
17:15:48.8 132 143 2:09.597 33.334 53 147 0
17:18:00.5 133 144 2:11.680 32.807 56 146 0
17:20:13.8 134 145 2:13.264 32.417 55 148 0
17:22:18.7 135 146 2:04.892 34.590 54 146 0
17:24:33.5 136 147 2:14.850 32.036 55 148 0
17:26:50.7 137 148 2:17.173 31.493 56 145 0
17:29:06.5 138 149 2:15.834 31.804 55 147 0
17:31:23.9 139 150 2:17.394 31.442 55 146 0
17:33:39.5 140 151 2:15.570 31.865 54 145 0
17:35:50.4 141 152 2:10.854 33.014 53 144 0
17:38:01.7 142 153 2:11.330 32.894 56 147 0
17:40:15.0 143 154 2:13.281 32.413 56 148 0
17:42:26.7 144 155 2:11.779 32.782 54 146 0
17:44:37.9 145 156 2:11.144 32.941 55 147 0
17:46:52.3 146 157 2:14.381 32.147 55 147 0
17:49:05.3 147 158 2:13.060 32.467 55 148 0
17:51:17.6 148 159 2:12.270 32.660 55 147 0
17:53:29.8 149 160 2:12.224 32.672 55 147 0
17:55:40.4 150 161 2:10.543 33.093 56 148 0
17:57:56.4 151 162 2:15.993 31.766 59 147 0
18:00:13.4 152 163 2:17.077 31.515 55 148 0
18:02:22.0 153 164 2:08.513 33.615 56 144 0
33 - Zeus SMS/BGS - Open
12:01:23.2 1 1 2:09.216 33.432 53 161 0
12:03:34.4 2 2 2:11.224 32.921 52 162 0
12:05:44.3 3 3 2:09.937 33.247 53 161 0
12:07:59.3 4 4 2:14.970 32.007 54 161 0
12:10:13.8 5 5 2:14.527 32.113 56 161 0
12:12:29.1 6 6 2:15.255 31.940 56 163 0
12:14:46.0 7 7 2:16.906 31.554 54 162 0
12:17:00.3 8 8 2:14.367 32.151 53 164 0
12:19:17.5 9 9 2:17.188 31.490 56 163 0
12:21:36.4 10 10 2:18.843 31.114 55 162 0
12:23:50.0 11 12 2:13.622 32.330 56 164 0
12:26:15.0 12 13 2:24.968 29.800 57 161 0
12:28:40.5 13 14 2:25.577 29.675 58 162 0
12:31:07.5 14 15 2:26.992 29.389 57 164 0
12:33:31.5 15 16 2:23.921 30.016 57 163 0
12:35:56.9 16 17 2:25.453 29.700 58 162 0
12:38:24.4 17 19 2:27.507 29.287 55 161 0
12:40:51.1 18 20 2:26.712 29.445 55 161 0
12:43:14.9 19 21 2:23.736 30.055 57 163 0
12:46:56.1 20 23 3:41.237 19.527 79 177 0
12:49:17.5 21 24 2:21.410 30.549 54 160 0
12:51:34.5 22 25 2:17.014 31.530 57 163 0
12:54:00.3 23 26 2:25.753 29.639 58 162 0
12:56:29.6 24 27 2:29.308 28.933 58 161 0
12:58:58.2 25 28 2:28.659 29.060 57 160 0
13:01:27.0 26 30 2:28.724 29.047 56 162 0
13:04:02.7 27 31 2:35.722 27.742 60 161 0
13:06:36.5 28 32 2:33.820 28.085 57 161 0
13:09:08.8 29 33 2:32.257 28.373 58 162 0
13:11:39.5 30 34 2:30.707 28.665 57 162 0
13:14:10.3 31 35 2:30.868 28.634 58 162 0
13:16:48.1 32 36 2:37.793 27.378 58 162 0
13:19:26.6 33 38 2:38.444 27.265 59 163 0
13:22:06.7 34 39 2:40.136 26.977 59 163 0
13:24:41.8 35 40 2:35.040 27.864 58 161 0
13:27:19.6 36 41 2:37.883 27.362 60 161 0
13:29:55.1 37 43 2:35.460 27.788 59 162 0
13:33:31.6 38 44 3:36.487 19.955 77 174 0
13:35:51.5 39 45 2:19.911 30.877 55 161 0
13:38:04.7 40 46 2:13.182 32.437 54 162 0
13:40:18.7 41 47 2:14.034 32.231 55 160 0
13:42:35.9 42 48 2:17.199 31.487 53 161 0
13:44:49.1 43 49 2:13.149 32.445 52 162 0
13:47:01.1 44 50 2:12.080 32.707 54 160 0
13:49:15.2 45 51 2:14.050 32.227 55 160 0
13:51:29.7 46 52 2:14.471 32.126 55 160 0
13:53:46.5 47 53 2:16.800 31.579 54 159 0
13:56:01.8 48 54 2:15.369 31.913 54 161 0
13:58:18.7 49 55 2:16.912 31.553 53 161 0
14:00:36.7 50 56 2:17.984 31.308 55 162 0
14:02:54.0 51 57 2:17.320 31.459 56 162 0
14:05:12.6 52 58 2:18.550 31.180 55 161 0
14:07:30.3 53 59 2:17.712 31.370 55 161 0
14:09:47.7 54 60 2:17.362 31.450 56 163 0
14:12:07.0 55 61 2:19.350 31.001 55 161 0
14:14:21.3 56 63 2:14.240 32.181 55 161 0
14:17:44.4 57 64 3:23.099 21.270 83 179 0
14:20:30.0 58 65 2:45.631 26.082 55 163 0
14:23:01.5 59 66 2:31.523 28.511 56 161 0
14:25:28.2 60 67 2:26.720 29.444 53 162 0
14:27:55.0 61 68 2:26.816 29.425 56 161 0
14:30:23.4 62 69 2:28.401 29.110 57 163 0
14:32:48.9 63 70 2:25.403 29.711 56 163 0
14:35:17.8 64 72 2:28.961 29.001 57 162 0
14:37:45.2 65 73 2:27.366 29.315 56 162 0
14:40:12.2 66 74 2:27.017 29.384 56 161 0
14:42:39.6 67 75 2:27.442 29.300 56 165 0
14:45:11.0 68 76 2:31.373 28.539 56 163 0
14:47:40.8 69 77 2:29.838 28.831 56 163 0
14:50:12.7 70 78 2:31.865 28.446 59 166 0
14:52:43.7 71 79 2:31.033 28.603 57 162 0
14:55:15.7 72 81 2:31.996 28.422 58 162 0
14:57:56.0 73 82 2:40.231 26.961 55 163 0
15:01:45.0 74 84 3:49.030 18.862 76 174 0
15:04:08.5 75 85 2:23.543 30.096 54 162 0
15:06:23.5 76 86 2:14.928 32.017 55 161 0
15:08:39.4 77 87 2:15.955 31.775 54 161 0
15:10:52.9 78 88 2:13.475 32.366 54 161 0
15:13:07.7 79 89 2:14.746 32.060 55 161 0
15:15:24.6 80 90 2:16.968 31.540 56 162 0
15:17:44.8 81 91 2:20.167 30.820 56 161 0
15:20:03.5 82 92 2:18.759 31.133 56 163 0
15:28:46.9 83 95 8:43.346 8.255 80 175 0
15:31:07.1 84 96 2:20.221 30.809 53 161 0
15:33:19.9 85 97 2:12.823 32.524 55 162 0
15:35:35.3 86 98 2:15.327 31.923 57 163 0
15:37:54.2 87 100 2:18.984 31.083 55 161 0
15:40:17.9 88 101 2:23.673 30.068 56 164 0
15:42:37.3 89 102 2:19.388 30.993 56 164 0
15:44:53.0 90 103 2:15.689 31.838 55 162 0
15:48:40.3 91 105 3:47.349 19.002 74 174 0
15:51:16.6 92 106 2:36.229 27.652 57 164 0
15:53:44.0 93 107 2:27.412 29.306 57 161 0
15:56:07.2 94 108 2:23.205 30.167 61 164 0
15:58:36.2 95 109 2:28.972 28.999 56 161 0
16:01:01.3 96 110 2:25.176 29.757 54 161 0
16:03:25.6 97 111 2:24.224 29.953 56 161 0
16:05:49.9 98 112 2:24.301 29.937 57 162 0
16:08:13.5 99 113 2:23.600 30.084 56 162 0
16:10:37.7 100 115 2:24.219 29.954 54 161 0
16:13:01.9 101 116 2:24.195 29.959 58 161 0
16:15:29.1 102 117 2:27.189 29.350 56 160 0
16:17:57.2 103 118 2:28.165 29.157 56 162 0
16:20:23.2 104 119 2:25.923 29.605 56 162 0
16:22:46.9 105 120 2:23.721 30.058 57 161 0
16:25:12.0 106 121 2:25.080 29.777 58 162 0
16:27:39.7 107 122 2:27.754 29.238 50 162 0
16:31:20.8 108 124 3:41.057 19.542 76 177 0
16:33:42.0 109 125 2:21.188 30.598 57 161 0
16:36:00.5 110 126 2:18.547 31.181 53 159 0
16:38:17.6 111 127 2:17.070 31.517 55 162 0
16:40:37.5 112 128 2:19.949 30.868 56 164 0
16:42:55.9 113 129 2:18.397 31.215 54 160 0
16:45:10.4 114 130 2:14.509 32.117 54 160 0
16:47:28.5 115 131 2:18.077 31.287 57 160 0
16:49:52.8 116 132 2:24.328 29.932 57 160 0
16:52:16.3 117 133 2:23.430 30.119 56 161 0
16:54:38.0 118 134 2:21.747 30.477 56 161 0
16:56:57.4 119 135 2:19.411 30.988 56 161 0
16:59:16.3 120 135 2:18.877 31.107 53 161 0
17:01:38.8 121 136 2:22.523 30.311 56 160 0
17:04:00.1 122 137 2:21.241 30.586 54 160 0
17:06:18.0 123 138 2:17.919 31.323 54 161 0
17:08:39.0 124 139 2:21.005 30.637 56 163 0
17:11:02.3 125 140 2:23.332 30.140 56 161 0
17:14:21.5 126 142 3:19.146 21.693 84 177 0
17:16:31.4 127 143 2:09.913 33.253 52 160 0
17:18:37.0 128 144 2:05.617 34.390 52 161 0
17:20:45.2 129 145 2:08.233 33.689 53 160 0
17:22:52.9 130 146 2:07.640 33.845 53 160 0
17:25:00.9 131 147 2:08.035 33.741 54 160 0
17:27:14.0 132 148 2:13.106 32.455 54 160 0
17:29:22.5 133 149 2:08.503 33.618 55 164 0
17:31:35.8 134 150 2:13.293 32.410 52 161 0
17:33:47.4 135 151 2:11.626 32.820 50 161 0
17:35:55.1 136 152 2:07.680 33.835 54 160 0
17:38:05.8 137 153 2:10.698 33.053 54 159 0
17:40:15.8 138 154 2:10.022 33.225 54 161 0
17:42:33.4 139 155 2:17.530 31.411 53 162 0
17:44:56.4 140 156 2:23.007 30.208 52 162 0
17:47:05.2 141 157 2:08.814 33.537 55 162 0
17:49:16.1 142 158 2:10.959 32.987 54 161 0
17:51:39.6 143 159 2:23.448 30.115 54 160 0
17:53:53.7 144 160 2:14.129 32.208 55 161 0
17:56:07.0 145 162 2:13.288 32.411 52 162 0
17:58:15.9 146 163 2:08.856 33.526 52 160 0
18:00:26.7 147 163 2:10.826 33.021 53 160 0
18:02:36.0 148 164 2:09.331 33.403 54 162 0
31 - Evo Kingswood Colllege - Open
12:01:35.2 1 1 2:20.063 30.843 53 149 0
12:03:45.0 2 2 2:09.827 33.275 54 149 0
12:05:59.0 3 3 2:13.989 32.241 54 152 0
12:08:10.9 4 4 2:11.868 32.760 54 152 0
12:10:22.5 5 5 2:11.660 32.812 57 153 0
12:12:36.7 6 6 2:14.144 32.204 57 155 0
12:14:51.1 7 7 2:14.436 32.134 52 148 0
12:17:05.6 8 8 2:14.515 32.115 57 153 0
12:19:20.4 9 9 2:14.782 32.052 55 152 0
12:21:37.7 10 11 2:17.233 31.479 52 150 0
12:23:47.3 11 12 2:09.610 33.331 54 152 0
12:26:00.2 12 13 2:12.893 32.507 55 152 0
12:28:18.0 13 14 2:17.871 31.334 56 153 0
12:30:32.1 14 15 2:14.084 32.219 55 153 0
12:32:47.7 15 16 2:15.588 31.861 56 152 0
12:35:05.5 16 17 2:17.790 31.352 59 153 0
12:37:26.0 17 18 2:20.544 30.738 58 151 0
12:39:45.6 18 19 2:19.563 30.954 58 154 0
12:42:06.0 19 20 2:20.432 30.762 54 154 0
12:44:26.0 20 21 2:20.009 30.855 56 153 0
12:46:46.9 21 23 2:20.860 30.669 53 154 0
12:49:01.5 22 24 2:14.595 32.096 56 153 0
12:52:35.6 23 25 3:34.064 20.181 53 148 0
12:54:47.0 24 26 2:11.398 32.877 55 148 0
12:57:06.0 25 27 2:19.047 31.069 56 150 0
12:59:23.3 26 29 2:17.332 31.457 57 154 0
13:01:47.9 27 30 2:24.550 29.886 58 150 0
13:04:12.9 28 31 2:25.047 29.783 58 151 0
13:06:39.1 29 32 2:26.173 29.554 55 151 0
13:09:06.5 30 33 2:27.406 29.307 57 155 0
13:11:33.3 31 34 2:26.793 29.429 58 154 0
13:14:01.9 32 35 2:28.576 29.076 56 153 0
13:16:36.2 33 36 2:34.354 27.988 58 150 0
13:19:09.9 34 38 2:33.638 28.118 57 151 0
13:21:38.4 35 39 2:28.487 29.093 56 151 0
13:24:01.3 36 40 2:22.965 30.217 55 150 0
13:26:26.9 37 41 2:25.579 29.675 56 153 0
13:28:54.4 38 42 2:27.461 29.296 55 152 0
13:31:22.8 39 43 2:28.456 29.100 56 153 0
13:33:48.1 40 44 2:25.322 29.727 59 153 0
13:36:18.5 41 45 2:30.401 28.723 57 152 0
13:38:41.8 42 47 2:23.235 30.160 57 152 0
13:42:34.9 43 48 3:53.164 18.528 57 150 0
13:44:58.4 44 49 2:23.493 30.106 58 154 0
13:47:31.3 45 51 2:32.897 28.254 55 152 0
13:49:58.4 46 52 2:27.053 29.377 59 152 0
13:52:26.9 47 53 2:28.475 29.096 56 154 0
13:54:59.1 48 54 2:32.238 28.377 61 154 0
13:57:32.5 49 55 2:33.418 28.158 58 153 0
14:00:07.0 50 56 2:34.476 27.966 55 151 0
14:02:39.1 51 57 2:32.156 28.392 64 153 0
14:05:16.0 52 58 2:36.825 27.547 58 152 0
14:07:52.2 53 59 2:36.258 27.647 61 154 0
14:10:29.7 54 61 2:37.519 27.425 59 152 0
14:13:10.3 55 62 2:40.585 26.902 61 155 0
14:15:50.2 56 63 2:39.826 27.029 60 153 0
14:18:35.4 57 64 2:45.221 26.147 56 154 0
14:21:11.4 58 65 2:35.990 27.694 60 154 0
14:24:40.8 59 67 3:29.461 20.624 55 152 0
14:27:02.0 60 68 2:21.183 30.599 56 152 0
14:29:20.4 61 69 2:18.384 31.217 56 152 0
14:31:42.6 62 70 2:22.225 30.374 54 153 0
14:34:04.6 63 71 2:21.975 30.428 54 153 0
14:36:27.8 64 72 2:23.171 30.174 55 152 0
14:38:50.0 65 73 2:22.279 30.363 56 151 0
14:41:12.1 66 74 2:22.101 30.401 58 152 0
14:43:35.3 67 75 2:23.161 30.176 55 150 0
14:45:57.7 68 76 2:22.353 30.347 59 153 0
14:48:21.4 69 77 2:23.730 30.056 57 151 0
14:50:38.5 70 79 2:17.114 31.507 56 151 0
14:53:11.8 71 80 2:33.314 28.177 59 155 0
14:55:47.2 72 81 2:35.371 27.804 59 154 0
14:58:22.5 73 82 2:35.347 27.809 53 150 0
15:00:58.9 74 83 2:36.397 27.622 56 151 0
15:03:28.9 75 84 2:30.008 28.798 58 151 0
15:06:00.3 76 85 2:31.344 28.544 59 151 0
15:08:31.0 77 87 2:30.761 28.655 56 150 0
15:10:54.0 78 88 2:22.930 30.225 57 153 0
15:13:22.7 79 89 2:28.768 29.039 55 150 0
15:15:48.7 80 90 2:25.934 29.602 58 152 0
15:19:12.0 81 91 3:23.283 21.251 60 151 0
15:21:33.3 82 93 2:21.331 30.567 58 148 0
15:23:57.0 83 94 2:23.746 30.053 60 150 0
15:26:21.8 84 95 2:24.806 29.833 58 150 0
15:28:47.7 85 95 2:25.841 29.621 53 151 0
15:31:11.3 86 96 2:23.629 30.077 63 153 0
15:33:42.8 87 98 2:31.506 28.514 60 150 0
15:36:10.3 88 99 2:27.450 29.298 59 150 0
15:38:41.0 89 100 2:30.715 28.663 60 150 0
15:41:10.3 90 101 2:29.345 28.926 60 153 0
15:43:39.8 91 102 2:29.445 28.907 55 148 0
15:46:07.0 92 103 2:27.211 29.346 61 150 0
15:48:43.3 93 105 2:36.307 27.638 59 151 0
15:51:13.6 94 106 2:30.298 28.743 59 153 0
15:53:49.9 95 107 2:36.270 27.644 61 151 0
15:56:25.0 96 108 2:35.143 27.845 60 151 0
15:58:46.5 97 109 2:21.472 30.536 57 149 0
16:02:10.1 98 111 3:23.592 21.219 60 149 0
16:04:30.5 99 112 2:20.405 30.768 56 150 0
16:06:49.5 100 113 2:19.068 31.064 56 151 0
16:09:09.6 101 114 2:20.056 30.845 58 149 0
16:11:30.5 102 115 2:20.857 30.669 58 152 0
16:13:50.6 103 116 2:20.175 30.819 57 151 0
16:16:16.2 104 117 2:25.587 29.673 56 151 0
16:18:46.6 105 118 2:30.352 28.733 58 149 0
16:21:14.1 106 119 2:27.483 29.292 60 150 0
16:23:40.6 107 120 2:26.532 29.482 58 152 0
16:26:06.0 108 121 2:25.384 29.714 59 148 0
16:28:32.1 109 122 2:26.087 29.571 60 150 0
16:30:52.8 110 124 2:20.706 30.702 52 148 0
16:33:17.8 111 125 2:25.069 29.779 59 152 0
16:35:47.1 112 126 2:29.234 28.948 56 150 0
16:38:17.4 113 127 2:30.351 28.733 57 149 0
16:40:48.8 114 128 2:31.363 28.541 58 150 0
16:43:20.3 115 129 2:31.552 28.505 59 149 0
16:46:57.1 116 131 3:36.775 19.928 53 151 0
16:49:24.3 117 132 2:27.182 29.351 56 148 0
16:51:57.1 118 133 2:32.823 28.268 57 152 0
16:54:29.6 119 134 2:32.507 28.327 58 150 0
16:57:02.8 120 135 2:33.172 28.204 61 150 0
16:59:38.8 121 135 2:35.971 27.697 60 151 0
17:02:12.5 122 136 2:33.728 28.102 57 151 0
17:04:48.7 123 137 2:36.172 27.662 59 151 0
17:07:27.1 124 139 2:38.406 27.272 59 150 0
17:10:06.0 125 140 2:38.921 27.183 60 153 0
17:12:45.6 126 141 2:39.576 27.072 61 150 0
17:17:15.6 127 143 4:30.025 15.999 53 146 0
17:19:34.7 128 144 2:19.117 31.053 56 147 0
17:21:49.3 129 146 2:14.642 32.085 53 147 0
17:24:01.6 130 147 2:12.271 32.660 56 147 0
17:26:18.0 131 148 2:16.346 31.684 53 147 0
17:28:34.3 132 149 2:16.295 31.696 55 148 0
17:30:49.0 133 150 2:14.708 32.069 55 147 0
17:33:03.4 134 151 2:14.395 32.144 53 149 0
17:35:17.3 135 152 2:13.950 32.251 54 147 0
17:37:31.0 136 153 2:13.722 32.306 55 147 0
17:39:49.7 137 154 2:18.667 31.154 51 150 0
17:42:09.0 138 155 2:19.261 31.021 55 147 0
17:44:26.4 139 156 2:17.436 31.433 55 149 0
17:46:43.2 140 157 2:16.810 31.577 54 149 0
17:48:57.7 141 158 2:14.533 32.111 53 148 0
17:51:14.1 142 159 2:16.369 31.679 56 147 0
17:53:30.2 143 160 2:16.115 31.738 55 149 0
17:55:46.7 144 161 2:16.454 31.659 53 148 0
17:58:00.8 145 162 2:14.163 32.200 56 148 0
18:00:20.7 146 163 2:19.829 30.895 54 148 0
18:02:31.6 147 164 2:10.887 33.006 55 148 0
44 - Stathdale Strathdale - Community
12:01:15.4 1 1 2:04.130 34.802 58 160 0
12:03:27.5 2 2 2:12.010 32.725 58 160 0
12:05:44.2 3 3 2:16.710 31.600 57 158 0
12:08:02.6 4 4 2:18.407 31.212 60 158 0
12:10:19.5 5 5 2:16.970 31.540 61 162 0
12:12:36.4 6 6 2:16.845 31.569 56 162 0
12:14:53.4 7 7 2:16.966 31.541 62 159 0
12:17:13.0 8 8 2:19.628 30.939 60 158 0
12:19:32.3 9 9 2:19.346 31.002 56 161 0
12:21:51.6 10 11 2:19.226 31.029 59 161 0
12:24:13.4 11 12 2:21.891 30.446 60 160 0
12:26:37.1 12 13 2:23.611 30.081 59 160 0
12:29:36.3 13 14 2:59.208 24.106 59 157 0
12:31:59.5 14 15 2:23.256 30.156 64 161 0
12:34:25.4 15 17 2:25.835 29.623 60 162 0
12:36:54.8 16 18 2:29.435 28.909 61 160 0
12:40:12.8 17 19 3:18.007 21.817 58 158 0
12:42:25.0 18 20 2:12.164 32.687 58 158 0
12:44:40.5 19 22 2:15.543 31.872 60 162 0
12:46:59.3 20 23 2:18.808 31.122 59 158 0
12:49:53.0 21 24 2:53.671 24.875 59 161 0
12:52:10.9 22 25 2:17.946 31.317 58 158 0
12:54:28.5 23 26 2:17.618 31.391 55 163 0
12:56:52.6 24 27 2:24.030 29.994 59 156 0
12:59:14.3 25 29 2:21.694 30.488 59 159 0
13:01:35.9 26 30 2:21.680 30.491 59 160 0
13:03:59.3 27 31 2:23.335 30.139 60 158 0
13:06:22.5 28 32 2:23.234 30.160 61 158 0
13:08:47.8 29 33 2:25.262 29.739 61 159 0
13:11:18.2 30 34 2:30.375 28.728 61 158 0
13:13:43.6 31 35 2:25.475 29.696 55 158 0
13:16:09.6 32 36 2:25.926 29.604 58 160 0
13:18:34.7 33 37 2:25.126 29.767 58 160 0
13:20:56.5 34 38 2:21.794 30.467 59 161 0
13:23:21.6 35 39 2:25.099 29.773 59 161 0
13:25:44.8 36 41 2:23.177 30.172 60 160 0
13:28:06.9 37 42 2:22.119 30.397 57 160 0
13:30:31.9 38 43 2:25.070 29.779 59 160 0
13:32:54.1 39 44 2:22.114 30.398 58 162 0
13:36:15.3 40 45 3:21.296 21.461 58 160 0
13:38:27.3 41 46 2:11.932 32.744 56 161 0
13:40:40.3 42 48 2:12.972 32.488 59 164 0
13:42:58.3 43 49 2:18.027 31.298 57 160 0
13:45:14.0 44 50 2:15.716 31.831 60 160 0
13:47:30.6 45 51 2:16.560 31.634 60 161 0
13:49:47.8 46 51 2:17.271 31.471 57 161 0
13:52:00.3 47 52 2:12.428 32.621 59 161 0
13:54:19.2 48 54 2:18.921 31.097 60 163 0
13:56:45.1 49 55 2:25.938 29.602 59 160 0
13:59:05.0 50 56 2:19.935 30.871 61 160 0
14:01:25.2 51 57 2:20.198 30.814 61 162 0
14:03:49.0 52 58 2:23.719 30.059 60 164 0
14:06:06.4 53 59 2:17.422 31.436 58 160 0
14:08:24.7 54 60 2:18.359 31.223 58 159 0
14:10:43.7 55 61 2:18.958 31.089 61 163 0
14:13:04.8 56 62 2:21.057 30.626 58 160 0
14:15:29.3 57 63 2:24.516 29.893 61 162 0
14:17:51.4 58 64 2:22.141 30.392 61 161 0
14:20:12.6 59 65 2:21.145 30.607 60 163 0
14:22:32.9 60 66 2:20.366 30.777 56 160 0
14:24:58.5 61 67 2:25.559 29.679 61 163 0
14:27:28.3 62 68 2:29.812 28.836 62 164 0
14:29:57.6 63 69 2:29.328 28.930 60 161 0
14:32:19.2 64 70 2:21.522 30.525 61 163 0
14:34:38.1 65 71 2:18.972 31.085 61 160 0
14:36:56.6 66 72 2:18.508 31.190 60 162 0
14:39:15.7 67 73 2:19.047 31.069 61 161 0
14:42:36.4 68 75 3:20.709 21.524 58 161 0
14:44:54.0 69 76 2:17.602 31.395 59 161 0
14:47:13.1 70 77 2:19.146 31.047 59 162 0
14:49:33.8 71 78 2:20.646 30.715 58 159 0
14:51:55.5 72 79 2:21.733 30.480 61 163 0
14:54:17.7 73 80 2:22.138 30.393 61 161 0
14:56:39.0 74 81 2:21.395 30.553 61 164 0
14:59:02.9 75 82 2:23.843 30.033 62 163 0
15:01:28.7 76 83 2:25.841 29.621 58 157 0
15:03:50.6 77 84 2:21.911 30.442 61 163 0
15:06:09.1 78 86 2:18.419 31.210 60 160 0
15:08:40.3 79 87 2:31.240 28.564 57 163 0
15:11:10.2 80 88 2:29.870 28.825 65 163 0
15:15:50.9 81 90 4:40.778 15.386 59 161 0
15:18:13.1 82 91 2:22.121 30.397 61 160 0
15:22:41.8 83 93 4:28.695 16.078 60 161 0
15:24:56.9 84 94 2:15.118 31.972 60 161 0
15:27:17.3 85 95 2:20.368 30.776 58 162 0
15:29:34.3 86 96 2:17.091 31.512 56 161 0
15:31:57.6 87 97 2:23.208 30.166 63 162 0
15:34:21.0 88 98 2:23.446 30.116 63 161 0
15:36:45.6 89 99 2:24.650 29.865 59 157 0
15:41:15.7 90 101 4:30.017 15.999 60 161 0
15:43:32.9 91 102 2:17.285 31.467 59 160 0
15:45:52.4 92 103 2:19.479 30.972 58 159 0
15:48:16.3 93 104 2:23.908 30.019 62 161 0
15:50:39.7 94 105 2:23.385 30.129 58 161 0
15:52:54.2 95 106 2:14.522 32.114 58 159 0
15:55:09.9 96 107 2:15.631 31.851 58 160 0
15:57:31.5 97 109 2:21.648 30.498 63 160 0
16:00:08.0 98 110 2:36.446 27.613 64 161 0
16:03:56.6 99 111 3:48.652 18.893 61 162 0
16:06:20.5 100 113 2:23.861 30.029 62 162 0
16:08:37.5 101 114 2:17.065 31.518 61 159 0
16:10:54.6 102 115 2:17.077 31.515 59 161 0
16:13:14.4 103 116 2:19.816 30.898 61 159 0
16:15:36.7 104 117 2:22.241 30.371 62 160 0
16:18:00.4 105 118 2:23.706 30.061 62 160 0
16:20:22.0 106 119 2:21.633 30.501 61 159 0
16:22:46.6 107 120 2:24.563 29.883 63 159 0
16:25:10.0 108 121 2:23.455 30.114 58 160 0
16:27:38.5 109 122 2:28.505 29.090 62 160 0
16:31:44.9 110 124 4:06.324 17.538 62 159 0
16:34:05.8 111 125 2:20.984 30.642 62 160 0
16:36:25.6 112 126 2:19.758 30.911 60 160 0
16:38:45.9 113 127 2:20.302 30.791 60 159 0
16:41:05.7 114 128 2:19.826 30.896 59 161 0
16:43:28.4 115 129 2:22.635 30.287 64 160 0
16:45:52.1 116 130 2:23.693 30.064 61 160 0
16:48:15.9 117 131 2:23.841 30.033 63 160 0
16:50:45.3 118 133 2:29.445 28.907 64 159 0
16:53:16.6 119 134 2:31.204 28.571 64 161 0
16:55:47.1 120 135 2:30.586 28.688 64 161 0
16:58:18.9 121 135 2:31.778 28.463 60 158 0
17:00:52.1 122 136 2:33.192 28.200 61 161 0
17:03:26.3 123 137 2:34.168 28.021 64 159 0
17:06:14.7 124 138 2:48.410 25.652 66 163 0
17:09:12.2 125 139 2:57.471 24.342 67 162 0
17:12:54.6 126 141 3:42.404 19.424 62 161 0
17:15:17.9 127 142 2:23.304 30.146 61 161 0
17:17:37.4 128 143 2:19.580 30.950 57 159 0
17:19:54.2 129 145 2:16.740 31.593 59 160 0
17:22:17.6 130 146 2:23.384 30.129 61 160 0
17:24:35.9 131 147 2:18.355 31.224 63 160 0
17:26:57.7 132 148 2:21.811 30.463 60 161 0
17:29:22.2 133 149 2:24.510 29.894 62 160 0
17:31:48.0 134 150 2:25.737 29.642 62 161 0
17:34:22.5 135 152 2:34.479 27.965 65 160 0
17:36:55.1 136 153 2:32.623 28.305 64 160 0
17:39:26.4 137 154 2:31.343 28.544 63 161 0
17:42:11.2 138 155 2:44.733 26.224 65 161 0
17:44:49.7 139 156 2:38.490 27.257 64 160 0
17:47:32.3 140 158 2:42.648 26.560 65 162 0
17:50:14.1 141 159 2:41.846 26.692 66 162 0
17:52:55.5 142 160 2:41.380 26.769 64 161 0
17:55:36.4 143 161 2:40.921 26.845 64 162 0
17:58:16.5 144 163 2:40.007 26.999 65 163 0
18:00:56.1 145 164 2:39.630 27.063 58 162 0
34 - BYO Caufield Grammar - Open
12:02:22.0 1 1 2:37.653 27.402 57 165 0
12:04:38.5 2 2 2:16.561 31.634 55 168 0
12:06:59.2 3 3 2:20.669 30.710 55 165 0
12:09:18.7 4 5 2:19.543 30.958 60 165 0
12:11:37.9 5 6 2:19.161 31.043 60 165 0
12:13:57.4 6 7 2:19.471 30.974 61 161 0
12:16:16.1 7 8 2:18.762 31.132 60 165 0
12:18:36.6 8 9 2:20.448 30.759 62 165 0
12:20:56.0 9 10 2:19.375 30.996 61 167 0
12:23:17.7 10 11 2:21.766 30.473 60 165 0
12:25:43.7 11 12 2:25.958 29.598 52 165 0
12:28:04.2 12 14 2:20.549 30.737 61 163 0
12:30:26.8 13 15 2:22.611 30.292 63 166 0
12:32:48.2 14 16 2:21.386 30.555 62 164 0
12:35:06.7 15 17 2:18.516 31.188 61 164 0
12:39:19.7 16 19 4:12.954 17.078 84 181 0
12:41:51.1 17 20 2:31.371 28.539 61 166 0
12:44:11.7 18 21 2:20.687 30.706 60 166 0
12:46:35.5 19 22 2:23.793 30.043 62 167 0
12:48:58.0 20 24 2:22.485 30.319 61 165 0
12:51:19.9 21 25 2:21.883 30.448 59 165 0
12:53:46.3 22 26 2:26.402 29.508 62 162 0
12:56:13.3 23 27 2:26.959 29.396 61 164 0
12:58:38.7 24 28 2:25.444 29.702 60 166 0
13:01:06.4 25 29 2:27.710 29.246 57 162 0
13:03:35.5 26 31 2:29.099 28.974 61 163 0
13:06:01.1 27 32 2:25.544 29.682 63 165 0
13:10:09.5 28 34 4:08.401 17.391 78 178 0
13:12:42.0 29 35 2:32.551 28.318 58 165 0
13:14:54.7 30 35 2:12.660 32.564 59 164 0
13:17:06.1 31 37 2:11.379 32.882 54 164 0
13:19:17.6 32 38 2:11.578 32.832 56 165 0
13:21:30.3 33 39 2:12.637 32.570 59 166 0
13:23:41.0 34 40 2:10.689 33.056 55 164 0
13:25:55.5 35 41 2:14.545 32.108 60 165 0
13:28:04.3 36 42 2:08.794 33.542 57 165 0
13:30:20.2 37 43 2:15.936 31.780 57 166 0
13:32:34.8 38 44 2:14.604 32.094 55 166 0
13:34:54.2 39 45 2:19.372 30.996 59 165 0
13:37:14.2 40 46 2:19.959 30.866 61 167 0
13:39:31.6 41 47 2:17.402 31.441 57 167 0
13:41:49.3 42 48 2:17.687 31.376 59 164 0
13:44:02.1 43 49 2:12.835 32.522 53 167 0
13:46:26.0 44 50 2:23.945 30.011 61 166 0
13:48:46.4 45 51 2:20.339 30.783 61 164 0
13:50:53.6 46 52 2:07.250 33.949 57 168 0
13:55:55.5 47 54 5:01.861 14.311 77 177 0
13:58:28.2 48 55 2:32.726 28.286 59 167 0
14:00:59.7 49 57 2:31.509 28.513 63 167 0
14:03:33.7 50 58 2:34.010 28.050 63 164 0
14:06:06.1 51 59 2:32.341 28.357 58 164 0
14:08:34.3 52 60 2:28.243 29.141 61 163 0
14:10:57.6 53 61 2:23.306 30.145 63 164 0
14:13:29.5 54 62 2:31.825 28.454 63 163 0
14:16:13.1 55 63 2:43.653 26.397 66 165 0
14:18:47.2 56 64 2:34.089 28.036 62 164 0
14:23:40.0 57 66 4:52.819 14.753 77 178 0
14:26:13.3 58 67 2:33.257 28.188 63 164 0
14:28:37.7 59 69 2:24.411 29.915 62 165 0
14:30:55.6 60 70 2:17.930 31.320 61 163 0
14:33:17.8 61 71 2:22.227 30.374 63 165 0
14:35:44.0 62 72 2:26.116 29.566 62 162 0
14:38:05.5 63 73 2:21.521 30.526 60 165 0
14:40:30.6 64 74 2:25.108 29.771 61 165 0
14:42:56.4 65 75 2:25.769 29.636 58 165 0
14:45:19.4 66 76 2:23.022 30.205 61 165 0
14:47:43.1 67 77 2:23.751 30.052 62 164 0
14:50:04.1 68 78 2:20.972 30.644 63 163 0
14:52:25.7 69 79 2:21.620 30.504 63 164 0
14:54:49.7 70 80 2:23.961 30.008 60 166 0
14:57:12.8 71 81 2:23.170 30.174 59 164 0
14:59:35.8 72 83 2:22.983 30.213 57 164 0
15:02:01.4 73 84 2:25.537 29.683 62 163 0
15:04:36.2 74 85 2:34.866 27.895 65 162 0
15:07:01.6 75 86 2:25.349 29.722 62 161 0
15:09:29.6 76 87 2:28.029 29.183 62 162 0
15:13:40.0 77 89 4:10.370 17.254 78 177 0
15:16:08.0 78 90 2:28.053 29.179 59 162 0
15:18:32.2 79 91 2:24.165 29.966 59 164 0
15:20:57.3 80 92 2:25.126 29.767 63 163 0
15:23:22.4 81 93 2:25.042 29.784 56 163 0
15:25:42.6 82 94 2:20.242 30.804 61 165 0
15:28:07.3 83 95 2:24.664 29.862 60 164 0
15:30:31.3 84 96 2:23.989 30.002 62 165 0
15:32:53.2 85 97 2:21.932 30.437 62 165 0
15:35:18.9 86 98 2:25.693 29.651 64 163 0
15:37:46.7 87 99 2:27.809 29.227 59 165 0
15:40:12.1 88 101 2:25.407 29.710 56 163 0
15:42:37.8 89 102 2:25.680 29.654 62 163 0
15:45:06.4 90 103 2:28.631 29.065 60 162 0
15:49:25.8 91 105 4:19.402 16.654 78 177 0
15:51:47.9 92 106 2:22.131 30.394 59 166 0
15:54:10.0 93 107 2:22.015 30.419 59 167 0
15:56:33.6 94 108 2:23.662 30.071 61 166 0
15:58:51.9 95 109 2:18.316 31.233 61 165 0
16:01:09.1 96 110 2:17.114 31.507 59 165 0
16:03:26.3 97 111 2:17.227 31.481 60 164 0
16:05:46.9 98 112 2:20.589 30.728 62 162 0
16:08:05.1 99 113 2:18.180 31.264 61 165 0
16:10:21.3 100 114 2:16.267 31.702 59 166 0
16:12:41.2 101 115 2:19.896 30.880 61 165 0
16:15:05.0 102 116 2:23.809 30.040 58 163 0
16:17:20.7 103 118 2:15.716 31.831 63 162 0
16:19:47.4 104 119 2:26.708 29.446 63 164 0
16:22:05.0 105 120 2:17.598 31.396 59 162 0
16:24:22.6 106 121 2:17.578 31.400 62 165 0
16:28:16.2 107 122 3:53.547 18.497 77 175 0
16:30:44.4 108 123 2:28.227 29.144 62 164 0
16:33:11.7 109 125 2:27.286 29.331 62 162 0
16:35:34.7 110 126 2:23.004 30.209 61 161 0
16:37:59.2 111 127 2:24.500 29.896 62 166 0
16:40:23.5 112 128 2:24.293 29.939 64 163 0
16:42:48.3 113 129 2:24.816 29.831 63 162 0
16:45:17.5 114 130 2:29.173 28.960 69 167 0
16:50:43.5 115 133 5:26.053 13.249 60 163 0
16:52:53.9 116 133 2:10.416 33.125 57 164 0
16:55:05.9 117 134 2:11.917 32.748 62 163 0
16:57:21.6 118 135 2:15.712 31.832 59 162 0
16:59:40.5 119 135 2:18.905 31.100 61 162 0
17:01:58.2 120 136 2:17.761 31.359 62 163 0
17:04:18.9 121 137 2:20.653 30.714 63 163 0
17:06:38.4 122 138 2:19.492 30.970 64 163 0
17:08:55.0 123 139 2:16.667 31.610 61 165 0
17:11:09.8 124 140 2:14.785 32.051 59 163 0
17:13:24.4 125 141 2:14.605 32.094 59 162 0
17:15:41.1 126 143 2:16.618 31.621 62 163 0
17:18:02.6 127 144 2:21.500 30.530 60 162 0
17:20:21.4 128 145 2:18.856 31.111 62 164 0
17:22:38.9 129 146 2:17.526 31.412 60 164 0
17:24:57.3 130 147 2:18.348 31.226 61 162 0
17:27:13.4 131 148 2:16.142 31.732 60 160 0
17:29:22.7 132 149 2:09.258 33.422 60 163 0
17:31:33.8 133 150 2:11.078 32.957 60 162 0
17:33:47.2 134 151 2:13.427 32.377 57 163 0
17:35:56.1 135 152 2:08.899 33.515 58 164 0
17:38:06.1 136 153 2:10.039 33.221 59 163 0
17:40:16.3 137 154 2:10.195 33.181 60 162 0
17:42:32.0 138 155 2:15.636 31.850 61 161 0
17:46:46.0 139 157 4:14.076 17.003 73 173 0
17:49:11.6 140 158 2:25.572 29.676 65 164 0
17:51:45.1 141 160 2:33.460 28.151 65 163 0
17:54:21.0 142 161 2:35.973 27.697 65 165 0
17:57:05.3 143 162 2:44.243 26.302 65 165 0
17:59:40.6 144 163 2:35.278 27.821 65 162 0
18:02:17.6 145 164 2:37.066 27.504 65 163 0
46 - 49% Angels EDEC - Open
12:01:28.3 1 1 2:15.376 31.911 58 180 0
12:03:54.1 2 2 2:25.844 29.621 62 181 0
12:06:24.2 3 3 2:30.086 28.783 58 179 0
12:08:48.8 4 4 2:24.598 29.876 62 178 0
12:11:13.3 5 5 2:24.508 29.895 65 179 0
12:13:46.7 6 7 2:33.420 28.158 63 176 0
12:16:18.3 7 8 2:31.606 28.495 62 178 0
12:18:55.0 8 9 2:36.651 27.577 64 180 0
12:21:29.1 9 10 2:34.157 28.023 63 178 0
12:23:59.5 10 12 2:30.343 28.734 62 178 0
12:26:29.7 11 13 2:30.224 28.757 62 177 0
12:28:59.2 12 14 2:29.483 28.900 60 178 0
12:31:25.4 13 15 2:26.240 29.540 58 180 0
12:33:48.4 14 16 2:22.935 30.224 61 177 0
12:36:13.9 15 17 2:25.556 29.679 62 178 0
12:38:42.6 16 19 2:28.714 29.049 59 178 0
12:41:12.2 17 20 2:29.579 28.881 63 178 0
12:43:40.4 18 21 2:28.241 29.142 63 179 0
12:46:08.0 19 22 2:27.510 29.286 62 178 0
12:48:39.1 20 23 2:31.154 28.580 63 177 0
12:51:10.6 21 25 2:31.470 28.520 63 180 0
12:53:42.7 22 26 2:32.092 28.404 63 180 0
12:56:17.8 23 27 2:35.096 27.854 63 180 0
12:58:54.8 24 28 2:37.078 27.502 62 179 0
13:01:26.7 25 30 2:31.803 28.458 58 180 0
13:03:59.0 26 31 2:32.355 28.355 64 180 0
13:06:35.1 27 32 2:36.048 27.684 64 182 0
13:10:22.5 28 34 3:47.448 18.993 83 190 0
13:12:48.4 29 35 2:25.894 29.611 62 181 0
13:15:19.9 30 36 2:31.537 28.508 61 180 0
13:18:00.4 31 37 2:40.443 26.925 63 180 0
13:20:37.0 32 38 2:36.620 27.583 62 179 0
13:23:14.4 33 39 2:37.451 27.437 66 178 0
13:25:58.2 34 41 2:43.756 26.381 57 180 0
13:28:37.7 35 42 2:39.505 27.084 61 177 0
13:31:22.7 36 43 2:44.954 26.189 61 178 0
13:33:59.6 37 44 2:36.976 27.520 63 178 0
13:36:40.8 38 46 2:41.178 26.803 64 181 0
13:39:26.3 39 47 2:45.505 26.102 64 179 0
13:42:12.2 40 48 2:45.837 26.050 62 179 0
13:44:57.2 41 49 2:44.998 26.182 56 182 0
13:47:41.2 42 51 2:44.056 26.332 62 181 0
13:50:27.7 43 52 2:46.474 25.950 62 180 0
13:53:06.1 44 53 2:38.405 27.272 66 180 0
13:55:48.2 45 54 2:42.063 26.656 60 178 0
13:58:23.8 46 55 2:35.597 27.764 62 179 0
14:02:05.1 47 57 3:41.309 19.520 83 190 0
14:04:39.3 48 58 2:34.205 28.015 62 180 0
14:07:09.5 49 59 2:30.196 28.762 61 180 0
14:09:42.8 50 60 2:33.339 28.173 61 180 0
14:12:14.3 51 62 2:31.461 28.522 60 179 0
14:14:47.5 52 63 2:33.208 28.197 63 179 0
14:17:22.8 53 63 2:35.320 27.814 62 180 0
14:20:00.8 54 65 2:38.012 27.340 66 179 0
14:22:40.3 55 66 2:39.542 27.078 64 179 0
14:25:18.3 56 67 2:37.937 27.353 58 179 0
14:27:56.2 57 68 2:37.870 27.364 64 179 0
14:30:36.7 58 69 2:40.541 26.909 65 179 0
14:33:17.2 59 71 2:40.475 26.920 67 182 0
14:35:57.3 60 72 2:40.092 26.984 67 181 0
14:38:38.5 61 73 2:41.200 26.799 63 182 0
14:41:21.0 62 74 2:42.536 26.579 66 181 0
14:44:07.9 63 76 2:46.860 25.890 66 181 0
14:46:53.0 64 77 2:45.173 26.154 66 180 0
14:49:34.6 65 78 2:41.523 26.745 64 182 0
14:52:17.3 66 79 2:42.743 26.545 65 181 0
14:54:58.8 67 80 2:41.508 26.748 55 180 0
14:57:40.6 68 82 2:41.793 26.701 62 179 0
15:00:22.0 69 83 2:41.433 26.760 67 180 0
15:03:56.7 70 85 3:34.638 20.127 82 191 0
15:06:15.8 71 86 2:19.127 31.051 60 181 0
15:08:30.9 72 87 2:15.120 31.972 57 182 0
15:10:46.3 73 88 2:15.407 31.904 59 180 0
15:13:03.3 74 89 2:16.968 31.540 59 181 0
15:15:21.3 75 90 2:18.052 31.293 61 177 0
15:17:39.7 76 91 2:18.343 31.227 62 180 0
15:19:57.9 77 92 2:18.258 31.246 63 179 0
15:22:17.1 78 93 2:19.144 31.047 59 181 0
15:24:35.7 79 94 2:18.634 31.161 60 178 0
15:26:54.1 80 95 2:18.395 31.215 61 181 0
15:29:11.4 81 95 2:17.302 31.463 62 180 0
15:31:27.5 82 96 2:16.069 31.749 62 180 0
15:33:45.5 83 98 2:18.041 31.295 62 179 0
15:36:03.6 84 99 2:18.121 31.277 61 179 0
15:38:22.0 85 100 2:18.306 31.235 56 179 0
15:40:40.8 86 101 2:18.809 31.122 60 181 0
15:42:59.7 87 102 2:18.899 31.102 60 178 0
15:45:18.1 88 103 2:18.469 31.198 55 180 0
15:47:37.7 89 104 2:19.531 30.961 60 178 0
15:50:01.2 90 105 2:23.570 30.090 60 178 0
15:52:23.5 91 106 2:22.258 30.367 59 181 0
15:54:46.2 92 107 2:22.711 30.271 62 181 0
15:57:10.8 93 108 2:24.615 29.872 61 178 0
15:59:34.1 94 110 2:23.268 30.153 57 179 0
16:01:53.4 95 111 2:19.317 31.008 63 180 0
16:04:12.4 96 112 2:19.024 31.074 63 179 0
16:07:43.8 97 113 3:31.375 20.438 84 191 0
16:10:08.4 98 114 2:24.603 29.875 63 178 0
16:12:32.2 99 115 2:23.840 30.033 56 180 0
16:15:00.0 100 116 2:27.799 29.229 63 180 0
16:17:34.5 101 118 2:34.459 27.969 64 180 0
16:20:09.9 102 119 2:35.353 27.808 64 178 0
16:22:41.4 103 120 2:31.510 28.513 64 179 0
16:25:10.3 104 121 2:28.970 28.999 60 179 0
16:27:38.4 105 122 2:28.088 29.172 63 181 0
16:30:06.6 106 123 2:28.229 29.144 61 179 0
16:32:34.9 107 124 2:28.239 29.142 64 179 0
16:35:08.3 108 125 2:33.391 28.163 69 181 0
16:37:46.5 109 127 2:38.267 27.296 65 180 0
16:40:19.2 110 128 2:32.623 28.305 65 181 0
16:42:52.4 111 129 2:33.276 28.184 64 180 0
16:45:27.5 112 130 2:35.022 27.867 64 179 0
16:48:03.9 113 131 2:36.468 27.609 64 179 0
16:50:41.6 114 132 2:37.630 27.406 60 180 0
16:53:23.2 115 134 2:41.602 26.732 63 182 0
16:56:06.2 116 135 2:42.983 26.506 63 178 0
16:58:44.8 117 135 2:38.624 27.234 64 181 0
17:02:40.7 118 136 3:55.934 18.310 84 189 0
17:05:05.6 119 138 2:24.867 29.820 61 181 0
17:07:31.9 120 139 2:26.296 29.529 60 182 0
17:09:59.1 121 140 2:27.222 29.343 60 179 0
17:12:31.2 122 141 2:32.079 28.406 60 180 0
17:15:01.6 123 142 2:30.396 28.724 63 180 0
17:17:30.1 124 143 2:28.564 29.078 61 179 0
17:20:01.1 125 145 2:31.001 28.609 63 181 0
17:22:31.6 126 146 2:30.505 28.703 64 180 0
17:25:03.1 127 147 2:31.463 28.522 64 180 0
17:27:34.2 128 148 2:31.141 28.583 55 179 0
17:30:11.9 129 150 2:37.625 27.407 63 180 0
17:32:48.8 130 151 2:36.898 27.534 63 181 0
17:35:22.7 131 152 2:33.957 28.060 62 180 0
17:37:57.1 132 153 2:34.404 27.979 66 181 0
17:40:37.7 133 154 2:40.561 26.906 67 180 0
17:43:18.5 134 156 2:40.800 26.866 65 179 0
17:45:58.4 135 157 2:39.881 27.020 67 179 0
17:48:41.9 136 158 2:43.565 26.412 65 180 0
17:51:25.7 137 159 2:43.743 26.383 63 179 0
17:54:11.9 138 161 2:46.250 25.985 67 178 0
17:57:00.2 139 162 2:48.228 25.679 68 181 0
17:59:50.6 140 163 2:50.415 25.350 68 179 0
18:02:39.2 141 164 2:48.583 25.625 63 182 0
37 - Predator Instinct Racing - Open
12:01:22.0 1 1 2:08.749 33.554 45 106 0
12:03:36.7 2 2 2:14.767 32.055 43 103 0
12:05:55.0 3 3 2:18.266 31.244 47 104 0
12:08:13.9 4 4 2:18.887 31.104 42 104 0
12:10:32.9 5 5 2:19.037 31.071 46 104 0
12:12:52.0 6 6 2:19.093 31.058 48 104 0
12:15:12.2 7 7 2:20.193 30.815 49 104 0
12:17:32.9 8 9 2:20.638 30.717 45 104 0
12:19:53.0 9 10 2:20.094 30.836 50 104 0
12:22:11.7 10 11 2:18.709 31.144 47 103 0
12:24:31.6 11 12 2:19.920 30.875 47 104 0
12:26:50.6 12 13 2:19.008 31.077 50 99 0
12:29:09.4 13 14 2:18.773 31.130 53 101 0
12:31:29.0 14 15 2:19.665 30.931 48 107 0
12:33:54.5 15 16 2:25.511 29.688 44 104 0
12:36:18.8 16 18 2:24.224 29.953 42 105 0
12:38:42.1 17 19 2:23.344 30.137 46 103 0
12:41:05.8 18 20 2:23.724 30.058 50 105 0
12:43:31.5 19 21 2:25.664 29.657 50 105 0
12:45:57.6 20 22 2:26.127 29.563 48 103 0
12:48:21.9 21 23 2:24.302 29.937 49 105 0
12:50:44.7 22 24 2:22.756 30.261 51 104 0
12:53:08.7 23 26 2:23.998 30.000 43 103 0
12:55:32.6 24 27 2:23.944 30.012 47 106 0
12:57:58.7 25 28 2:26.088 29.571 47 105 0
13:00:26.5 26 29 2:27.793 29.230 50 103 0
13:02:52.8 27 30 2:26.272 29.534 50 105 0
13:05:20.4 28 31 2:27.629 29.263 51 104 0
13:08:48.9 29 33 3:28.474 20.722 51 104 0
13:11:04.2 30 34 2:15.340 31.920 51 101 0
13:13:20.1 31 35 2:15.887 31.791 53 100 0
13:15:37.4 32 36 2:17.303 31.463 49 100 0
13:17:57.2 33 37 2:19.746 30.913 52 102 0
13:20:17.2 34 38 2:20.061 30.844 53 98 0
13:22:40.0 35 39 2:22.797 30.253 54 104 0
13:25:01.6 36 40 2:21.604 30.508 54 103 0
13:27:23.0 37 41 2:21.394 30.553 53 104 0
13:29:44.2 38 42 2:21.204 30.594 52 104 0
13:32:07.4 39 44 2:23.136 30.181 52 104 0
13:34:32.3 40 45 2:24.928 29.808 52 104 0
13:36:56.8 41 46 2:24.543 29.887 53 98 0
13:39:23.6 42 47 2:26.787 29.430 56 103 0
13:41:50.1 43 48 2:26.458 29.497 48 105 0
13:44:19.9 44 49 2:29.816 28.835 50 106 0
13:46:51.5 45 50 2:31.647 28.487 55 104 0
13:49:21.9 46 51 2:30.325 28.738 56 104 0
13:51:47.5 47 52 2:25.645 29.661 53 104 0
13:54:17.7 48 53 2:30.170 28.767 54 104 0
13:56:44.7 49 55 2:27.033 29.381 53 105 0
13:59:12.8 50 56 2:28.071 29.175 58 103 0
14:01:47.8 51 57 2:35.042 27.863 54 106 0
14:04:22.2 52 58 2:34.396 27.980 57 103 0
14:06:54.4 53 59 2:32.140 28.395 56 104 0
14:09:36.5 54 60 2:42.155 26.641 61 105 0
14:13:18.9 55 62 3:42.342 19.430 57 133 0
14:15:42.4 56 63 2:23.530 30.098 60 131 0
14:18:13.4 57 64 2:31.067 28.597 62 133 0
14:20:48.5 58 65 2:35.066 27.859 63 131 0
14:23:23.0 59 66 2:34.473 27.966 63 132 0
14:26:02.0 60 67 2:39.040 27.163 65 132 0
14:28:44.5 61 69 2:42.431 26.596 64 131 0
14:31:24.9 62 70 2:40.466 26.922 65 132 0
14:34:04.7 63 71 2:39.779 27.037 56 131 0
14:36:49.2 64 72 2:44.544 26.254 63 133 0
14:39:34.7 65 73 2:45.476 26.107 64 131 0
14:42:21.8 66 75 2:47.075 25.857 63 133 0
14:45:12.1 67 76 2:50.343 25.361 66 133 0
14:47:54.5 68 77 2:42.350 26.609 64 132 0
14:50:43.1 69 79 2:48.581 25.626 65 131 0
14:53:34.0 70 80 2:50.920 25.275 64 133 0
14:56:14.8 71 81 2:40.801 26.866 61 130 0
14:58:52.1 72 82 2:37.356 27.454 61 132 0
15:01:28.4 73 83 2:36.244 27.649 59 131 0
15:04:09.7 74 85 2:41.304 26.782 66 132 0
15:06:54.3 75 86 2:44.562 26.252 63 131 0
15:10:31.1 76 87 3:36.818 19.925 59 133 0
15:12:56.3 77 89 2:25.257 29.740 62 130 0
15:15:22.3 78 90 2:25.919 29.605 60 133 0
15:17:46.6 79 91 2:24.349 29.927 60 133 0
15:20:14.7 80 92 2:28.100 29.169 60 129 0
15:22:42.5 81 93 2:27.812 29.226 60 132 0
15:25:10.6 82 94 2:28.077 29.174 58 133 0
15:27:40.4 83 95 2:29.762 28.846 60 130 0
15:30:09.2 84 96 2:28.798 29.033 62 129 0
15:32:41.7 85 97 2:32.516 28.325 60 131 0
15:35:13.7 86 98 2:32.014 28.418 61 132 0
15:37:46.0 87 99 2:32.319 28.362 57 132 0
15:40:19.0 88 101 2:32.951 28.244 60 131 0
15:43:15.2 89 102 2:56.213 24.516 67 132 0
15:47:07.1 90 104 3:51.898 18.629 57 130 0
15:49:30.7 91 105 2:23.650 30.073 58 131 0
15:51:57.2 92 106 2:26.491 29.490 60 131 0
15:54:22.1 93 107 2:24.936 29.806 61 129 0
15:56:51.8 94 108 2:29.669 28.864 60 131 0
15:59:20.3 95 109 2:28.518 29.087 61 128 0
16:01:49.6 96 111 2:29.259 28.943 62 130 0
16:04:19.9 97 112 2:30.350 28.733 58 130 0
16:06:49.9 98 113 2:29.941 28.811 59 128 0
16:09:19.5 99 114 2:29.611 28.875 61 131 0
16:11:50.1 100 115 2:30.579 28.689 63 129 0
16:14:22.1 101 116 2:32.077 28.407 61 129 0
16:16:59.9 102 117 2:37.721 27.390 61 130 0
16:19:35.7 103 119 2:35.824 27.724 64 128 0
16:22:12.3 104 120 2:36.599 27.586 66 131 0
16:24:48.3 105 121 2:35.974 27.697 67 129 0
16:27:25.9 106 122 2:37.687 27.396 63 132 0
16:30:00.4 107 123 2:34.494 27.962 62 131 0
16:32:34.9 108 124 2:34.422 27.975 56 128 0
16:34:59.8 109 125 2:24.910 29.812 62 128 0
16:37:34.1 110 127 2:34.339 27.990 61 128 0
16:40:09.6 111 128 2:35.474 27.786 66 129 0
16:42:51.9 112 129 2:42.358 26.608 65 131 0
16:47:30.4 113 131 4:38.501 15.512 60 130 0
16:51:15.7 114 133 3:45.237 19.180 72 135 0
16:56:02.6 115 135 4:46.877 15.059 61 129 0
16:58:39.7 116 135 2:37.171 27.486 63 131 0
17:01:22.2 117 136 2:42.514 26.582 62 132 0
17:04:05.0 118 137 2:42.805 26.535 63 130 0
17:06:51.3 119 138 2:46.233 25.988 63 131 0
17:09:37.9 120 140 2:46.657 25.922 61 130 0
17:12:26.8 121 141 2:48.842 25.586 63 129 0
17:15:18.6 122 142 2:51.802 25.145 65 130 0
17:18:15.6 123 144 2:56.971 24.411 64 128 0
17:21:13.7 124 145 2:58.148 24.250 64 129 0
17:24:07.4 125 147 2:53.663 24.876 64 130 0
17:28:13.5 126 149 4:06.105 17.553 61 129 0
17:30:48.6 127 150 2:35.143 27.845 60 129 0
17:33:28.3 128 151 2:39.704 27.050 51 128 0
17:36:05.4 129 152 2:37.046 27.508 62 128 0
17:38:47.5 130 154 2:42.181 26.637 62 129 0
17:41:27.6 131 155 2:40.024 26.996 63 129 0
17:44:12.9 132 156 2:45.333 26.129 63 129 0
17:46:59.9 133 157 2:47.013 25.866 66 129 0
17:49:48.0 134 159 2:48.121 25.696 65 130 0
17:52:33.9 135 160 2:45.849 26.048 64 131 0
17:55:22.4 136 161 2:48.547 25.631 64 129 0
17:58:17.6 137 163 2:55.168 24.662 68 130 0
18:01:08.3 138 164 2:50.749 25.300 62 128 0
41 - Inferno2 Terzo Racing - Community
12:01:21.0 1 1 2:09.022 33.483 48 125 0
12:03:35.7 2 2 2:14.704 32.070 52 125 0
12:05:55.4 3 3 2:19.726 30.918 45 122 0
12:08:16.8 4 4 2:21.338 30.565 49 125 0
12:10:41.9 5 5 2:25.080 29.777 53 122 0
12:13:05.2 6 6 2:23.344 30.137 55 126 0
12:15:28.1 7 8 2:22.887 30.234 52 126 0
12:17:52.2 8 9 2:24.152 29.968 47 124 0
12:20:16.2 9 10 2:23.940 30.013 52 128 0
12:22:41.0 10 11 2:24.833 29.827 54 126 0
12:25:06.7 11 12 2:25.692 29.652 54 125 0
12:27:36.6 12 13 2:29.884 28.822 52 128 0
12:30:01.9 13 15 2:25.278 29.736 50 122 0
12:32:29.3 14 16 2:27.448 29.298 51 121 0
12:34:59.0 15 17 2:29.692 28.859 53 126 0
12:37:28.9 16 18 2:29.930 28.813 53 129 0
12:39:53.5 17 19 2:24.581 29.879 52 123 0
12:42:26.0 18 20 2:32.508 28.326 48 125 0
12:45:00.7 19 22 2:34.699 27.925 50 127 0
12:47:36.1 20 23 2:35.389 27.801 52 128 0
12:49:58.8 21 24 2:22.684 30.277 45 124 0
12:54:31.8 22 26 4:32.985 15.825 51 122 0
12:57:05.6 23 27 2:33.786 28.091 55 128 0
12:59:34.2 24 29 2:28.624 29.067 55 122 0
13:02:11.0 25 30 2:36.789 27.553 50 125 0
13:04:43.9 26 31 2:32.906 28.253 54 128 0
13:07:17.3 27 32 2:33.453 28.152 55 125 0
13:09:48.9 28 34 2:31.575 28.501 56 124 0
13:12:21.1 29 35 2:32.196 28.384 45 125 0
13:14:47.6 30 35 2:26.530 29.482 52 131 0
13:17:14.1 31 37 2:26.458 29.497 54 128 0
13:19:45.6 32 38 2:31.469 28.521 55 130 0
13:22:22.0 33 39 2:36.481 27.607 56 125 0
13:24:58.6 34 40 2:36.565 27.592 55 123 0
13:27:36.2 35 41 2:37.612 27.409 55 125 0
13:30:12.0 36 43 2:35.795 27.729 55 130 0
13:32:47.2 37 44 2:35.198 27.835 50 124 0
13:35:20.4 38 45 2:33.223 28.194 54 124 0
13:37:52.5 39 46 2:32.106 28.401 55 123 0
13:40:25.7 40 47 2:33.183 28.202 54 127 0
13:44:55.5 41 49 4:29.805 16.012 56 127 0
13:47:44.9 42 51 2:49.401 25.502 59 127 0
13:50:31.2 43 52 2:46.250 25.985 46 127 0
13:53:12.6 44 53 2:41.380 26.769 52 117 0
13:55:50.1 45 54 2:37.492 27.430 53 116 0
13:58:37.5 46 55 2:47.448 25.799 58 125 0
14:01:31.1 47 57 2:53.563 24.890 51 115 0
14:04:20.3 48 58 2:49.228 25.528 55 127 0
14:06:59.7 49 59 2:39.427 27.097 54 125 0
14:09:37.3 50 60 2:37.577 27.415 56 128 0
14:12:17.4 51 62 2:40.058 26.990 55 131 0
14:15:01.7 52 63 2:44.329 26.289 59 125 0
14:17:44.1 53 64 2:42.435 26.595 52 129 0
14:20:25.9 54 65 2:41.745 26.709 55 129 0
14:23:07.0 55 66 2:41.159 26.806 56 121 0
14:25:57.3 56 67 2:50.252 25.374 55 121 0
14:28:43.6 57 69 2:46.303 25.977 58 124 0
14:33:28.0 58 71 4:44.407 15.189 55 132 0
14:35:49.0 59 72 2:20.998 30.639 44 132 0
14:38:13.3 60 73 2:24.272 29.943 52 130 0
14:40:39.5 61 74 2:26.253 29.538 54 129 0
14:43:02.1 62 75 2:22.628 30.289 47 133 0
14:45:28.6 63 76 2:26.437 29.501 54 125 0
14:47:52.6 64 77 2:24.053 29.989 48 131 0
14:50:17.1 65 78 2:24.504 29.895 56 121 0
14:52:41.7 66 79 2:24.539 29.888 55 128 0
14:55:08.1 67 81 2:26.466 29.495 53 124 0
14:57:36.5 68 82 2:28.385 29.113 56 122 0
15:00:03.0 69 83 2:26.482 29.492 53 124 0
15:02:31.6 70 84 2:28.590 29.073 55 131 0
15:05:00.9 71 85 2:29.339 28.927 54 126 0
15:07:31.1 72 86 2:30.164 28.769 52 128 0
15:10:01.9 73 87 2:30.811 28.645 55 123 0
15:12:34.9 74 88 2:32.999 28.235 55 127 0
15:15:06.4 75 90 2:31.507 28.514 57 119 0
15:17:37.6 76 91 2:31.227 28.566 54 124 0
15:20:07.3 77 92 2:29.674 28.863 55 126 0
15:22:40.1 78 93 2:32.777 28.277 54 125 0
15:25:11.9 79 94 2:31.789 28.461 44 126 0
15:27:41.0 80 95 2:29.158 28.963 55 124 0
15:30:02.1 81 96 2:21.029 30.632 53 125 0
15:34:22.9 82 98 4:20.868 16.560 52 129 0
15:36:42.5 83 99 2:19.531 30.961 50 123 0
15:39:18.2 84 100 2:35.780 27.731 54 124 0
15:41:56.0 85 101 2:37.787 27.379 55 126 0
15:44:31.5 86 103 2:35.445 27.791 55 127 0
15:47:05.9 87 104 2:34.462 27.968 50 130 0
15:49:47.8 88 105 2:41.869 26.688 57 124 0
15:52:23.8 89 106 2:36.012 27.690 57 125 0
15:55:08.3 90 107 2:44.477 26.265 56 126 0
15:57:42.2 91 109 2:33.900 28.070 57 126 0
16:00:18.9 92 110 2:36.665 27.575 56 123 0
16:03:02.0 93 111 2:43.128 26.482 56 119 0
16:05:43.2 94 112 2:41.260 26.789 57 120 0
16:08:16.8 95 113 2:33.553 28.134 55 123 0
16:10:56.9 96 115 2:40.106 26.982 54 123 0
16:13:32.8 97 116 2:35.844 27.720 54 128 0
16:17:23.6 98 118 3:50.826 18.715 51 124 0
16:19:52.4 99 119 2:28.858 29.021 56 126 0
16:22:23.5 100 120 2:31.094 28.591 52 127 0
16:24:54.2 101 121 2:30.693 28.668 53 125 0
16:27:26.2 102 122 2:32.018 28.418 52 121 0
16:29:56.9 103 123 2:30.708 28.665 50 128 0
16:32:21.2 104 124 2:24.202 29.958 53 123 0
16:34:47.8 105 125 2:26.605 29.467 53 120 0
16:37:13.3 106 126 2:25.549 29.681 46 122 0
16:39:35.5 107 128 2:22.174 30.385 53 131 0
16:41:59.4 108 129 2:23.897 30.021 53 118 0
16:44:27.2 109 130 2:27.830 29.223 52 122 0
16:46:56.7 110 131 2:29.532 28.890 48 124 0
16:49:24.7 111 132 2:27.968 29.196 52 128 0
16:51:57.5 112 133 2:32.766 28.279 47 128 0
16:54:29.9 113 134 2:32.443 28.338 53 125 0
16:57:03.4 114 135 2:33.491 28.145 53 125 0
16:59:39.9 115 135 2:36.494 27.605 53 127 0
17:03:20.4 116 137 3:40.543 19.588 52 124 0
17:05:41.6 117 138 2:21.172 30.601 55 123 0
17:08:09.9 118 139 2:28.243 29.141 53 128 0
17:10:35.0 119 140 2:25.144 29.764 44 120 0
17:13:06.9 120 141 2:31.892 28.441 51 126 0
17:17:24.6 121 143 4:17.680 16.765 51 125 0
17:19:45.2 122 145 2:20.630 30.719 54 122 0
17:22:26.9 123 146 2:41.665 26.722 57 125 0
17:25:05.3 124 147 2:38.459 27.263 54 127 0
17:27:43.4 125 148 2:38.048 27.333 53 122 0
17:30:18.9 126 150 2:35.517 27.778 50 125 0
17:32:56.8 127 151 2:37.914 27.357 53 122 0
17:35:35.1 128 152 2:38.321 27.286 47 122 0
17:38:17.8 129 153 2:42.688 26.554 54 125 0
17:40:59.0 130 155 2:41.196 26.800 54 124 0
17:43:47.3 131 156 2:48.249 25.676 53 120 0
17:46:39.6 132 157 2:52.336 25.067 54 127 0
17:49:29.4 133 158 2:49.825 25.438 52 123 0
17:52:18.3 134 160 2:48.866 25.582 59 118 0
17:55:03.4 135 161 2:45.136 26.160 59 113 0
17:57:46.9 136 162 2:43.456 26.429 58 127 0
18:00:24.0 137 163 2:37.088 27.501 58 123 0
18:02:51.4 138 164 2:27.437 29.301 58 119 0
39 - Ceto SMS/BGS - Female (BC)
12:01:43.4 1 1 2:28.629 29.066 56 162 0
12:04:11.8 2 2 2:28.375 29.115 56 162 0
12:06:41.7 3 3 2:29.955 28.809 56 162 0
12:09:11.1 4 4 2:29.337 28.928 58 162 0
12:11:42.5 5 6 2:31.424 28.529 58 162 0
12:14:15.0 6 7 2:32.520 28.324 58 163 0
12:16:48.7 7 8 2:33.697 28.107 59 164 0
12:19:19.7 8 9 2:31.026 28.604 58 162 0
12:21:56.7 9 11 2:36.913 27.531 60 163 0
12:24:32.2 10 12 2:35.546 27.773 57 163 0
12:27:14.3 11 13 2:42.059 26.657 60 164 0
12:29:53.2 12 14 2:38.910 27.185 61 164 0
12:32:33.5 13 16 2:40.299 26.950 60 163 0
12:35:10.5 14 17 2:37.070 27.504 58 163 0
12:37:49.4 15 18 2:38.850 27.195 59 164 0
12:40:30.2 16 20 2:40.836 26.860 59 164 0
12:43:06.1 17 21 2:35.840 27.721 58 163 0
12:46:57.0 18 23 3:50.924 18.707 79 177 0
12:49:31.1 19 24 2:34.112 28.032 57 163 0
12:52:05.5 20 25 2:34.358 27.987 60 165 0
12:54:49.7 21 26 2:44.211 26.308 60 166 0
12:57:36.7 22 28 2:47.041 25.862 59 166 0
13:00:24.1 23 29 2:47.419 25.804 60 166 0
13:03:13.2 24 30 2:49.083 25.550 61 165 0
13:06:02.1 25 32 2:48.897 25.578 60 165 0
13:08:53.4 26 33 2:51.301 25.219 62 165 0
13:11:46.9 27 34 2:53.471 24.903 62 165 0
13:14:44.2 28 35 2:57.372 24.356 62 165 0
13:17:39.4 29 37 2:55.161 24.663 61 165 0
13:20:41.3 30 38 3:01.918 23.747 62 166 0
13:23:40.7 31 40 2:59.418 24.078 61 166 0
13:26:43.0 32 41 3:02.245 23.704 58 166 0
13:29:48.0 33 42 3:05.052 23.345 61 165 0
13:32:48.6 34 44 3:00.544 23.928 60 165 0
13:35:50.1 35 45 3:01.548 23.795 63 166 0
13:40:18.0 36 47 4:27.870 16.127 76 176 0
13:43:03.1 37 49 2:45.087 26.168 57 162 0
13:45:31.9 38 50 2:28.825 29.027 57 163 0
13:48:03.9 39 51 2:31.940 28.432 55 165 0
13:50:38.3 40 52 2:34.456 27.969 58 163 0
13:53:14.4 41 53 2:36.077 27.679 58 164 0
13:55:50.6 42 54 2:36.215 27.654 59 165 0
13:58:28.2 43 55 2:37.588 27.413 56 164 0
14:01:06.5 44 57 2:38.329 27.285 60 165 0
14:03:48.7 45 58 2:42.217 26.631 60 164 0
14:06:29.2 46 59 2:40.422 26.929 59 165 0
14:09:11.4 47 60 2:42.280 26.621 58 165 0
14:11:54.0 48 61 2:42.584 26.571 59 165 0
14:14:38.4 49 63 2:44.338 26.287 60 165 0
14:17:23.2 50 63 2:44.848 26.206 55 165 0
14:20:09.4 51 65 2:46.210 25.991 61 166 0
14:22:55.7 52 66 2:46.229 25.988 60 164 0
14:27:02.4 53 68 4:06.738 17.508 80 179 0
14:29:32.6 54 69 2:30.250 28.752 56 166 0
14:32:08.5 55 70 2:35.839 27.721 61 166 0
14:34:50.7 56 71 2:42.242 26.627 60 165 0
14:37:33.6 57 73 2:42.898 26.520 61 166 0
14:40:18.4 58 74 2:44.789 26.215 60 164 0
14:43:02.6 59 75 2:44.188 26.311 61 165 0
14:45:50.4 60 76 2:47.804 25.744 64 166 0
14:48:38.8 61 78 2:48.447 25.646 60 165 0
14:51:28.9 62 79 2:50.049 25.404 61 166 0
14:54:19.9 63 80 2:51.014 25.261 58 167 0
14:57:10.4 64 81 2:50.509 25.336 61 166 0
15:00:02.0 65 83 2:51.578 25.178 60 164 0
15:02:54.6 66 84 2:52.565 25.034 63 165 0
15:05:45.9 67 85 2:51.345 25.212 61 164 0
15:08:37.6 68 87 2:51.737 25.155 62 164 0
15:11:37.8 69 88 3:00.114 23.985 60 165 0
15:14:29.2 70 89 2:51.429 25.200 63 166 0
15:18:35.2 71 91 4:05.993 17.561 71 177 0
15:21:00.4 72 92 2:25.231 29.746 56 163 0
15:23:22.3 73 93 2:21.871 30.450 53 165 0
15:25:48.9 74 94 2:26.602 29.468 58 164 0
15:28:20.3 75 95 2:31.416 28.531 58 164 0
15:30:50.2 76 96 2:29.852 28.828 56 165 0
15:33:21.3 77 97 2:31.148 28.581 56 163 0
15:35:53.0 78 99 2:31.699 28.477 59 164 0
15:38:27.2 79 100 2:34.219 28.012 56 163 0
15:40:59.4 80 101 2:32.140 28.395 59 165 0
15:43:32.3 81 102 2:32.904 28.253 56 165 0
15:46:01.8 82 103 2:29.583 28.880 57 163 0
15:48:36.3 83 105 2:34.431 27.974 52 167 0
15:51:18.6 84 106 2:42.328 26.613 59 166 0
15:53:54.5 85 107 2:35.927 27.705 59 163 0
15:56:29.9 86 108 2:35.322 27.813 56 164 0
15:59:08.1 87 109 2:38.251 27.298 59 164 0
16:01:48.4 88 111 2:40.257 26.957 58 165 0
16:04:20.2 89 112 2:31.826 28.454 57 164 0
16:08:23.7 90 114 4:03.537 17.739 80 176 0
16:10:41.8 91 115 2:18.098 31.282 55 163 0
16:13:03.1 92 116 2:21.246 30.585 58 164 0
16:15:30.5 93 117 2:27.404 29.307 59 164 0
16:17:57.5 94 118 2:26.988 29.390 55 164 0
16:20:22.8 95 119 2:25.303 29.731 57 164 0
16:22:46.1 96 120 2:23.346 30.137 56 164 0
16:25:10.6 97 121 2:24.503 29.896 57 163 0
16:27:38.1 98 122 2:27.464 29.295 56 164 0
16:30:02.8 99 123 2:24.748 29.845 57 164 0
16:32:27.9 100 124 2:25.071 29.779 58 163 0
16:34:56.1 101 125 2:28.210 29.148 57 164 0
16:37:24.7 102 126 2:28.622 29.067 57 164 0
16:39:53.2 103 128 2:28.513 29.088 58 163 0
16:42:21.6 104 129 2:28.326 29.125 56 164 0
16:44:50.1 105 130 2:28.527 29.086 56 164 0
16:47:18.5 106 131 2:28.398 29.111 58 164 0
16:49:47.5 107 132 2:28.977 28.998 58 163 0
16:52:17.6 108 133 2:30.085 28.784 57 163 0
16:54:48.1 109 134 2:30.573 28.690 57 164 0
16:57:20.1 110 135 2:31.980 28.425 57 165 0
16:59:51.7 111 135 2:31.617 28.493 57 164 0
17:03:45.1 112 137 3:53.366 18.512 84 178 0
17:06:10.7 113 138 2:25.652 29.660 54 164 0
17:08:29.9 114 139 2:19.159 31.044 56 165 0
17:10:49.1 115 140 2:19.172 31.041 52 163 0
17:13:07.5 116 141 2:18.422 31.209 54 162 0
17:15:30.6 117 142 2:23.092 30.190 55 164 0
17:17:55.5 118 144 2:24.888 29.816 57 162 0
17:20:18.5 119 145 2:23.020 30.206 56 162 0
17:22:42.3 120 146 2:23.856 30.030 56 163 0
17:25:02.6 121 147 2:20.288 30.794 56 162 0
17:27:27.8 122 148 2:25.134 29.766 58 165 0
17:29:56.1 123 149 2:28.366 29.117 57 163 0
17:32:26.0 124 151 2:29.894 28.820 57 164 0
17:34:54.3 125 152 2:28.285 29.133 55 162 0
17:37:20.1 126 153 2:25.781 29.633 58 165 0
17:39:49.8 127 154 2:29.708 28.856 53 164 0
17:42:21.2 128 155 2:31.415 28.531 58 163 0
17:44:49.3 129 156 2:28.106 29.168 56 164 0
17:47:17.4 130 157 2:28.116 29.166 53 167 0
17:49:47.8 131 159 2:30.354 28.732 56 164 0
17:52:17.2 132 160 2:29.447 28.907 58 163 0
17:54:47.9 133 161 2:30.674 28.671 59 165 0
17:57:17.1 134 162 2:29.197 28.955 56 164 0
17:59:46.5 135 163 2:29.392 28.917 56 163 0
18:02:19.9 136 164 2:33.429 28.156 58 163 0
2 - Shagged Maiden Gully - Vet
12:01:23.0 1 1 2:10.195 33.181 50 138 0
12:03:40.7 2 2 2:17.692 31.374 49 139 0
12:06:00.1 3 3 2:19.471 30.974 51 139 0
12:08:21.4 4 4 2:21.212 30.592 53 139 0
12:10:43.8 5 5 2:22.477 30.321 54 138 0
12:13:05.6 6 6 2:21.777 30.470 46 136 0
12:15:27.2 7 8 2:21.601 30.508 52 135 0
12:17:51.8 8 9 2:24.635 29.868 52 141 0
12:20:15.8 9 10 2:23.941 30.012 54 140 0
12:22:39.5 10 11 2:23.699 30.063 47 138 0
12:25:05.8 11 12 2:26.285 29.531 55 139 0
12:27:32.6 12 13 2:26.806 29.427 54 139 0
12:29:58.3 13 14 2:25.721 29.646 52 139 0
12:32:24.9 14 16 2:26.632 29.462 55 140 0
12:34:50.1 15 17 2:25.160 29.760 47 136 0
12:37:14.5 16 18 2:24.375 29.922 53 140 0
12:39:38.2 17 19 2:23.727 30.057 41 138 0
12:42:02.3 18 20 2:24.091 29.981 55 136 0
12:44:27.5 19 21 2:25.193 29.754 55 137 0
12:47:04.1 20 23 2:36.638 27.580 54 141 0
12:49:36.3 21 24 2:32.196 28.384 54 139 0
12:52:03.3 22 25 2:27.012 29.385 55 138 0
12:54:28.4 23 26 2:25.114 29.770 53 134 0
12:56:52.3 24 27 2:23.832 30.035 45 139 0
12:59:12.6 25 29 2:20.283 30.795 56 138 0
13:01:36.7 26 30 2:24.183 29.962 46 138 0
13:05:09.1 27 31 3:32.345 20.344 53 139 0
13:07:33.7 28 32 2:24.594 29.877 55 132 0
13:10:06.3 29 34 2:32.636 28.303 56 131 0
13:12:37.5 30 35 2:31.228 28.566 47 135 0
13:15:07.2 31 36 2:29.688 28.860 48 132 0
13:17:43.1 32 37 2:35.923 27.706 55 131 0
13:20:17.4 33 38 2:34.244 28.008 55 134 0
13:22:47.9 34 39 2:30.524 28.700 55 132 0
13:25:20.7 35 40 2:32.764 28.279 54 132 0
13:27:52.5 36 42 2:31.842 28.451 55 137 0
13:30:22.0 37 43 2:29.515 28.893 54 132 0
13:32:56.7 38 44 2:34.645 27.935 56 134 0
13:35:29.6 39 45 2:32.903 28.253 56 130 0
13:38:05.6 40 46 2:36.002 27.692 56 133 0
13:40:38.9 41 48 2:33.321 28.176 52 142 0
13:43:14.9 42 49 2:36.040 27.685 55 134 0
13:45:50.9 43 50 2:35.935 27.704 56 129 0
13:48:27.3 44 51 2:36.448 27.613 56 132 0
13:51:04.7 45 52 2:37.401 27.446 57 134 0
13:55:23.7 46 54 4:18.957 16.682 54 134 0
13:58:00.3 47 55 2:36.615 27.584 55 129 0
14:00:41.4 48 56 2:41.083 26.818 46 135 0
14:03:42.3 49 58 3:00.959 23.873 58 132 0
14:06:27.8 50 59 2:45.476 26.107 52 137 0
14:09:09.8 51 60 2:41.927 26.679 56 134 0
14:11:51.5 52 61 2:41.798 26.700 49 131 0
14:14:36.7 53 63 2:45.179 26.153 57 136 0
14:17:20.9 54 63 2:44.167 26.315 57 130 0
14:20:09.3 55 65 2:48.356 25.660 56 135 0
14:22:55.9 56 66 2:46.601 25.930 55 135 0
14:25:42.1 57 67 2:46.276 25.981 57 130 0
14:28:24.0 58 68 2:41.823 26.696 56 133 0
14:31:09.1 59 70 2:45.125 26.162 55 136 0
14:35:20.8 60 72 4:11.753 17.160 57 133 0
14:38:04.1 61 73 2:43.263 26.460 57 134 0
14:40:47.1 62 74 2:42.969 26.508 58 132 0
14:43:31.2 63 75 2:44.123 26.322 58 134 0
14:46:12.6 64 76 2:41.415 26.763 57 137 0
14:48:55.4 65 78 2:42.840 26.529 56 134 0
14:51:38.1 66 79 2:42.666 26.557 56 133 0
14:54:23.8 67 80 2:45.719 26.068 48 135 0
14:57:09.0 68 81 2:45.149 26.158 58 135 0
14:59:51.4 69 83 2:42.403 26.600 55 135 0
15:02:37.8 70 84 2:46.421 25.958 54 131 0
15:05:27.6 71 85 2:49.784 25.444 63 138 0
15:08:23.8 72 87 2:56.175 24.521 57 136 0
15:11:08.6 73 88 2:44.819 26.211 57 131 0
15:13:49.8 74 89 2:41.192 26.800 56 125 0
15:16:28.5 75 90 2:38.771 27.209 56 127 0
15:19:08.7 76 91 2:40.113 26.981 48 131 0
15:21:54.9 77 93 2:46.225 25.989 57 131 0
15:24:39.7 78 94 2:44.825 26.210 58 132 0
15:28:46.8 79 95 4:07.107 17.482 55 124 0
15:31:23.3 80 96 2:36.449 27.613 54 136 0
15:33:57.1 81 98 2:33.872 28.075 48 129 0
15:36:34.1 82 99 2:36.971 27.521 55 129 0
15:39:13.5 83 100 2:39.445 27.094 55 133 0
15:41:50.8 84 101 2:37.274 27.468 57 129 0
15:44:38.8 85 103 2:48.006 25.713 57 131 0
15:47:31.1 86 104 2:52.297 25.073 55 131 0
15:50:35.5 87 105 3:04.346 23.434 57 132 0
15:53:25.5 88 107 2:50.080 25.400 55 128 0
15:56:12.3 89 108 2:46.711 25.913 57 129 0
15:59:02.4 90 109 2:50.137 25.391 57 129 0
16:03:15.7 91 111 4:13.328 17.053 53 126 0
16:05:52.1 92 112 2:36.368 27.627 52 127 0
16:08:21.5 93 113 2:29.428 28.910 47 121 0
16:10:53.3 94 115 2:31.830 28.453 55 122 0
16:13:23.3 95 116 2:29.945 28.811 44 129 0
16:15:54.9 96 117 2:31.613 28.494 46 119 0
16:18:32.3 97 118 2:37.383 27.449 47 126 0
16:21:05.3 98 119 2:32.969 28.241 47 127 0
16:23:38.6 99 120 2:33.301 28.180 56 133 0
16:26:16.9 100 121 2:38.339 27.283 55 130 0
16:28:50.6 101 123 2:33.657 28.115 54 136 0
16:31:22.0 102 124 2:31.454 28.524 47 129 0
16:33:55.7 103 125 2:33.692 28.108 56 131 0
16:36:30.2 104 126 2:34.542 27.954 48 131 0
16:39:04.5 105 127 2:34.218 28.012 57 131 0
16:41:38.1 106 128 2:33.642 28.117 47 125 0
16:44:10.7 107 130 2:32.597 28.310 55 130 0
16:47:50.3 108 131 3:39.623 19.670 56 132 0
16:50:25.6 109 132 2:35.255 27.825 54 126 0
16:52:57.8 110 134 2:32.258 28.373 55 128 0
16:55:29.7 111 135 2:31.827 28.453 53 130 0
16:58:05.7 112 135 2:36.056 27.682 54 129 0
17:00:42.3 113 135 2:36.585 27.589 55 128 0
17:03:16.9 114 137 2:34.581 27.947 53 127 0
17:05:57.5 115 138 2:40.641 26.892 54 132 0
17:10:04.0 116 140 4:06.441 17.530 55 134 0
17:12:51.6 117 141 2:47.607 25.775 57 129 0
17:15:38.7 118 143 2:47.134 25.848 56 133 0
17:18:24.9 119 144 2:46.160 25.999 56 126 0
17:21:14.3 120 145 2:49.456 25.493 55 131 0
17:23:59.2 121 147 2:44.886 26.200 55 130 0
17:26:46.9 122 148 2:47.737 25.755 57 128 0
17:29:32.3 123 149 2:45.307 26.133 56 130 0
17:32:20.0 124 151 2:47.785 25.747 56 133 0
17:35:02.7 125 152 2:42.616 26.566 49 136 0
17:39:32.0 126 154 4:29.388 16.036 60 131 0
17:42:17.6 127 155 2:45.550 26.095 57 135 0
17:45:06.5 128 157 2:48.911 25.576 57 128 0
17:47:55.6 129 158 2:49.073 25.551 58 130 0
17:50:48.3 130 159 2:52.725 25.011 61 129 0
17:53:42.6 131 160 2:54.338 24.779 59 129 0
17:56:31.9 132 162 2:49.277 25.520 51 129 0
17:59:22.2 133 163 2:50.259 25.373 52 128 0
18:02:24.3 134 164 3:02.119 23.721 61 130 0
38 - Pacemakers EDEC - Community
12:01:28.6 1 1 2:15.098 31.977 61 179 0
12:03:57.1 2 2 2:28.519 29.087 60 185 0
12:06:28.0 3 3 2:30.940 28.621 61 180 0
12:08:57.8 4 4 2:29.739 28.850 61 181 0
12:11:29.0 5 6 2:31.229 28.566 65 179 0
12:14:00.1 6 7 2:31.072 28.596 63 181 0
12:16:29.9 7 8 2:29.844 28.830 63 182 0
12:19:00.6 8 9 2:30.741 28.658 63 182 0
12:21:29.7 9 10 2:29.062 28.981 64 184 0
12:23:59.1 10 12 2:29.385 28.919 61 181 0
12:26:29.3 11 13 2:30.243 28.753 63 182 0
12:28:58.8 12 14 2:29.511 28.894 62 182 0
12:31:30.3 13 15 2:31.496 28.516 63 181 0
12:34:05.6 14 16 2:35.292 27.819 63 181 0
12:36:40.1 15 18 2:34.468 27.967 62 179 0
12:39:14.5 16 19 2:34.374 27.984 63 183 0
12:41:50.5 17 20 2:36.056 27.682 60 180 0
12:44:22.1 18 21 2:31.579 28.500 64 182 0
12:46:58.0 19 23 2:35.848 27.719 67 181 0
12:49:30.8 20 24 2:32.827 28.267 61 181 0
12:52:01.9 21 25 2:31.159 28.579 63 182 0
12:54:36.7 22 26 2:34.722 27.921 64 181 0
12:57:14.0 23 28 2:37.341 27.456 65 180 0
12:59:49.4 24 29 2:35.435 27.793 65 181 0
13:02:26.8 25 30 2:37.367 27.452 63 184 0
13:04:59.5 26 31 2:32.660 28.298 64 182 0
13:08:40.7 27 33 3:41.218 19.528 82 193 0
13:11:28.4 28 34 2:47.712 25.758 63 181 0
13:14:22.2 29 35 2:53.790 24.858 65 182 0
13:17:16.9 30 37 2:54.725 24.725 64 180 0
13:20:09.2 31 38 2:52.273 25.076 63 182 0
13:23:04.8 32 39 2:55.623 24.598 66 181 0
13:25:57.2 33 41 2:52.435 25.053 64 181 0
13:28:52.6 34 42 2:55.386 24.631 65 183 0
13:31:45.8 35 43 2:53.201 24.942 66 181 0
13:34:41.0 36 45 2:55.210 24.656 64 182 0
13:37:37.2 37 46 2:56.112 24.530 67 183 0
13:40:35.3 38 47 2:58.170 24.247 65 181 0
13:43:34.1 39 49 2:58.800 24.161 64 183 0
13:46:31.0 40 50 2:56.904 24.420 64 181 0
13:50:18.5 41 52 3:47.466 18.992 81 192 0
13:53:13.3 42 53 2:54.773 24.718 65 184 0
13:56:15.4 43 54 3:02.143 23.718 66 183 0
13:59:18.8 44 56 3:03.419 23.553 65 182 0
14:02:21.2 45 57 3:02.351 23.691 69 182 0
14:05:26.5 46 59 3:05.323 23.311 68 179 0
14:08:33.1 47 60 3:06.557 23.156 68 183 0
14:11:40.4 48 61 3:07.310 23.063 66 182 0
14:14:47.1 49 63 3:06.773 23.130 69 183 0
14:18:00.8 50 64 3:13.639 22.310 70 184 0
14:21:12.5 51 65 3:11.691 22.536 70 184 0
14:25:41.4 52 67 4:28.957 16.062 83 192 0
14:28:24.4 53 68 2:42.972 26.508 65 184 0
14:31:00.6 54 70 2:36.228 27.652 62 183 0
14:33:37.9 55 71 2:37.281 27.467 61 183 0
14:36:19.5 56 72 2:41.606 26.732 64 181 0
14:38:56.6 57 73 2:37.120 27.495 65 182 0
14:41:35.5 58 74 2:38.816 27.201 67 185 0
14:44:20.5 59 76 2:45.009 26.180 65 184 0
14:47:05.7 60 77 2:45.194 26.151 66 182 0
14:49:50.1 61 78 2:44.460 26.268 66 181 0
14:52:35.8 62 79 2:45.674 26.075 66 183 0
14:55:17.9 63 81 2:42.092 26.652 65 181 0
14:58:11.5 64 82 2:53.572 24.889 66 185 0
15:00:58.7 65 83 2:47.278 25.825 64 182 0
15:03:47.9 66 84 2:49.168 25.537 67 183 0
15:06:47.2 67 86 2:59.287 24.095 67 185 0
15:09:44.2 68 87 2:56.972 24.411 64 184 0
15:12:39.6 69 88 2:55.393 24.630 70 182 0
15:15:33.0 70 90 2:53.422 24.910 68 183 0
15:18:31.4 71 91 2:58.471 24.206 68 185 0
15:22:39.7 72 93 4:08.229 17.403 79 197 0
15:25:11.1 73 94 2:31.471 28.520 64 184 0
15:27:39.8 74 95 2:28.636 29.064 63 184 0
15:30:09.8 75 96 2:29.974 28.805 62 182 0
15:32:42.2 76 97 2:32.464 28.335 63 183 0
15:35:14.3 77 98 2:32.109 28.401 65 181 0
15:37:49.6 78 99 2:35.227 27.830 66 183 0
15:40:29.5 79 101 2:39.898 27.017 66 184 0
15:43:07.9 80 102 2:38.417 27.270 62 183 0
15:45:46.3 81 103 2:38.439 27.266 64 184 0
15:48:27.0 82 104 2:40.680 26.886 62 183 0
15:51:20.8 83 106 2:53.814 24.854 64 183 0
15:53:55.1 84 107 2:34.270 28.003 63 183 0
15:56:35.9 85 108 2:40.803 26.865 63 183 0
15:59:22.1 86 109 2:46.220 25.990 62 182 0
16:03:18.8 87 111 3:56.689 18.252 78 195 0
16:06:05.7 88 112 2:46.948 25.876 64 183 0
16:08:43.2 89 114 2:37.442 27.439 63 182 0
16:11:19.8 90 115 2:36.615 27.584 65 180 0
16:13:56.0 91 116 2:36.248 27.648 68 185 0
16:16:34.6 92 117 2:38.603 27.238 63 180 0
16:19:13.6 93 118 2:38.969 27.175 65 183 0
16:21:55.4 94 120 2:41.772 26.704 66 182 0
16:24:38.2 95 121 2:42.815 26.533 66 183 0
16:27:21.6 96 122 2:43.380 26.441 64 185 0
16:30:03.6 97 123 2:42.048 26.659 63 184 0
16:32:44.0 98 124 2:40.332 26.944 67 181 0
16:35:30.9 99 126 2:46.919 25.881 66 181 0
16:38:14.3 100 127 2:43.451 26.430 66 183 0
16:40:59.8 101 128 2:45.425 26.115 64 185 0
16:43:45.1 102 129 2:45.306 26.133 64 185 0
16:46:30.4 103 131 2:45.345 26.127 65 184 0
16:49:13.9 104 132 2:43.459 26.429 65 182 0
16:52:00.2 105 133 2:46.338 25.971 66 183 0
16:54:42.8 106 134 2:42.625 26.564 64 183 0
16:57:20.7 107 135 2:37.906 27.358 63 181 0
17:00:52.5 108 136 3:31.796 20.397 82 194 0
17:03:22.1 109 137 2:29.618 28.874 64 184 0
17:05:51.8 110 138 2:29.689 28.860 62 183 0
17:08:22.7 111 139 2:30.846 28.638 62 181 0
17:10:49.4 112 140 2:26.678 29.452 60 179 0
17:13:07.8 113 141 2:18.434 31.206 56 180 0
17:15:33.7 114 142 2:25.873 29.615 65 183 0
17:18:01.5 115 144 2:27.794 29.230 62 184 0
17:20:28.1 116 145 2:26.608 29.466 63 183 0
17:22:54.6 117 146 2:26.531 29.482 63 186 0
17:25:22.2 118 147 2:27.591 29.270 63 184 0
17:27:50.7 119 148 2:28.459 29.099 63 180 0
17:30:21.5 120 150 2:30.827 28.642 62 182 0
17:32:51.7 121 151 2:30.226 28.757 63 184 0
17:35:21.7 122 152 2:30.035 28.793 63 184 0
17:37:53.1 123 153 2:31.398 28.534 66 183 0
17:40:25.1 124 154 2:31.946 28.431 62 181 0
17:42:57.5 125 156 2:32.438 28.339 62 183 0
17:45:28.8 126 157 2:31.276 28.557 63 183 0
17:48:00.9 127 158 2:32.144 28.394 60 181 0
17:50:32.3 128 159 2:31.384 28.537 66 184 0
17:53:03.9 129 160 2:31.601 28.496 62 184 0
17:55:35.9 130 161 2:31.991 28.423 66 184 0
17:58:09.1 131 162 2:33.158 28.206 65 184 0
18:00:42.5 132 164 2:33.455 28.152 64 183 0
52 - Helter Skelter Woodleigh - C (YR11-12)
12:01:44.6 1 1 2:25.965 29.596 56 156 0
12:04:04.3 2 2 2:19.716 30.920 57 156 0
12:06:24.8 3 3 2:20.532 30.740 56 156 0
12:08:48.5 4 4 2:23.644 30.074 56 154 0
12:11:07.0 5 5 2:18.566 31.176 58 155 0
12:13:26.6 6 7 2:19.522 30.963 57 156 0
12:15:51.9 7 8 2:25.370 29.717 59 156 0
12:18:16.1 8 9 2:24.127 29.974 58 157 0
12:20:41.6 9 10 2:25.511 29.688 59 155 0
12:23:10.6 10 11 2:29.038 28.986 59 155 0
12:25:43.9 11 12 2:33.295 28.181 56 156 0
12:28:17.2 12 14 2:33.285 28.183 57 156 0
12:30:53.0 13 15 2:35.777 27.732 58 159 0
12:33:26.6 14 16 2:33.597 28.126 60 156 0
12:36:03.1 15 17 2:36.505 27.603 60 157 0
12:38:42.5 16 19 2:39.435 27.096 58 157 0
12:41:13.1 17 20 2:30.591 28.687 59 157 0
12:43:41.7 18 21 2:28.663 29.059 59 159 0
12:46:07.7 19 22 2:25.944 29.600 59 156 0
12:48:38.8 20 23 2:31.106 28.589 56 155 0
12:51:12.8 21 25 2:34.040 28.045 59 156 0
12:53:50.3 22 26 2:37.483 27.432 60 157 0
12:56:18.5 23 27 2:28.205 29.149 60 157 0
12:58:43.7 24 28 2:25.219 29.748 55 157 0
13:01:09.2 25 29 2:25.427 29.706 58 157 0
13:03:32.6 26 31 2:23.388 30.128 57 157 0
13:07:06.9 27 32 3:34.369 20.152 58 158 0
13:09:23.9 28 33 2:16.965 31.541 58 157 0
13:11:51.0 29 34 2:27.138 29.360 54 158 0
13:14:21.2 30 35 2:30.159 28.770 59 158 0
13:16:46.7 31 36 2:25.465 29.698 56 157 0
13:19:12.5 32 38 2:25.874 29.615 59 157 0
13:21:38.7 33 39 2:26.156 29.557 53 156 0
13:24:03.0 34 40 2:24.347 29.928 57 157 0
13:26:28.6 35 41 2:25.529 29.685 58 159 0
13:28:54.0 36 42 2:25.426 29.706 54 158 0
13:31:27.9 37 43 2:33.898 28.071 58 157 0
13:34:01.1 38 44 2:33.220 28.195 60 158 0
13:36:33.8 39 46 2:32.738 28.284 57 160 0
13:39:02.9 40 47 2:29.028 28.988 59 159 0
13:41:36.0 41 48 2:33.126 28.212 60 158 0
13:44:13.1 42 49 2:37.077 27.502 54 160 0
13:46:47.0 43 50 2:33.891 28.072 59 158 0
13:49:19.3 44 51 2:32.334 28.359 60 160 0
13:51:51.9 45 52 2:32.557 28.317 61 158 0
13:54:31.2 46 54 2:39.377 27.106 60 159 0
13:57:08.5 47 55 2:37.299 27.464 61 158 0
13:59:40.3 48 56 2:31.810 28.457 61 160 0
14:02:17.1 49 57 2:36.734 27.563 60 160 0
14:04:52.3 50 58 2:35.217 27.832 60 160 0
14:07:29.1 51 59 2:36.837 27.545 60 159 0
14:09:59.8 52 61 2:30.688 28.669 58 157 0
14:14:00.2 53 62 4:00.406 17.970 64 161 0
14:17:09.5 54 63 3:09.244 22.828 65 159 0
14:20:18.5 55 65 3:09.010 22.856 65 159 0
14:23:27.8 56 66 3:09.286 22.823 66 159 0
14:26:32.3 57 68 3:04.489 23.416 61 159 0
14:29:42.9 58 69 3:10.628 22.662 65 160 0
14:32:53.7 59 70 3:10.813 22.640 65 159 0
14:36:17.8 60 72 3:24.070 21.169 65 160 0
14:39:45.5 61 74 3:27.714 20.798 65 159 0
14:43:15.4 62 75 3:29.942 20.577 66 158 0
14:46:38.3 63 77 3:22.913 21.290 66 159 0
14:49:55.9 64 78 3:17.564 21.866 65 160 0
14:53:18.0 65 80 3:22.110 21.374 65 159 0
14:56:39.5 66 81 3:21.443 21.445 65 159 0
14:59:55.3 67 83 3:15.873 22.055 65 161 0
15:03:43.3 68 84 3:47.974 18.950 62 157 0
15:06:35.5 69 86 2:52.204 25.087 63 157 0
15:09:36.1 70 87 3:00.632 23.916 62 158 0
15:12:39.1 71 88 3:02.920 23.617 63 158 0
15:15:47.4 72 90 3:08.338 22.937 63 159 0
15:18:57.9 73 91 3:10.460 22.682 67 159 0
15:22:00.6 74 93 3:02.784 23.634 64 158 0
15:25:02.3 75 94 3:01.676 23.779 63 158 0
15:28:06.6 76 95 3:04.322 23.437 63 159 0
15:31:13.3 77 96 3:06.701 23.139 63 158 0
15:34:06.7 78 98 2:53.355 24.920 61 158 0
15:38:04.6 79 100 3:57.940 18.156 60 158 0
15:40:43.2 80 101 2:38.548 27.247 60 158 0
15:43:28.7 81 102 2:45.559 26.093 60 157 0
15:46:18.4 82 103 2:49.634 25.467 60 157 0
15:49:09.7 83 105 2:51.319 25.216 63 157 0
15:52:01.2 84 106 2:51.550 25.182 62 159 0
15:54:54.6 85 107 2:53.364 24.919 62 158 0
15:57:50.8 86 109 2:56.173 24.521 63 158 0
16:00:46.8 87 110 2:56.019 24.543 64 157 0
16:03:43.4 88 111 2:56.602 24.462 63 158 0
16:06:42.7 89 113 2:59.277 24.097 63 160 0
16:09:38.4 90 114 2:55.734 24.583 63 158 0
16:12:38.2 91 115 2:59.806 24.026 64 158 0
16:16:24.1 92 117 3:45.880 19.125 57 155 0
16:18:57.7 93 118 2:33.641 28.117 57 158 0
16:21:30.7 94 119 2:32.999 28.235 59 158 0
16:24:01.6 95 120 2:30.846 28.638 57 156 0
16:26:31.8 96 122 2:30.223 28.757 56 159 0
16:29:00.5 97 123 2:28.675 29.057 60 156 0
16:31:32.2 98 124 2:31.711 28.475 58 156 0
16:34:02.5 99 125 2:30.299 28.743 58 157 0
16:36:36.2 100 126 2:33.720 28.103 58 156 0
16:39:11.3 101 127 2:35.128 27.848 61 156 0
16:41:47.9 102 128 2:36.517 27.601 60 155 0
16:44:16.1 103 130 2:28.225 29.145 59 157 0
16:46:51.6 104 131 2:35.570 27.769 62 157 0
16:49:34.0 105 132 2:42.313 26.615 61 157 0
16:52:05.1 106 133 2:31.125 28.586 61 157 0
16:54:42.5 107 134 2:37.380 27.449 60 157 0
16:57:19.9 108 135 2:37.439 27.439 62 157 0
17:00:00.2 109 135 2:40.290 26.951 61 157 0
17:02:38.6 110 136 2:38.364 27.279 61 156 0
17:06:37.0 111 138 3:58.426 18.119 57 157 0
17:08:53.9 112 139 2:16.885 31.559 58 157 0
17:11:20.5 113 140 2:26.606 29.467 55 159 0
17:13:44.1 114 142 2:23.627 30.078 57 158 0
17:16:09.5 115 143 2:25.361 29.719 58 157 0
17:18:36.3 116 144 2:26.809 29.426 58 157 0
17:21:03.5 117 145 2:27.183 29.351 60 156 0
17:23:30.5 118 146 2:27.069 29.374 58 156 0
17:25:56.1 119 148 2:25.545 29.682 59 156 0
17:28:28.7 120 149 2:32.602 28.309 58 155 0
17:31:00.6 121 150 2:31.907 28.438 59 156 0
17:33:28.2 122 151 2:27.593 29.270 54 156 0
17:36:57.9 123 153 3:29.735 20.597 60 156 0
17:39:47.0 124 154 2:49.136 25.542 60 159 0
17:42:33.1 125 155 2:46.062 26.014 59 156 0
17:45:22.9 126 157 2:49.775 25.445 62 158 0
17:48:12.8 127 158 2:49.938 25.421 61 157 0
17:51:04.3 128 159 2:51.441 25.198 63 158 0
17:54:00.1 129 161 2:55.886 24.561 63 158 0
17:56:54.3 130 162 2:54.117 24.811 64 157 0
17:59:46.2 131 163 2:51.973 25.120 61 156 0
18:02:39.3 132 164 2:53.034 24.966 59 157 0
55 - Ay-zza Mt Eliza SC - C (YR11-12)
12:02:02.3 1 1 2:48.727 25.603 59 178 0
12:04:21.5 2 2 2:19.187 31.037 56 176 0
12:06:45.5 3 3 2:23.968 30.007 60 177 0
12:09:09.6 4 4 2:24.083 29.983 60 177 0
12:11:36.4 5 6 2:26.800 29.428 63 177 0
12:13:58.7 6 7 2:22.285 30.362 59 177 0
12:16:25.8 7 8 2:27.185 29.351 62 176 0
12:18:58.0 8 9 2:32.193 28.385 64 177 0
12:29:50.6 9 14 10:52.534 6.620 84 189 0
12:40:23.4 10 19 10:32.808 6.827 84 190 0
12:43:16.1 11 21 2:52.691 25.016 64 174 0
12:46:14.3 12 22 2:58.269 24.233 64 177 0
12:49:22.3 13 24 3:08.008 22.978 64 176 0
12:52:27.1 14 25 3:04.736 23.385 65 175 0
12:55:30.9 15 27 3:03.814 23.502 64 177 0
12:58:36.4 16 28 3:05.517 23.286 62 173 0
13:01:35.4 17 30 2:59.017 24.132 64 176 0
13:06:25.7 18 32 4:50.304 14.881 80 190 0
13:08:49.0 19 33 2:23.292 30.148 57 177 0
13:11:10.2 20 34 2:21.174 30.601 62 175 0
13:13:37.1 21 35 2:26.940 29.400 59 176 0
13:16:07.7 22 36 2:30.564 28.692 63 177 0
13:18:43.5 23 37 2:35.819 27.724 65 177 0
13:21:22.6 24 39 2:39.059 27.160 65 178 0
13:24:02.0 25 40 2:39.454 27.092 62 177 0
13:26:43.3 26 41 2:41.302 26.782 62 176 0
13:30:40.1 27 43 3:56.797 18.243 84 191 0
13:33:28.1 28 44 2:47.965 25.720 62 175 0
13:36:13.6 29 45 2:45.495 26.104 65 175 0
13:39:05.9 30 47 2:52.292 25.074 66 178 0
13:42:01.6 31 48 2:55.755 24.580 64 177 0
13:45:00.9 32 49 2:59.227 24.104 67 178 0
13:47:55.8 33 51 2:54.939 24.694 63 177 0
13:50:53.7 34 52 2:57.874 24.287 62 178 0
13:53:51.4 35 53 2:57.694 24.311 65 178 0
13:56:49.1 36 55 2:57.768 24.301 66 178 0
14:00:45.2 37 56 3:56.091 18.298 84 189 0
14:03:09.8 38 58 2:24.570 29.882 60 180 0
14:05:26.3 39 59 2:16.457 31.658 59 177 0
14:07:47.6 40 59 2:21.340 30.565 63 176 0
14:10:08.2 41 61 2:20.560 30.734 58 179 0
14:12:30.7 42 62 2:22.587 30.297 62 176 0
14:14:56.9 43 63 2:26.194 29.550 62 178 0
14:17:23.2 44 63 2:26.215 29.546 54 182 0
14:19:46.7 45 65 2:23.585 30.087 58 178 0
14:22:09.6 46 66 2:22.892 30.233 62 176 0
14:24:36.1 47 67 2:26.430 29.502 64 178 0
14:27:11.2 48 68 2:35.191 27.837 60 176 0
14:29:39.4 49 69 2:28.108 29.168 62 180 0
14:32:10.5 50 70 2:31.188 28.574 65 179 0
14:36:30.8 51 72 4:20.234 16.600 83 191 0
14:39:36.9 52 73 3:06.156 23.206 63 176 0
14:42:36.6 53 75 2:59.677 24.043 67 178 0
14:45:43.7 54 76 3:07.107 23.088 69 177 0
14:48:58.7 55 78 3:14.979 22.156 70 179 0
14:52:16.3 56 79 3:17.568 21.866 68 180 0
14:55:30.3 57 81 3:14.023 22.265 68 177 0
14:58:43.7 58 82 3:13.427 22.334 68 177 0
15:01:57.3 59 84 3:13.605 22.313 67 181 0
15:05:15.1 60 85 3:17.741 21.847 65 178 0
15:09:19.7 61 87 4:04.618 17.660 83 189 0
15:11:48.6 62 88 2:28.950 29.003 61 178 0
15:14:30.9 63 89 2:42.271 26.622 65 179 0
15:16:55.9 64 90 2:25.040 29.785 60 174 0
15:19:18.3 65 92 2:22.329 30.352 61 177 0
15:21:45.9 66 93 2:27.662 29.256 64 177 0
15:24:14.7 67 94 2:28.774 29.037 62 176 0
15:26:42.3 68 95 2:27.561 29.276 62 177 0
15:29:05.7 69 95 2:23.411 30.123 63 180 0
15:31:37.7 70 97 2:31.987 28.423 63 179 0
15:34:23.8 71 98 2:46.146 26.001 63 178 0
15:36:46.1 72 99 2:22.332 30.352 61 176 0
15:39:18.5 73 100 2:32.338 28.358 63 178 0
15:41:49.2 74 101 2:30.730 28.661 63 175 0
15:44:29.8 75 103 2:40.579 26.903 63 179 0
15:47:05.3 76 104 2:35.531 27.776 62 179 0
15:49:36.5 77 105 2:31.155 28.580 63 177 0
15:52:09.7 78 106 2:33.260 28.187 63 177 0
15:55:50.2 79 108 3:40.464 19.595 80 189 0
15:58:34.8 80 109 2:44.614 26.243 62 175 0
16:01:17.6 81 110 2:42.789 26.537 65 179 0
16:04:01.6 82 112 2:44.029 26.337 65 174 0
16:06:49.3 83 113 2:47.647 25.768 64 179 0
16:09:36.1 84 114 2:46.844 25.892 65 178 0
16:12:27.3 85 115 2:51.130 25.244 68 179 0
16:15:16.7 86 117 2:49.464 25.492 64 177 0
16:18:07.5 87 118 2:50.781 25.296 66 176 0
16:22:39.2 88 120 4:31.734 15.898 78 189 0
16:25:01.2 89 121 2:21.972 30.429 61 181 0
16:27:15.5 90 122 2:14.297 32.168 62 179 0
16:29:28.5 91 123 2:13.035 32.473 61 178 0
16:31:41.9 92 124 2:13.389 32.386 57 176 0
16:33:54.7 93 125 2:12.822 32.525 61 177 0
16:36:09.1 94 126 2:14.364 32.151 61 177 0
16:38:25.0 95 127 2:15.890 31.790 60 178 0
16:40:41.7 96 128 2:16.681 31.606 61 180 0
16:42:57.5 97 129 2:15.782 31.816 60 176 0
16:45:10.7 98 130 2:13.221 32.427 57 175 0
16:47:26.3 99 131 2:15.631 31.851 60 177 0
16:49:44.9 100 132 2:18.536 31.183 60 180 0
16:52:02.6 101 133 2:17.753 31.360 63 178 0
16:54:23.1 102 134 2:20.451 30.758 61 180 0
16:56:42.9 103 135 2:19.884 30.883 62 179 0
16:59:51.3 104 135 3:08.320 22.940 74 186 0
17:02:10.9 105 136 2:19.629 30.939 59 175 0
17:04:40.1 106 137 2:29.185 28.957 62 176 0
17:07:05.8 107 138 2:25.775 29.635 62 174 0
17:09:27.7 108 140 2:21.825 30.460 58 175 0
17:11:50.8 109 141 2:23.092 30.190 63 174 0
17:14:17.5 110 142 2:26.757 29.436 63 178 0
17:17:51.2 111 144 3:33.725 20.213 78 190 0
17:20:12.4 112 145 2:21.142 30.607 61 178 0
17:22:29.3 113 146 2:16.896 31.557 61 180 0
17:24:46.9 114 147 2:17.634 31.388 62 177 0
17:27:04.3 115 148 2:17.363 31.450 62 177 0
17:29:20.2 116 149 2:15.887 31.791 57 176 0
17:31:35.3 117 150 2:15.130 31.969 60 181 0
17:33:47.6 118 151 2:12.276 32.659 57 182 0
17:36:06.8 119 152 2:19.185 31.038 61 179 0
17:38:32.4 120 153 2:25.665 29.657 61 178 0
17:40:56.5 121 155 2:24.093 29.981 61 176 0
17:43:22.3 122 156 2:25.761 29.638 57 174 0
17:45:46.7 123 157 2:24.442 29.908 62 178 0
17:48:10.4 124 158 2:23.632 30.077 62 175 0
17:50:29.2 125 159 2:18.861 31.110 60 177 0
17:52:50.7 126 160 2:21.516 30.527 62 177 0
17:55:14.7 127 161 2:24.017 29.996 63 174 0
17:57:36.8 128 162 2:22.087 30.404 63 174 0
17:59:55.6 129 163 2:18.742 31.137 62 175 0
18:02:15.0 130 164 2:19.416 30.986 62 173 0
48 - Anti Venom Platt Racing - Community
12:01:32.4 1 1 2:20.433 30.762 53 142 0
12:04:01.2 2 2 2:28.770 29.038 53 139 0
12:06:37.1 3 3 2:35.949 27.701 53 139 0
12:09:12.8 4 4 2:35.646 27.755 55 139 0
12:11:50.4 5 6 2:37.590 27.413 55 139 0
12:14:25.1 6 7 2:34.777 27.911 54 140 0
12:17:00.7 7 8 2:35.550 27.772 51 139 0
12:19:40.0 8 10 2:39.331 27.113 56 139 0
12:22:15.4 9 11 2:35.340 27.810 56 139 0
12:25:01.3 10 12 2:45.939 26.034 53 143 0
12:27:45.4 11 13 2:44.080 26.329 57 141 0
12:30:29.3 12 15 2:43.879 26.361 57 140 0
12:33:12.9 13 16 2:43.635 26.400 56 139 0
12:35:55.0 14 17 2:42.107 26.649 57 140 0
12:38:41.5 15 19 2:46.457 25.953 55 140 0
12:41:24.7 16 20 2:43.203 26.470 55 139 0
12:44:09.6 17 21 2:44.908 26.196 56 140 0
12:46:50.0 18 23 2:40.390 26.934 53 140 0
12:49:28.4 19 24 2:38.409 27.271 55 140 0
12:52:07.3 20 25 2:38.938 27.180 56 140 0
12:54:50.3 21 26 2:43.018 26.500 56 141 0
12:57:39.6 22 28 2:49.229 25.528 59 141 0
13:00:23.2 23 29 2:43.601 26.406 56 140 0
13:03:05.5 24 30 2:42.346 26.610 55 143 0
13:05:47.2 25 32 2:41.735 26.710 57 141 0
13:10:12.4 26 34 4:25.128 16.294 56 141 0
13:13:12.4 27 35 2:59.992 24.001 57 140 0
13:16:08.1 28 36 2:55.745 24.581 58 143 0
13:19:00.2 29 37 2:52.089 25.103 56 141 0
13:21:49.5 30 39 2:49.349 25.509 56 141 0
13:24:46.9 31 40 2:57.330 24.361 56 141 0
13:27:43.3 32 41 2:56.404 24.489 56 141 0
13:30:35.2 33 43 2:51.935 25.126 55 141 0
13:33:33.1 34 44 2:57.840 24.291 58 140 0
13:36:33.6 35 46 3:00.575 23.924 55 141 0
13:39:31.7 36 47 2:58.106 24.255 55 141 0
13:42:29.9 37 48 2:58.134 24.251 57 140 0
13:45:30.2 38 50 3:00.356 23.953 57 141 0
13:48:33.4 39 51 3:03.192 23.582 58 141 0
13:51:33.7 40 52 3:00.304 23.960 57 140 0
13:54:31.0 41 54 2:57.272 24.369 58 140 0
13:57:32.7 42 55 3:01.699 23.776 58 140 0
14:00:36.2 43 56 3:03.500 23.542 58 140 0
14:03:39.2 44 58 3:03.015 23.605 58 142 0
14:07:53.2 45 59 4:14.040 17.005 55 142 0
14:10:17.7 46 61 2:24.411 29.915 52 143 0
14:12:45.2 47 62 2:27.527 29.283 56 141 0
14:15:21.6 48 63 2:36.407 27.620 57 142 0
14:17:53.1 49 64 2:31.476 28.519 52 141 0
14:20:15.6 50 65 2:22.516 30.312 56 142 0
14:22:51.0 51 66 2:35.371 27.804 56 143 0
14:25:31.7 52 67 2:40.729 26.878 51 141 0
14:28:05.1 53 68 2:33.420 28.158 56 141 0
14:30:42.4 54 69 2:37.257 27.471 57 140 0
14:33:24.5 55 71 2:42.164 26.640 57 141 0
14:36:03.9 56 72 2:39.404 27.101 52 141 0
14:38:51.6 57 73 2:47.662 25.766 56 141 0
14:41:28.0 58 74 2:36.402 27.621 55 141 0
14:44:03.6 59 76 2:35.638 27.757 56 141 0
14:46:42.9 60 77 2:39.254 27.126 55 141 0
14:49:15.9 61 78 2:32.992 28.237 55 140 0
14:51:51.3 62 79 2:35.445 27.791 56 142 0
14:54:28.0 63 80 2:36.638 27.580 55 140 0
14:57:03.7 64 81 2:35.701 27.745 55 140 0
14:59:36.8 65 83 2:33.107 28.216 55 141 0
15:02:12.7 66 84 2:35.914 27.708 55 142 0
15:04:53.4 67 85 2:40.716 26.880 55 141 0
15:07:32.1 68 86 2:38.704 27.220 55 140 0
15:10:13.4 69 87 2:41.249 26.791 56 141 0
15:15:02.4 70 90 4:49.009 14.948 57 141 0
15:18:08.0 71 91 3:05.683 23.265 57 141 0
15:21:07.9 72 92 2:59.846 24.021 57 142 0
15:24:00.9 73 94 2:53.020 24.968 56 141 0
15:26:52.7 74 95 2:51.761 25.151 55 143 0
15:29:47.2 75 96 2:54.538 24.751 57 143 0
15:32:43.3 76 97 2:56.081 24.534 56 142 0
15:35:39.6 77 98 2:56.271 24.508 58 143 0
15:38:34.7 78 100 2:55.095 24.672 55 142 0
15:41:27.8 79 101 2:53.104 24.956 56 142 0
15:44:20.3 80 103 2:52.513 25.042 58 142 0
15:47:14.0 81 104 2:53.700 24.870 58 143 0
15:50:43.6 82 105 3:29.623 20.608 57 142 0
15:53:40.9 83 107 2:57.284 24.368 58 141 0
15:56:38.4 84 108 2:57.551 24.331 56 141 0
15:59:35.2 85 110 2:56.771 24.438 57 141 0
16:02:32.8 86 111 2:57.587 24.326 57 141 0
16:05:29.5 87 112 2:56.708 24.447 57 143 0
16:08:31.8 88 114 3:02.284 23.699 58 142 0
16:11:33.2 89 115 3:01.376 23.818 55 141 0
16:14:22.8 90 116 2:49.636 25.466 54 139 0
16:18:35.3 91 118 4:12.511 17.108 54 139 0
16:21:08.0 92 119 2:32.720 28.287 54 141 0
16:23:39.5 93 120 2:31.518 28.511 55 140 0
16:26:17.6 94 121 2:38.106 27.323 55 139 0
16:28:53.2 95 123 2:35.564 27.770 55 138 0
16:31:26.4 96 124 2:33.140 28.209 55 139 0
16:34:04.7 97 125 2:38.387 27.275 54 140 0
16:36:46.6 98 126 2:41.910 26.681 57 140 0
16:39:47.9 99 128 3:01.217 23.839 57 141 0
16:42:36.8 100 129 2:48.915 25.575 57 140 0
16:45:20.7 101 130 2:43.940 26.351 57 139 0
16:48:08.1 102 131 2:47.358 25.813 56 139 0
16:50:55.0 103 133 2:46.903 25.883 56 141 0
16:53:43.6 104 134 2:48.617 25.620 57 140 0
16:56:32.1 105 135 2:48.501 25.638 56 139 0
16:59:25.0 106 135 2:52.900 24.986 57 141 0
17:02:10.7 107 136 2:45.731 26.066 54 140 0
17:05:06.1 108 138 2:55.346 24.637 58 141 0
17:07:54.7 109 139 2:48.617 25.620 57 140 0
17:10:51.2 110 140 2:56.471 24.480 58 140 0
17:13:44.0 111 142 2:52.802 25.000 57 141 0
17:16:35.6 112 143 2:51.613 25.173 57 139 0
17:19:24.7 113 144 2:49.168 25.537 57 140 0
17:22:14.5 114 146 2:49.732 25.452 58 140 0
17:25:04.9 115 147 2:50.403 25.352 58 140 0
17:27:58.7 116 148 2:53.852 24.849 58 141 0
17:31:58.6 117 150 3:59.835 18.012 54 139 0
17:34:31.9 118 152 2:33.373 28.167 53 138 0
17:37:08.8 119 153 2:36.818 27.548 55 139 0
17:39:50.1 120 154 2:41.346 26.775 56 140 0
17:42:34.0 121 155 2:43.918 26.355 56 139 0
17:45:13.3 122 157 2:39.229 27.131 55 139 0
17:47:53.3 123 158 2:40.010 26.998 56 139 0
17:50:35.3 124 159 2:42.056 26.657 55 140 0
17:53:16.3 125 160 2:40.963 26.838 55 139 0
17:56:01.5 126 161 2:45.176 26.154 55 140 0
17:58:38.1 127 163 2:36.652 27.577 54 140 0
18:01:10.2 128 164 2:32.132 28.396 52 140 0
62 - Asphalt Melter Woodleigh - Open
12:01:59.5 1 1 2:41.116 26.813 58 158 0
12:04:35.7 2 2 2:36.151 27.666 59 156 0
12:07:18.5 3 4 2:42.808 26.534 59 156 0
12:10:04.5 4 5 2:46.006 26.023 60 157 0
12:12:47.2 5 6 2:42.715 26.549 59 157 0
12:15:29.4 6 8 2:42.218 26.631 58 155 0
12:18:10.1 7 9 2:40.692 26.884 58 156 0
12:20:50.3 8 10 2:40.174 26.971 56 156 0
12:23:31.9 9 11 2:41.648 26.725 59 157 0
12:26:18.4 10 13 2:46.510 25.944 59 156 0
12:29:03.6 11 14 2:45.188 26.152 61 156 0
12:31:45.7 12 15 2:42.027 26.662 59 157 0
12:34:20.9 13 17 2:35.212 27.833 57 156 0
12:36:59.4 14 18 2:38.535 27.250 61 156 0
12:39:45.4 15 19 2:46.005 26.023 57 157 0
12:42:26.1 16 20 2:40.731 26.877 60 157 0
12:45:10.9 17 22 2:44.787 26.216 61 157 0
12:47:57.8 18 23 2:46.841 25.893 59 158 0
12:53:33.1 19 26 5:35.361 12.882 60 158 0
12:56:11.1 20 27 2:37.969 27.347 59 157 0
12:58:43.6 21 28 2:32.498 28.328 56 159 0
13:01:12.4 22 29 2:28.849 29.023 54 158 0
13:03:55.7 23 31 2:43.261 26.461 57 158 0
13:06:38.3 24 32 2:42.564 26.574 62 157 0
13:09:28.4 25 33 2:50.137 25.391 61 159 0
13:12:21.2 26 35 2:52.790 25.001 59 157 0
13:15:05.9 27 36 2:44.716 26.227 60 158 0
13:17:50.0 28 37 2:44.133 26.320 60 158 0
13:20:34.9 29 38 2:44.836 26.208 60 157 0
13:23:14.0 30 39 2:39.152 27.144 58 158 0
13:25:58.1 31 41 2:44.043 26.335 57 159 0
13:28:46.8 32 42 2:48.766 25.598 61 161 0
13:31:38.3 33 43 2:51.413 25.202 52 158 0
13:34:37.3 34 45 2:59.075 24.124 64 160 0
13:37:40.3 35 46 3:02.981 23.609 61 158 0
13:40:43.4 36 48 3:03.042 23.601 59 159 0
13:44:33.6 37 49 3:50.198 18.766 57 157 0
13:47:00.2 38 50 2:26.606 29.467 58 157 0
13:49:26.9 39 51 2:26.734 29.441 59 156 0
13:52:25.2 40 53 2:58.305 24.228 57 156 0
13:54:52.5 41 54 2:27.348 29.318 56 155 0
13:57:26.4 42 55 2:33.845 28.080 57 156 0
14:00:03.1 43 56 2:36.716 27.566 60 159 0
14:02:41.9 44 57 2:38.747 27.213 60 158 0
14:05:23.7 45 58 2:41.889 26.685 60 159 0
14:08:03.0 46 60 2:39.251 27.127 59 158 0
14:10:47.5 47 61 2:44.542 26.255 60 158 0
14:13:28.8 48 62 2:41.233 26.794 59 158 0
14:16:09.1 49 63 2:40.332 26.944 60 160 0
14:18:46.9 50 64 2:37.757 27.384 58 156 0
14:21:22.1 51 65 2:35.215 27.832 59 158 0
14:24:04.6 52 66 2:42.537 26.579 61 159 0
14:26:49.9 53 68 2:45.272 26.139 60 158 0
14:29:32.8 54 69 2:42.897 26.520 59 159 0
14:32:13.2 55 70 2:40.395 26.934 61 159 0
14:36:22.5 56 72 4:09.342 17.326 58 157 0
14:38:55.9 57 73 2:33.401 28.161 57 158 0
14:41:29.2 58 74 2:33.257 28.188 58 157 0
14:44:04.4 59 76 2:35.216 27.832 60 158 0
14:46:43.7 60 77 2:39.307 27.117 58 159 0
14:49:17.5 61 78 2:33.810 28.087 55 158 0
14:51:52.6 62 79 2:35.085 27.856 58 158 0
14:54:30.4 63 80 2:37.842 27.369 61 158 0
14:57:09.9 64 81 2:39.475 27.089 60 162 0
14:59:53.9 65 83 2:43.961 26.348 62 159 0
15:02:41.0 66 84 2:47.089 25.854 55 159 0
15:05:35.9 67 85 2:54.962 24.691 59 158 0
15:08:34.4 68 87 2:58.472 24.205 60 158 0
15:11:33.1 69 88 2:58.736 24.170 61 159 0
15:14:38.1 70 89 3:05.010 23.350 64 161 0
15:17:36.7 71 91 2:58.574 24.192 61 161 0
15:20:41.1 72 92 3:04.362 23.432 62 159 0
15:25:25.2 73 94 4:44.100 15.206 55 156 0
15:27:49.6 74 95 2:24.388 29.919 56 156 0
15:30:20.7 75 96 2:31.168 28.577 57 158 0
15:32:56.7 76 97 2:35.945 27.702 58 159 0
15:35:34.5 77 98 2:37.818 27.373 59 159 0
15:38:06.5 78 100 2:31.967 28.427 58 158 0
15:40:40.4 79 101 2:33.965 28.058 50 159 0
15:43:18.9 80 102 2:38.458 27.263 58 158 0
15:46:03.5 81 103 2:44.584 26.248 58 158 0
15:48:49.1 82 105 2:45.670 26.076 59 157 0
15:51:43.6 83 106 2:54.413 24.769 63 161 0
15:54:30.5 84 107 2:46.933 25.879 58 157 0
15:57:19.2 85 108 2:48.700 25.608 59 157 0
16:00:02.7 86 110 2:43.468 26.427 58 159 0
16:02:40.4 87 111 2:37.734 27.388 58 158 0
16:05:23.1 88 112 2:42.680 26.555 59 156 0
16:08:09.8 89 113 2:46.760 25.905 60 158 0
16:12:44.1 90 115 4:34.247 15.752 57 156 0
16:15:21.3 91 117 2:37.207 27.480 58 159 0
16:18:03.3 92 118 2:41.985 26.669 60 157 0
16:20:52.9 93 119 2:49.596 25.472 62 159 0
16:23:40.1 94 120 2:47.238 25.831 61 158 0
16:26:22.7 95 122 2:42.623 26.565 60 158 0
16:29:07.4 96 123 2:44.643 26.239 63 159 0
16:31:58.5 97 124 2:51.162 25.239 61 158 0
16:34:49.5 98 125 2:50.959 25.269 62 160 0
16:37:42.8 99 127 2:53.292 24.929 63 160 0
16:40:31.3 100 128 2:48.536 25.633 60 157 0
16:43:26.1 101 129 2:54.775 24.717 62 158 0
16:47:32.7 102 131 4:06.639 17.515 58 157 0
16:50:14.9 103 132 2:42.202 26.633 61 158 0
16:52:58.7 104 134 2:43.743 26.383 60 156 0
16:55:30.6 105 135 2:31.938 28.433 56 157 0
16:57:59.7 106 135 2:29.049 28.984 54 156 0
17:00:35.0 107 135 2:35.375 27.804 59 158 0
17:03:05.6 108 137 2:30.551 28.695 58 156 0
17:05:41.5 109 138 2:35.933 27.704 60 157 0
17:08:28.9 110 139 2:47.349 25.814 60 158 0
17:11:12.6 111 140 2:43.698 26.390 61 158 0
17:13:54.0 112 142 2:41.410 26.764 61 157 0
17:16:48.0 113 143 2:53.979 24.831 57 157 0
17:21:33.2 114 145 4:45.261 15.144 62 159 0
17:24:31.6 115 147 2:58.335 24.224 62 158 0
17:27:35.5 116 148 3:03.951 23.485 62 158 0
17:30:38.9 117 150 3:03.418 23.553 62 158 0
17:33:38.4 118 151 2:59.524 24.064 61 159 0
17:36:38.9 119 153 3:00.468 23.938 62 157 0
17:39:36.9 120 154 2:58.034 24.265 62 158 0
17:42:33.7 121 155 2:56.744 24.442 58 156 0
17:45:23.9 122 157 2:50.215 25.380 59 157 0
17:48:21.9 123 158 2:57.969 24.274 63 159 0
17:51:37.3 124 159 3:15.429 22.105 60 158 0
17:54:47.2 125 161 3:09.907 22.748 63 158 0
17:58:01.3 126 162 3:14.108 22.256 61 159 0
18:01:08.6 127 164 3:07.271 23.068 64 159 0
60 - Zoniac Victory Christian - B1 {YR7-8)
12:01:49.1 1 1 2:34.633 27.937 64 169 0
12:04:22.9 2 2 2:33.771 28.094 63 170 0
12:06:59.6 3 3 2:36.656 27.576 64 171 0
12:09:38.3 4 5 2:38.751 27.212 65 170 0
12:12:15.2 5 6 2:36.851 27.542 66 171 0
12:14:59.3 6 7 2:44.166 26.315 66 170 0
12:17:42.0 7 9 2:42.712 26.550 64 170 0
12:20:25.9 8 10 2:43.836 26.368 67 171 0
12:23:06.6 9 11 2:40.686 26.885 63 169 0
12:25:41.8 10 12 2:35.192 27.836 64 172 0
12:28:21.2 11 14 2:39.444 27.094 65 170 0
12:31:04.9 12 15 2:43.657 26.397 66 171 0
12:35:33.4 13 17 4:28.558 16.086 84 188 0
12:38:08.9 14 18 2:35.502 27.781 63 172 0
12:40:43.4 15 20 2:34.484 27.964 64 171 0
12:43:19.5 16 21 2:36.089 27.677 64 171 0
12:45:53.9 17 22 2:34.450 27.970 63 169 0
12:48:24.8 18 23 2:30.866 28.635 59 174 0
12:50:55.3 19 25 2:30.476 28.709 64 171 0
12:53:28.0 20 26 2:32.742 28.283 65 171 0
12:56:06.9 21 27 2:38.874 27.191 66 172 0
12:58:44.3 22 28 2:37.401 27.446 66 175 0
13:03:48.1 23 31 5:03.756 14.222 81 188 0
13:06:14.6 24 32 2:26.545 29.479 61 168 0
13:08:39.8 25 33 2:25.239 29.744 59 170 0
13:11:01.5 26 34 2:21.671 30.493 62 170 0
13:13:23.6 27 35 2:22.086 30.404 61 168 0
13:15:45.0 28 36 2:21.446 30.542 61 171 0
13:18:12.1 29 37 2:27.022 29.383 61 172 0
13:20:38.5 30 38 2:26.447 29.499 63 170 0
13:23:10.3 31 39 2:31.828 28.453 62 170 0
13:25:38.5 32 41 2:28.161 29.157 59 170 0
13:28:06.4 33 42 2:27.859 29.217 62 171 0
13:30:33.6 34 43 2:27.257 29.336 65 171 0
13:33:06.7 35 44 2:33.059 28.224 63 171 0
13:35:38.8 36 45 2:32.101 28.402 64 171 0
13:38:08.3 37 46 2:29.544 28.888 64 171 0
13:41:55.8 38 48 3:47.489 18.990 78 183 0
13:44:50.3 39 49 2:54.484 24.759 64 172 0
13:47:43.3 40 51 2:53.051 24.964 68 176 0
13:50:39.2 41 52 2:55.845 24.567 68 173 0
13:53:36.6 42 53 2:57.418 24.349 68 173 0
13:56:37.3 43 54 3:00.737 23.902 69 173 0
14:01:56.8 44 57 5:19.469 13.522 75 182 0
14:04:30.4 45 58 2:33.616 28.122 62 171 0
14:07:03.0 46 59 2:32.604 28.309 61 171 0
14:09:40.4 47 60 2:37.320 27.460 63 175 0
14:12:24.6 48 62 2:44.262 26.299 66 172 0
14:15:05.9 49 63 2:41.237 26.793 66 171 0
14:17:43.1 50 64 2:37.227 27.476 63 171 0
14:20:30.2 51 65 2:47.083 25.855 65 171 0
14:23:13.7 52 66 2:43.550 26.414 65 172 0
14:25:53.2 53 67 2:39.450 27.093 67 171 0
14:28:39.5 54 69 2:46.357 25.968 67 171 0
14:32:37.7 55 70 3:58.208 18.135 84 186 0
14:35:10.6 56 71 2:32.907 28.252 63 175 0
14:37:45.9 57 73 2:35.284 27.820 65 173 0
14:40:26.1 58 74 2:40.143 26.976 66 172 0
14:43:11.9 59 75 2:45.816 26.053 69 174 0
14:45:58.3 60 76 2:46.391 25.963 66 172 0
14:48:44.0 61 78 2:45.677 26.075 66 172 0
14:51:22.4 62 79 2:38.423 27.269 66 173 0
14:54:01.8 63 80 2:39.383 27.105 68 173 0
14:56:47.2 64 81 2:45.490 26.104 66 175 0
14:59:35.1 65 83 2:47.819 25.742 65 173 0
15:02:15.7 66 84 2:40.650 26.891 68 173 0
15:04:58.9 67 85 2:43.139 26.480 65 171 0
15:07:45.6 68 86 2:46.713 25.913 68 172 0
15:10:37.4 69 88 2:51.842 25.139 67 173 0
15:13:23.1 70 89 2:45.737 26.065 66 173 0
15:16:18.9 71 90 2:55.763 24.579 68 173 0
15:19:00.5 72 91 2:41.586 26.735 69 173 0
15:22:48.1 73 93 3:47.567 18.983 78 185 0
15:26:03.0 74 95 3:14.900 22.165 64 172 0
15:29:08.3 75 95 3:05.328 23.310 68 171 0
15:32:06.3 76 97 2:57.999 24.270 70 173 0
15:35:07.5 77 98 3:01.255 23.834 69 172 0
15:38:17.3 78 100 3:09.804 22.760 69 171 0
15:41:13.9 79 101 2:56.588 24.464 69 174 0
15:44:08.6 80 102 2:54.683 24.731 66 172 0
15:47:06.0 81 104 2:57.394 24.353 68 171 0
15:51:27.0 82 106 4:20.959 16.554 78 184 0
15:54:17.8 83 107 2:50.848 25.286 66 171 0
15:57:03.1 84 108 2:45.302 26.134 65 170 0
15:59:44.8 85 110 2:41.652 26.724 66 170 0
16:02:28.0 86 111 2:43.265 26.460 66 170 0
16:05:11.8 87 112 2:43.727 26.385 66 171 0
16:07:56.6 88 113 2:44.784 26.216 69 173 0
16:10:43.3 89 115 2:46.757 25.906 68 171 0
16:13:32.4 90 116 2:49.121 25.544 67 171 0
16:16:19.9 91 117 2:47.511 25.789 67 170 0
16:19:09.3 92 118 2:49.407 25.501 68 170 0
16:23:06.0 93 120 3:56.614 18.258 77 181 0
16:26:00.7 94 121 2:54.768 24.718 65 172 0
16:28:52.3 95 123 2:51.554 25.182 66 173 0
16:31:50.3 96 124 2:58.028 24.266 69 172 0
16:35:45.2 97 126 3:54.840 18.396 78 183 0
16:38:19.7 98 127 2:34.563 27.950 65 171 0
16:40:52.2 99 128 2:32.477 28.332 64 172 0
16:43:20.7 100 129 2:28.469 29.097 63 171 0
16:45:48.4 101 130 2:27.755 29.238 64 170 0
16:49:40.4 102 132 3:52.020 18.619 77 182 0
16:52:25.3 103 133 2:44.898 26.198 64 169 0
16:55:09.8 104 134 2:44.463 26.267 66 173 0
16:59:07.9 105 135 3:58.101 18.144 79 182 0
17:01:54.3 106 136 2:46.414 25.959 67 170 0
17:04:44.1 107 137 2:49.748 25.449 67 171 0
17:08:54.3 108 139 4:10.262 17.262 79 181 0
17:11:33.8 109 141 2:39.499 27.085 62 170 0
17:14:11.1 110 142 2:37.265 27.470 63 169 0
17:16:57.5 111 143 2:46.455 25.953 67 171 0
17:20:40.3 112 145 3:42.753 19.394 77 184 0
17:23:26.6 113 146 2:46.267 25.982 70 171 0
17:26:03.5 114 148 2:36.894 27.535 63 170 0
17:28:41.7 115 149 2:38.269 27.295 65 168 0
17:31:22.9 116 150 2:41.206 26.798 64 167 0
17:34:02.5 117 151 2:39.548 27.076 64 169 0
17:36:36.9 118 153 2:34.397 27.980 66 169 0
17:39:19.9 119 154 2:43.071 26.492 65 169 0
17:43:07.9 120 156 3:47.964 18.950 83 183 0
17:45:38.0 121 157 2:30.061 28.788 60 171 0
17:48:07.8 122 158 2:29.866 28.826 63 167 0
17:50:38.9 123 159 2:31.023 28.605 64 169 0
17:54:04.5 124 161 3:25.604 21.011 79 186 0
17:56:29.7 125 162 2:25.193 29.754 62 169 0
17:58:49.7 126 163 2:20.077 30.840 61 170 0
18:01:11.3 127 164 2:21.560 30.517 62 169 0
45 - Poison Instinct Racing - Community
12:01:39.6 1 1 2:25.001 29.793 57 133 0
12:04:03.8 2 2 2:24.209 29.957 59 132 0
12:06:31.2 3 3 2:27.396 29.309 59 134 0
12:08:57.1 4 4 2:25.848 29.620 59 132 0
12:11:25.9 5 6 2:28.777 29.037 61 133 0
12:13:56.6 6 7 2:30.707 28.665 59 136 0
12:16:27.5 7 8 2:30.882 28.632 62 133 0
12:19:00.2 8 9 2:32.720 28.287 62 133 0
12:21:32.2 9 10 2:32.063 28.409 60 133 0
12:24:03.9 10 12 2:31.679 28.481 59 133 0
12:26:37.5 11 13 2:33.572 28.130 61 132 0
12:29:05.8 12 14 2:28.305 29.129 63 133 0
12:31:29.7 13 15 2:23.874 30.026 61 135 0
12:33:55.2 14 16 2:25.523 29.686 60 137 0
12:36:20.2 15 18 2:24.979 29.797 59 136 0
12:38:49.5 16 19 2:29.312 28.933 60 136 0
12:41:24.0 17 20 2:34.564 27.950 63 135 0
12:43:55.7 18 21 2:31.609 28.494 61 133 0
12:46:34.0 19 22 2:38.334 27.284 65 135 0
12:49:14.6 20 24 2:40.563 26.905 63 133 0
12:51:47.4 21 25 2:32.877 28.258 60 132 0
12:54:23.5 22 26 2:36.115 27.672 60 133 0
12:56:55.3 23 27 2:31.730 28.472 59 135 0
12:59:27.8 24 29 2:32.505 28.327 57 133 0
13:02:03.2 25 30 2:35.390 27.801 62 134 0
13:04:41.3 26 31 2:38.159 27.314 63 134 0
13:07:18.7 27 32 2:37.407 27.445 61 134 0
13:10:01.2 28 34 2:42.514 26.582 62 133 0
13:12:39.5 29 35 2:38.211 27.305 58 133 0
13:15:02.1 30 35 2:22.601 30.294 58 136 0
13:20:05.0 31 38 5:02.937 14.260 62 134 0
13:22:59.8 32 39 2:54.760 24.720 65 135 0
13:25:53.6 33 41 2:53.876 24.845 64 134 0
13:28:47.8 34 42 2:54.143 24.807 62 136 0
13:31:41.5 35 43 2:53.772 24.860 63 134 0
13:34:35.9 36 45 2:54.313 24.783 66 135 0
13:37:32.6 37 46 2:56.784 24.437 55 137 0
13:40:30.1 38 47 2:57.495 24.339 65 136 0
13:43:28.3 39 49 2:58.155 24.249 65 133 0
13:46:25.1 40 50 2:56.769 24.439 65 135 0
13:49:25.7 41 51 3:00.680 23.910 67 135 0
13:52:29.2 42 53 3:03.476 23.545 65 135 0
13:55:34.8 43 54 3:05.576 23.279 66 134 0
13:58:39.2 44 56 3:04.366 23.432 64 135 0
14:01:46.9 45 57 3:07.738 23.011 65 136 0
14:04:54.4 46 58 3:07.522 23.037 68 136 0
14:09:17.6 47 60 4:23.128 16.418 64 137 0
14:11:51.5 48 61 2:33.963 28.059 58 136 0
14:14:27.0 49 63 2:35.500 27.781 57 135 0
14:17:05.0 50 63 2:37.949 27.351 64 135 0
14:19:41.9 51 64 2:36.918 27.530 61 134 0
14:22:17.6 52 66 2:35.766 27.734 62 135 0
14:24:59.3 53 67 2:41.625 26.729 64 135 0
14:27:40.5 54 68 2:41.208 26.798 64 139 0
14:30:23.8 55 69 2:43.292 26.456 59 135 0
14:33:05.4 56 71 2:41.616 26.730 64 135 0
14:35:45.7 57 72 2:40.311 26.948 65 137 0
14:38:25.1 58 73 2:39.416 27.099 65 136 0
14:42:51.4 59 75 4:26.288 16.223 61 133 0
14:45:22.5 60 76 2:31.078 28.595 61 135 0
14:47:53.2 61 77 2:30.704 28.665 60 136 0
14:50:28.8 62 78 2:35.663 27.752 62 135 0
14:53:03.8 63 80 2:34.916 27.886 62 135 0
14:55:39.1 64 81 2:35.383 27.802 62 133 0
14:58:20.6 65 82 2:41.411 26.764 64 135 0
15:01:01.0 66 83 2:40.459 26.923 64 133 0
15:03:39.7 67 84 2:38.705 27.220 63 135 0
15:06:26.9 68 86 2:47.206 25.836 64 137 0
15:09:17.9 69 87 2:50.958 25.269 64 134 0
15:12:10.3 70 88 2:52.433 25.053 67 135 0
15:15:06.1 71 90 2:55.739 24.582 66 136 0
15:17:53.3 72 91 2:47.225 25.833 63 135 0
15:21:17.4 73 92 3:24.095 21.167 69 136 0
15:24:03.4 74 94 2:45.975 26.028 62 136 0
15:28:47.9 75 95 4:44.518 15.184 60 136 0
15:31:42.7 76 97 2:54.811 24.712 67 136 0
15:34:42.6 77 98 2:59.924 24.010 68 136 0
15:37:48.3 78 99 3:05.707 23.262 65 135 0
15:40:50.5 79 101 3:02.181 23.713 67 136 0
15:43:53.5 80 102 3:03.040 23.601 68 135 0
15:46:58.4 81 104 3:04.828 23.373 64 136 0
15:50:25.5 82 105 3:27.157 20.854 69 135 0
15:53:36.2 83 107 3:10.719 22.651 65 136 0
15:56:47.9 84 108 3:11.632 22.543 68 134 0
16:00:02.9 85 110 3:15.043 22.149 68 136 0
16:03:16.4 86 111 3:13.438 22.333 69 136 0
16:06:32.3 87 113 3:15.937 22.048 70 136 0
16:09:51.5 88 114 3:19.171 21.690 71 135 0
16:13:14.1 89 116 3:22.620 21.321 70 136 0
16:16:39.0 90 117 3:24.939 21.079 69 136 0
16:20:02.4 91 119 3:23.340 21.245 70 135 0
16:24:50.1 92 121 4:47.731 15.014 66 134 0
16:27:39.8 93 122 2:49.679 25.460 57 134 0
16:30:25.6 94 123 2:45.855 26.047 64 134 0
16:33:09.9 95 125 2:44.289 26.295 64 133 0
16:35:52.9 96 126 2:42.998 26.503 68 135 0
16:38:41.0 97 127 2:48.091 25.700 65 136 0
16:41:27.9 98 128 2:46.906 25.883 66 135 0
16:44:15.3 99 130 2:47.401 25.806 67 135 0
16:47:05.2 100 131 2:49.940 25.421 68 134 0
16:49:54.6 101 132 2:49.365 25.507 65 134 0
16:52:44.5 102 133 2:49.929 25.422 65 135 0
16:55:32.1 103 135 2:47.575 25.780 64 134 0
16:58:26.6 104 135 2:54.511 24.755 61 134 0
17:01:17.3 105 136 2:50.703 25.307 65 135 0
17:04:06.7 106 137 2:49.379 25.505 65 134 0
17:06:55.1 107 138 2:48.340 25.662 63 136 0
17:09:37.2 108 140 2:42.157 26.641 64 135 0
17:13:37.1 109 142 3:59.940 18.005 60 133 0
17:16:11.9 110 143 2:34.743 27.917 59 134 0
17:18:50.4 111 144 2:38.508 27.254 63 133 0
17:21:26.9 112 145 2:36.462 27.611 64 133 0
17:24:06.8 113 147 2:39.907 27.016 62 132 0
17:26:52.0 114 148 2:45.209 26.149 63 133 0
17:29:34.6 115 149 2:42.616 26.566 63 132 0
17:32:16.2 116 151 2:41.611 26.731 62 133 0
17:35:03.1 117 152 2:46.879 25.887 67 133 0
17:37:49.3 118 153 2:46.184 25.995 64 133 0
17:40:40.6 119 154 2:51.321 25.216 67 133 0
17:43:38.6 120 156 2:58.037 24.265 64 132 0
17:46:32.8 121 157 2:54.216 24.797 66 133 0
17:49:22.8 122 158 2:49.976 25.415 66 132 0
17:52:21.4 123 160 2:58.554 24.194 68 133 0
17:55:07.0 124 161 2:45.662 26.077 66 133 0
17:57:48.4 125 162 2:41.370 26.771 64 133 0
18:00:19.9 126 163 2:31.532 28.509 63 132 0
18:03:14.1 127 164 2:54.136 24.808 72 136 0
3 - POW Woodleigh - Community
12:02:31.0 1 1 3:14.550 22.205 60 161 0
12:05:36.9 2 3 3:05.921 23.236 61 163 0
12:08:36.2 3 4 2:59.343 24.088 59 161 0
12:11:32.4 4 6 2:56.231 24.513 60 163 0
12:14:27.2 5 7 2:54.735 24.723 60 160 0
12:17:22.1 6 8 2:54.924 24.696 60 159 0
12:20:17.0 7 10 2:54.887 24.702 61 160 0
12:23:06.9 8 11 2:49.911 25.425 59 161 0
12:25:52.4 9 13 2:45.515 26.100 60 161 0
12:31:02.3 10 15 5:09.839 13.943 60 162 0
12:34:00.1 11 16 2:57.840 24.291 61 163 0
12:36:56.7 12 18 2:56.609 24.461 62 164 0
12:39:54.8 13 19 2:58.122 24.253 62 163 0
12:42:58.7 14 21 3:03.856 23.497 61 161 0
12:46:04.8 15 22 3:06.101 23.213 61 162 0
12:49:09.4 16 24 3:04.616 23.400 59 164 0
12:52:16.2 17 25 3:06.786 23.128 62 162 0
12:55:15.0 18 27 2:58.777 24.164 62 162 0
12:59:55.3 19 29 4:40.316 15.411 57 160 0
13:02:29.1 20 30 2:33.841 28.081 58 160 0
13:05:01.9 21 31 2:32.759 28.280 58 160 0
13:07:33.0 22 32 2:31.133 28.584 56 162 0
13:10:12.5 23 34 2:39.498 27.085 60 162 0
13:12:56.0 24 35 2:43.461 26.428 59 160 0
13:15:37.5 25 36 2:41.494 26.750 58 162 0
13:18:18.6 26 37 2:41.100 26.816 59 162 0
13:20:58.6 27 38 2:39.989 27.002 57 160 0
13:23:36.9 28 40 2:38.324 27.286 60 160 0
13:26:17.8 29 41 2:40.933 26.843 58 159 0
13:28:57.6 30 42 2:39.755 27.041 58 163 0
13:31:36.9 31 43 2:39.293 27.120 56 163 0
13:34:18.3 32 45 2:41.475 26.753 56 161 0
13:36:57.0 33 46 2:38.666 27.227 59 159 0
13:40:48.3 34 48 3:51.290 18.678 54 161 0
13:43:11.6 35 49 2:23.315 30.143 55 161 0
13:45:34.2 36 50 2:22.598 30.295 56 158 0
13:48:00.3 37 51 2:26.125 29.564 55 158 0
13:50:28.7 38 52 2:28.339 29.122 55 158 0
13:52:55.4 39 53 2:26.720 29.444 56 159 0
13:55:26.4 40 54 2:30.972 28.615 55 158 0
13:57:58.2 41 55 2:31.797 28.459 56 159 0
14:00:34.6 42 56 2:36.399 27.622 59 160 0
14:02:55.1 43 57 2:20.493 30.749 54 160 0
14:05:14.3 44 58 2:19.241 31.025 54 159 0
14:07:35.1 45 59 2:20.774 30.687 55 159 0
14:10:02.5 46 61 2:27.394 29.309 55 159 0
14:12:34.9 47 62 2:32.473 28.333 59 160 0
14:15:15.2 48 63 2:40.312 26.947 60 164 0
14:17:54.6 49 64 2:39.395 27.102 58 160 0
14:20:30.6 50 65 2:35.983 27.695 57 161 0
14:23:03.0 51 66 2:32.406 28.345 55 159 0
14:25:31.7 52 67 2:28.631 29.065 56 161 0
14:28:03.0 53 68 2:31.333 28.546 57 161 0
14:30:34.4 54 69 2:31.432 28.528 58 160 0
14:33:10.0 55 71 2:35.582 27.767 57 160 0
14:35:47.2 56 72 2:37.162 27.488 57 160 0
14:38:24.6 57 73 2:37.395 27.447 58 162 0
14:41:04.7 58 74 2:40.178 26.970 59 159 0
14:43:43.5 59 75 2:38.751 27.212 59 160 0
14:46:23.0 60 77 2:39.517 27.082 58 161 0
14:48:57.0 61 78 2:34.018 28.049 57 160 0
14:51:35.3 62 79 2:38.279 27.294 59 161 0
14:55:51.5 63 81 4:16.184 16.863 59 162 0
14:58:46.9 64 82 2:55.392 24.631 59 162 0
15:01:57.1 65 84 3:10.183 22.715 60 163 0
15:05:15.5 66 85 3:18.384 21.776 61 163 0
15:08:32.2 67 87 3:16.774 21.954 62 162 0
15:11:55.0 68 88 3:22.757 21.306 61 163 0
15:15:14.1 69 90 3:19.156 21.692 65 165 0
15:18:27.0 70 91 3:12.835 22.403 62 161 0
15:21:46.5 71 93 3:19.561 21.648 63 165 0
15:25:03.1 72 94 3:16.527 21.982 62 164 0
15:29:37.2 73 96 4:34.153 15.758 58 162 0
15:32:16.0 74 97 2:38.795 27.205 58 160 0
15:34:56.1 75 98 2:40.097 26.984 60 162 0
15:37:38.4 76 99 2:42.334 26.612 59 160 0
15:40:16.6 77 101 2:38.189 27.309 57 160 0
15:42:52.8 78 102 2:36.184 27.660 56 160 0
15:45:34.0 79 103 2:41.150 26.807 53 161 0
15:48:14.4 80 104 2:40.444 26.925 57 159 0
15:50:55.7 81 106 2:41.332 26.777 57 159 0
15:53:35.2 82 107 2:39.416 27.099 59 160 0
15:56:14.1 83 108 2:38.904 27.186 57 160 0
15:58:59.0 84 109 2:44.903 26.197 58 162 0
16:01:45.0 85 110 2:46.027 26.020 56 160 0
16:04:30.2 86 112 2:45.193 26.151 58 160 0
16:07:14.7 87 113 2:44.561 26.252 54 159 0
16:09:58.2 88 114 2:43.497 26.423 57 161 0
16:12:42.2 89 115 2:44.008 26.340 59 159 0
16:15:29.3 90 117 2:47.046 25.861 58 161 0
16:18:18.6 91 118 2:49.281 25.520 59 161 0
16:21:09.1 92 119 2:50.531 25.333 61 160 0
16:24:01.3 93 120 2:52.167 25.092 60 160 0
16:26:55.9 94 122 2:54.637 24.737 59 162 0
16:29:50.7 95 123 2:54.789 24.716 60 161 0
16:32:44.7 96 124 2:54.038 24.822 59 160 0
16:36:44.2 97 126 3:59.457 18.041 57 160 0
16:39:24.7 98 127 2:40.467 26.921 58 159 0
16:42:12.0 99 129 2:47.296 25.822 61 160 0
16:45:01.2 100 130 2:49.260 25.523 59 160 0
16:47:51.4 101 131 2:50.205 25.381 59 160 0
16:50:43.8 102 133 2:52.386 25.060 61 160 0
16:53:35.8 103 134 2:52.016 25.114 60 161 0
16:56:28.5 104 135 2:52.670 25.019 61 162 0
16:59:24.1 105 135 2:55.594 24.602 61 161 0
17:02:17.1 106 136 2:53.055 24.963 61 161 0
17:05:14.1 107 138 2:57.000 24.407 60 161 0
17:08:17.3 108 139 3:03.107 23.593 61 162 0
17:11:12.1 109 140 2:54.840 24.708 60 161 0
17:14:08.6 110 142 2:56.491 24.477 61 162 0
17:17:06.6 111 143 2:57.987 24.271 51 161 0
17:21:23.6 112 145 4:16.987 16.810 60 159 0
17:24:17.1 113 147 2:53.566 24.890 59 162 0
17:27:13.3 114 148 2:56.185 24.520 60 162 0
17:30:11.1 115 150 2:57.763 24.302 59 160 0
17:33:11.0 116 151 2:59.928 24.010 60 161 0
17:36:09.8 117 152 2:58.830 24.157 61 162 0
17:39:12.7 118 154 3:02.889 23.621 62 162 0
17:42:16.9 119 155 3:04.180 23.455 61 161 0
17:45:21.8 120 157 3:04.865 23.368 61 163 0
17:48:28.4 121 158 3:06.671 23.142 61 160 0
17:51:37.3 122 159 3:08.916 22.867 60 164 0
17:54:48.6 123 161 3:11.220 22.592 64 161 0
17:58:01.8 124 162 3:13.196 22.361 59 164 0
18:01:11.1 125 164 3:09.348 22.815 56 160 0
56 - Uno Crusoe College - B2 (YR9-10)
12:01:39.4 1 1 2:23.470 30.111 52 120 0
12:04:03.3 2 2 2:23.894 30.022 56 120 0
12:06:37.5 3 3 2:34.220 28.012 56 122 0
12:09:13.7 4 4 2:36.275 27.644 56 118 0
12:11:50.9 5 6 2:37.154 27.489 60 119 0
12:14:26.1 6 7 2:35.158 27.843 59 119 0
12:17:01.0 7 8 2:34.978 27.875 59 116 0
12:19:33.9 8 10 2:32.891 28.255 57 120 0
12:22:12.1 9 11 2:38.127 27.320 53 121 0
12:24:39.8 10 12 2:27.773 29.234 59 121 0
12:27:24.3 11 13 2:44.450 26.269 61 122 0
12:31:18.1 12 15 3:53.848 18.474 84 132 0
12:33:35.6 13 16 2:17.434 31.433 58 117 0
12:35:56.2 14 17 2:20.616 30.722 53 119 0
12:38:22.2 15 19 2:26.030 29.583 58 119 0
12:40:51.1 16 20 2:28.907 29.011 47 121 0
12:43:23.1 17 21 2:31.991 28.423 55 122 0
12:45:59.2 18 22 2:36.133 27.669 57 117 0
12:49:40.2 19 24 3:40.943 19.553 82 132 0
12:52:26.1 20 25 2:45.961 26.030 59 121 0
12:55:21.3 21 27 2:55.143 24.666 61 123 0
12:58:26.8 22 28 3:05.536 23.284 64 118 0
13:01:27.7 23 30 3:00.880 23.883 62 120 0
13:04:37.5 24 31 3:09.776 22.764 66 116 0
13:09:06.1 25 33 4:28.647 16.081 82 134 0
13:12:20.2 26 35 3:14.081 22.259 57 119 0
13:14:47.8 27 35 2:27.575 29.273 55 118 0
13:17:22.2 28 37 2:34.465 27.968 58 117 0
13:19:58.9 29 38 2:36.659 27.576 56 119 0
13:22:39.2 30 39 2:40.285 26.952 60 119 0
13:25:17.0 31 40 2:37.789 27.378 59 119 0
13:27:51.1 32 42 2:34.089 28.036 58 121 0
13:32:00.2 33 44 4:09.148 17.339 68 129 0
13:34:40.6 34 45 2:40.421 26.929 59 119 0
13:37:38.9 35 46 2:58.299 24.229 61 119 0
13:40:46.0 36 48 3:07.087 23.091 60 124 0
13:43:48.7 37 49 3:02.670 23.649 61 117 0
13:46:52.9 38 50 3:04.174 23.456 62 119 0
13:49:55.1 39 52 3:02.251 23.704 60 122 0
13:54:17.2 40 53 4:22.045 16.486 82 132 0
13:56:45.4 41 55 2:28.193 29.151 57 118 0
13:59:14.1 42 56 2:28.718 29.048 56 112 0
14:01:47.1 43 57 2:32.991 28.237 51 126 0
14:04:22.5 44 58 2:35.474 27.786 56 119 0
14:06:57.8 45 59 2:35.262 27.824 57 116 0
14:09:40.3 46 60 2:42.518 26.582 56 119 0
14:12:17.0 47 62 2:36.730 27.563 54 122 0
14:15:01.2 48 63 2:44.106 26.324 60 122 0
14:17:43.1 49 64 2:41.966 26.672 56 120 0
14:20:22.3 50 65 2:39.193 27.137 61 120 0
14:24:27.5 51 67 4:05.224 17.617 84 139 0
14:27:23.2 52 68 2:55.669 24.592 61 120 0
14:30:11.2 53 69 2:47.974 25.718 60 118 0
14:33:09.0 54 71 2:57.828 24.293 60 122 0
14:36:04.0 55 72 2:54.990 24.687 57 119 0
14:39:03.3 56 73 2:59.322 24.091 63 119 0
14:43:00.8 57 75 3:57.436 18.194 83 137 0
14:45:44.2 58 76 2:43.417 26.435 60 119 0
14:48:26.2 59 78 2:42.062 26.656 60 119 0
14:51:05.2 60 79 2:38.917 27.184 60 117 0
14:53:35.6 61 80 2:30.469 28.710 58 121 0
14:56:15.2 62 81 2:39.573 27.072 57 122 0
14:58:52.2 63 82 2:37.052 27.507 58 115 0
15:01:24.7 64 83 2:32.494 28.329 60 120 0
15:03:56.0 65 84 2:31.302 28.552 59 119 0
15:06:37.2 66 86 2:41.171 26.804 61 119 0
15:09:26.5 67 87 2:49.289 25.518 62 119 0
15:12:17.6 68 88 2:51.062 25.254 61 120 0
15:15:07.0 69 90 2:49.455 25.493 60 117 0
15:19:03.2 70 91 3:56.223 18.288 78 134 0
15:21:55.6 71 93 2:52.336 25.067 59 120 0
15:24:51.5 72 94 2:55.954 24.552 63 121 0
15:28:03.4 73 95 3:11.855 22.517 64 123 0
15:31:22.1 74 96 3:18.703 21.741 65 118 0
15:35:23.7 75 98 4:01.618 17.879 83 132 0
15:37:47.1 76 99 2:23.406 30.124 60 115 0
15:40:12.3 77 101 2:25.207 29.751 53 118 0
15:42:49.3 78 102 2:37.027 27.511 60 116 0
15:45:34.1 79 103 2:44.745 26.222 57 118 0
15:48:13.9 80 104 2:39.811 27.032 58 117 0
15:51:58.5 81 106 3:44.578 19.236 58 117 0
15:54:29.1 82 107 2:30.634 28.679 56 117 0
15:57:01.8 83 108 2:32.636 28.303 57 117 0
15:59:42.9 84 110 2:41.159 26.806 56 118 0
16:02:22.4 85 111 2:39.469 27.090 53 113 0
16:05:04.5 86 112 2:42.159 26.641 59 115 0
16:07:52.7 87 113 2:48.122 25.696 58 120 0
16:11:39.8 88 115 3:47.130 19.020 69 128 0
16:14:33.2 89 116 2:53.366 24.918 64 120 0
16:17:51.8 90 118 3:18.611 21.751 66 120 0
16:22:17.6 91 120 4:25.789 16.253 84 132 0
16:25:01.9 92 121 2:44.387 26.279 57 115 0
16:27:36.7 93 122 2:34.794 27.908 57 117 0
16:30:17.5 94 123 2:40.723 26.879 59 119 0
16:33:07.4 95 125 2:49.985 25.414 61 118 0
16:35:56.7 96 126 2:49.261 25.523 60 119 0
16:38:44.6 97 127 2:47.843 25.738 55 120 0
16:42:40.1 98 129 3:55.521 18.342 66 127 0
16:45:42.7 99 130 3:02.658 23.651 61 117 0
16:48:53.1 100 132 3:10.358 22.694 62 118 0
16:52:06.3 101 133 3:13.246 22.355 65 116 0
16:58:19.0 102 135 6:12.653 11.593 72 130 0
17:00:52.8 103 136 2:33.803 28.088 57 117 0
17:03:29.2 104 137 2:36.371 27.627 57 119 0
17:06:15.1 105 138 2:45.911 26.038 59 118 0
17:09:02.5 106 139 2:47.427 25.802 60 119 0
17:12:49.7 107 141 3:47.208 19.013 74 127 0
17:15:44.4 108 143 2:54.667 24.733 63 118 0
17:18:44.0 109 144 2:59.577 24.057 62 119 0
17:22:38.3 110 146 3:54.339 18.435 74 131 0
17:25:28.2 111 147 2:49.913 25.425 59 118 0
17:28:14.5 112 149 2:46.297 25.978 59 118 0
17:30:51.0 113 150 2:36.532 27.598 61 116 0
17:33:28.4 114 151 2:37.342 27.456 48 115 0
17:36:08.2 115 152 2:39.816 27.031 59 118 0
17:38:47.2 116 154 2:38.978 27.174 59 115 0
17:42:34.5 117 155 3:47.356 19.001 81 131 0
17:45:21.3 118 157 2:46.728 25.910 58 117 0
17:48:02.9 119 158 2:41.681 26.719 58 121 0
17:50:38.9 120 159 2:35.954 27.700 55 115 0
17:53:15.7 121 160 2:36.853 27.542 58 119 0
17:55:59.5 122 161 2:43.736 26.384 60 120 0
17:58:36.7 123 163 2:37.248 27.473 59 119 0
18:01:16.5 124 164 2:39.744 27.043 61 118 0
35 - Twos a Party Bendigo Senior SC - Open
12:01:31.6 1 1 2:18.875 31.107 58 149 0
12:03:56.8 2 2 2:25.252 29.741 50 144 0
12:06:24.2 3 3 2:27.378 29.312 55 145 0
12:08:50.6 4 4 2:26.331 29.522 54 148 0
12:11:21.5 5 6 2:30.941 28.620 59 148 0
12:13:52.9 6 7 2:31.384 28.537 58 148 0
12:16:26.1 7 8 2:33.235 28.192 59 145 0
12:19:02.5 8 9 2:36.417 27.618 57 147 0
12:21:38.5 9 11 2:36.003 27.692 60 148 0
12:24:15.7 10 12 2:37.127 27.494 57 149 0
12:26:50.2 11 13 2:34.545 27.953 61 149 0
12:29:25.8 12 14 2:35.625 27.759 59 147 0
12:32:01.6 13 15 2:35.811 27.726 60 148 0
12:34:43.9 14 17 2:42.207 26.633 60 148 0
12:37:26.8 15 18 2:42.920 26.516 64 148 0
12:40:05.7 16 19 2:38.888 27.189 62 148 0
12:42:44.3 17 21 2:38.635 27.232 60 148 0
12:45:25.0 18 22 2:40.664 26.888 58 146 0
12:48:07.4 19 23 2:42.480 26.588 60 147 0
12:50:49.8 20 24 2:42.345 26.610 59 148 0
12:53:29.8 21 26 2:40.041 26.993 57 147 0
12:56:08.2 22 27 2:38.402 27.272 58 147 0
12:58:41.7 23 28 2:33.505 28.142 58 149 0
13:01:12.8 24 29 2:31.056 28.599 56 147 0
13:03:45.6 25 31 2:32.778 28.276 59 149 0
13:06:21.5 26 32 2:35.972 27.697 58 147 0
13:08:59.1 27 33 2:37.520 27.425 60 147 0
13:11:35.8 28 34 2:36.758 27.558 62 148 0
13:14:12.2 29 35 2:36.423 27.617 60 147 0
13:18:22.3 30 37 4:10.054 17.276 79 161 0
13:20:59.4 31 38 2:37.081 27.502 57 147 0
13:23:33.1 32 40 2:33.713 28.104 62 151 0
13:26:10.9 33 41 2:37.825 27.372 58 147 0
13:28:50.9 34 42 2:39.942 27.010 59 148 0
13:31:36.6 35 43 2:45.744 26.064 59 147 0
13:34:21.5 36 45 2:44.881 26.201 64 147 0
13:37:15.9 37 46 2:54.403 24.770 64 147 0
13:40:10.3 38 47 2:54.400 24.771 64 147 0
13:43:05.1 39 49 2:54.851 24.707 50 147 0
13:45:57.9 40 50 2:52.741 25.009 63 149 0
13:48:50.9 41 51 2:53.006 24.970 63 150 0
13:51:39.1 42 52 2:48.261 25.674 63 144 0
13:54:28.0 43 54 2:48.874 25.581 63 145 0
13:57:23.0 44 55 2:54.995 24.686 61 147 0
14:00:15.0 45 56 2:52.004 25.116 62 146 0
14:03:04.7 46 57 2:49.699 25.457 61 147 0
14:05:53.3 47 59 2:48.622 25.619 63 149 0
14:08:47.0 48 60 2:53.633 24.880 64 146 0
14:11:37.4 49 61 2:50.425 25.348 63 145 0
14:15:48.7 50 63 4:11.354 17.187 84 162 0
14:19:38.3 51 64 3:49.581 18.817 58 147 0
14:22:23.5 52 66 2:45.197 26.151 61 147 0
14:25:09.4 53 67 2:45.895 26.041 62 147 0
14:27:51.7 54 68 2:42.310 26.616 61 147 0
14:30:30.7 55 69 2:38.946 27.179 61 147 0
14:33:12.7 56 71 2:42.025 26.663 60 147 0
14:35:53.5 57 72 2:40.790 26.867 62 146 0
14:38:38.7 58 73 2:45.207 26.149 59 147 0
14:41:25.7 59 74 2:47.011 25.867 62 146 0
14:44:10.9 60 76 2:45.176 26.154 61 147 0
14:46:55.0 61 77 2:44.148 26.318 62 147 0
14:55:40.6 62 81 8:45.594 8.219 83 162 0
14:58:42.8 63 82 3:02.164 23.715 65 149 0
15:01:29.7 64 83 2:46.913 25.882 64 148 0
15:04:12.3 65 85 2:42.634 26.563 65 147 0
15:07:02.5 66 86 2:50.131 25.392 64 145 0
15:11:50.9 67 88 4:48.386 14.980 76 159 0
15:14:33.2 68 89 2:42.384 26.604 60 146 0
15:17:10.5 69 91 2:37.213 27.479 62 146 0
15:19:53.9 70 92 2:43.449 26.430 64 146 0
15:22:41.4 71 93 2:47.545 25.784 63 146 0
15:25:35.7 72 94 2:54.223 24.796 65 147 0
15:28:31.2 73 95 2:55.558 24.607 63 146 0
15:31:30.0 74 96 2:58.781 24.164 64 147 0
15:34:19.2 75 98 2:49.185 25.534 66 148 0
15:37:17.5 76 99 2:58.338 24.224 65 146 0
15:40:14.9 77 101 2:57.384 24.354 65 146 0
15:43:16.0 78 102 3:01.094 23.855 65 146 0
15:47:45.2 79 104 4:29.143 16.051 83 161 0
15:51:41.8 80 106 3:56.686 18.252 73 151 0
15:54:42.9 81 107 3:01.017 23.865 67 145 0
15:58:08.0 82 109 3:25.098 21.063 65 145 0
16:01:15.0 83 110 3:07.001 23.101 64 145 0
16:04:17.1 84 112 3:02.105 23.723 64 148 0
16:07:21.4 85 113 3:04.347 23.434 66 146 0
16:10:25.3 86 114 3:03.933 23.487 64 145 0
16:13:29.2 87 116 3:03.894 23.492 66 145 0
16:16:30.2 88 117 3:01.011 23.866 65 145 0
16:19:30.3 89 119 3:00.020 23.997 66 145 0
16:22:26.9 90 120 2:56.586 24.464 63 145 0
16:25:16.9 91 121 2:50.048 25.405 64 145 0
16:28:06.7 92 122 2:49.763 25.447 63 145 0
16:30:59.2 93 124 2:52.506 25.043 66 146 0
16:35:33.9 94 126 4:34.726 15.725 75 157 0
16:38:32.4 95 127 2:58.493 24.203 67 145 0
16:41:21.0 96 128 2:48.596 25.623 64 144 0
16:44:08.4 97 130 2:47.379 25.810 63 146 0
16:46:59.4 98 131 2:51.011 25.262 65 144 0
16:49:58.3 99 132 2:58.908 24.146 67 144 0
16:52:56.3 100 134 2:58.058 24.262 65 146 0
16:56:02.0 101 135 3:05.642 23.271 68 146 0
16:59:00.8 102 135 2:58.828 24.157 67 146 0
17:01:59.6 103 136 2:58.780 24.164 64 144 0
17:05:01.1 104 138 3:01.474 23.805 65 146 0
17:09:44.3 105 140 4:43.287 15.250 82 160 0
17:13:09.9 106 141 3:25.524 21.019 67 146 0
17:16:18.6 107 143 3:08.759 22.886 68 147 0
17:19:14.1 108 144 2:55.491 24.617 64 144 0
17:21:58.4 109 146 2:44.312 26.291 65 146 0
17:25:39.8 110 147 3:41.402 19.512 65 145 0
17:28:26.5 111 149 2:46.693 25.916 62 143 0
17:31:11.2 112 150 2:44.719 26.226 63 143 0
17:33:55.2 113 151 2:43.932 26.352 64 143 0
17:36:40.4 114 153 2:45.203 26.150 61 145 0
17:39:18.1 115 154 2:37.698 27.394 61 144 0
17:41:54.5 116 155 2:36.443 27.614 61 143 0
17:44:33.2 117 156 2:38.693 27.222 61 143 0
17:47:16.7 118 157 2:43.439 26.432 61 143 0
17:49:55.3 119 159 2:38.599 27.239 63 144 0
17:52:38.5 120 160 2:43.199 26.471 61 144 0
17:55:21.9 121 161 2:43.401 26.438 64 144 0
17:58:02.7 122 162 2:40.844 26.858 65 144 0
18:00:43.7 123 164 2:41.035 26.826 61 144 0
70 - Heritage Heritage Racing - Open
12:01:45.7 1 1 2:24.007 29.999 52 149 0
12:04:21.9 2 2 2:36.127 27.670 53 149 0
12:07:04.7 3 3 2:42.883 26.522 58 149 0
12:09:47.6 4 5 2:42.880 26.523 53 151 0
12:12:36.7 5 6 2:49.029 25.558 57 149 0
12:15:22.6 6 7 2:45.938 26.034 57 148 0
12:18:13.5 7 9 2:50.884 25.280 59 149 0
12:21:00.9 8 10 2:47.404 25.806 54 150 0
12:23:53.5 9 12 2:52.613 25.027 55 151 0
12:26:39.4 10 13 2:45.925 26.036 61 152 0
12:29:28.4 11 14 2:48.998 25.562 56 149 0
12:32:53.4 12 16 3:24.967 21.077 81 165 0
12:35:13.3 13 17 2:19.915 30.876 49 149 0
12:37:36.6 14 18 2:23.346 30.137 55 150 0
12:40:10.7 15 19 2:34.085 28.036 58 151 0
12:42:47.8 16 21 2:37.071 27.503 55 150 0
12:45:16.3 17 22 2:28.446 29.101 55 151 0
12:47:45.9 18 23 2:29.615 28.874 57 152 0
12:50:20.3 19 24 2:34.392 27.981 58 151 0
12:53:03.3 20 26 2:42.997 26.504 56 151 0
12:56:59.6 21 27 3:56.383 18.275 77 165 0
12:59:38.8 22 29 2:39.122 27.149 55 152 0
13:02:24.5 23 30 2:45.761 26.062 53 152 0
13:04:59.0 24 31 2:34.476 27.966 57 150 0
13:07:36.3 25 32 2:37.254 27.471 56 150 0
13:11:34.9 26 34 3:58.606 18.105 83 167 0
13:14:13.5 27 35 2:38.681 27.224 56 150 0
13:16:53.9 28 36 2:40.342 26.942 56 152 0
13:19:43.0 29 38 2:49.083 25.550 55 154 0
13:22:30.2 30 39 2:47.237 25.832 59 155 0
13:25:19.4 31 40 2:49.157 25.538 59 154 0
13:28:23.1 32 42 3:03.763 23.509 59 154 0
13:31:22.2 33 43 2:59.115 24.119 56 152 0
13:34:18.5 34 45 2:56.313 24.502 58 155 0
13:37:18.7 35 46 3:00.177 23.976 62 153 0
13:40:27.4 36 47 3:08.680 22.896 61 155 0
13:43:27.8 37 49 3:00.382 23.949 60 153 0
13:46:24.6 38 50 2:56.768 24.439 61 155 0
13:49:27.3 39 51 3:02.733 23.641 58 154 0
13:52:15.5 40 53 2:48.201 25.684 58 155 0
13:55:49.4 41 54 3:33.944 20.192 76 164 0
13:58:24.1 42 55 2:34.685 27.928 56 150 0
14:00:57.1 43 57 2:33.028 28.230 56 150 0
14:03:37.6 44 58 2:40.480 26.919 56 151 0
14:06:20.1 45 59 2:42.502 26.584 55 151 0
14:09:01.9 46 60 2:41.784 26.702 55 151 0
14:11:45.3 47 61 2:43.363 26.444 53 151 0
14:14:27.0 48 63 2:41.745 26.709 51 150 0
14:17:02.4 49 63 2:35.418 27.796 58 152 0
14:19:41.0 50 64 2:38.542 27.248 54 152 0
14:22:22.8 51 66 2:41.792 26.701 58 151 0
14:25:09.8 52 67 2:47.043 25.862 59 151 0
14:29:42.7 53 69 4:32.885 15.831 83 167 0
14:32:44.7 54 70 3:01.975 23.740 58 153 0
14:35:45.0 55 72 3:00.374 23.950 59 152 0
14:38:44.2 56 73 2:59.161 24.112 61 152 0
14:41:56.6 57 75 3:12.363 22.458 63 153 0
14:45:10.9 58 76 3:14.326 22.231 61 153 0
14:48:25.0 59 77 3:14.082 22.259 61 154 0
14:51:45.5 60 79 3:20.561 21.540 57 154 0
14:54:57.5 61 80 3:11.970 22.504 60 153 0
14:58:17.6 62 82 3:20.050 21.595 60 150 0
15:02:46.2 63 84 4:28.592 16.084 82 166 0
15:05:40.8 64 85 2:54.643 24.736 56 151 0
15:08:40.4 65 87 2:59.566 24.058 52 152 0
15:11:50.1 66 88 3:09.779 22.763 56 150 0
15:14:57.4 67 90 3:07.252 23.071 55 151 0
15:17:52.8 68 91 2:55.376 24.633 53 149 0
15:21:06.8 69 92 3:14.037 22.264 57 151 0
15:24:11.9 70 94 3:05.131 23.335 58 152 0
15:28:15.8 71 95 4:03.823 17.718 81 165 0
15:30:32.4 72 96 2:16.675 31.608 50 149 0
15:32:52.7 73 97 2:20.292 30.793 55 150 0
15:35:26.1 74 98 2:33.332 28.174 58 152 0
15:38:06.4 75 100 2:40.390 26.934 53 150 0
15:40:35.8 76 101 2:29.395 28.917 54 150 0
15:43:07.4 77 102 2:31.551 28.505 50 149 0
15:45:44.6 78 103 2:37.159 27.488 56 149 0
15:49:52.1 79 105 4:07.569 17.450 71 163 0
15:53:04.4 80 107 3:12.239 22.472 58 150 0
15:56:15.8 81 108 3:11.449 22.565 56 150 0
15:59:19.6 82 109 3:03.739 23.512 57 152 0
16:02:19.4 83 111 2:59.823 24.024 59 150 0
16:05:04.5 84 112 2:45.108 26.165 55 149 0
16:07:55.8 85 113 2:51.287 25.221 58 148 0
16:10:50.2 86 115 2:54.382 24.773 57 148 0
16:13:47.1 87 116 2:56.944 24.415 58 148 0
16:16:51.2 88 117 3:04.110 23.464 60 150 0
16:19:50.1 89 119 2:58.916 24.145 55 148 0
16:22:44.2 90 120 2:54.113 24.811 58 148 0
16:26:48.9 91 122 4:04.667 17.657 77 163 0
16:29:40.8 92 123 2:51.911 25.129 59 151 0
16:32:29.0 93 124 2:48.227 25.680 55 150 0
16:35:12.0 94 126 2:42.916 26.517 56 151 0
16:38:06.5 95 127 2:54.590 24.744 61 152 0
16:40:59.5 96 128 2:52.999 24.971 54 151 0
16:43:50.4 97 129 2:50.858 25.284 59 152 0
16:46:45.8 98 131 2:55.371 24.633 63 152 0
16:49:48.3 99 132 3:02.479 23.674 62 153 0
16:52:52.8 100 133 3:04.584 23.404 61 153 0
16:55:59.7 101 135 3:06.850 23.120 59 153 0
16:59:01.9 102 135 3:02.231 23.706 59 151 0
17:02:05.0 103 136 3:03.079 23.596 60 153 0
17:05:06.6 104 138 3:01.556 23.794 60 149 0
17:07:55.1 105 139 2:48.535 25.633 59 149 0
17:10:49.2 106 140 2:54.156 24.805 59 152 0
17:13:46.7 107 142 2:57.450 24.345 59 152 0
17:17:29.9 108 143 3:43.165 19.358 65 158 0
17:19:48.1 109 145 2:18.225 31.253 51 147 0
17:22:14.1 110 146 2:26.057 29.577 54 148 0
17:24:47.6 111 147 2:33.489 28.145 52 147 0
17:27:20.7 112 148 2:33.093 28.218 57 147 0
17:30:05.2 113 149 2:44.515 26.259 57 147 0
17:32:51.2 114 151 2:46.013 26.022 57 148 0
17:35:31.9 115 152 2:40.682 26.885 57 148 0
17:38:12.7 116 153 2:40.746 26.875 58 147 0
17:42:19.3 117 155 4:06.651 17.515 80 164 0
17:45:17.0 118 157 2:57.674 24.314 57 149 0
17:48:32.0 119 158 3:15.005 22.153 60 150 0
17:51:50.8 120 160 3:18.789 21.732 60 150 0
17:55:15.6 121 161 3:24.789 21.095 58 152 0
17:58:37.8 122 163 3:22.246 21.360 56 149 0
18:02:03.5 123 164 3:25.629 21.009 59 148 0
49 - Big Bird 1 Big Bird Racing - Community
12:01:31.8 1 1 2:19.386 30.993 58 165 0
12:04:00.1 2 2 2:28.291 29.132 57 165 0
12:06:31.6 3 3 2:31.495 28.516 58 167 0
12:09:01.0 4 4 2:29.494 28.897 58 166 0
12:11:31.1 5 6 2:30.052 28.790 58 168 0
12:14:01.9 6 7 2:30.779 28.651 58 166 0
12:16:33.2 7 8 2:31.281 28.556 61 169 0
12:19:06.3 8 9 2:33.107 28.216 61 166 0
12:21:40.2 9 11 2:33.973 28.057 61 166 0
12:24:15.9 10 12 2:35.629 27.758 58 167 0
12:26:49.8 11 13 2:33.894 28.071 60 168 0
12:29:24.1 12 14 2:34.300 27.997 60 169 0
12:31:58.8 13 15 2:34.712 27.923 62 168 0
12:34:34.8 14 17 2:35.976 27.697 59 170 0
12:38:38.9 15 19 4:04.188 17.691 83 184 0
12:41:54.0 16 20 3:15.078 22.145 63 167 0
12:44:54.0 17 22 2:59.960 24.005 65 170 0
12:47:58.4 18 23 3:04.409 23.426 66 169 0
12:51:02.7 19 25 3:04.287 23.442 62 167 0
12:54:05.2 20 26 3:02.505 23.671 64 167 0
12:57:07.7 21 28 3:02.528 23.668 65 168 0
13:00:08.3 22 29 3:00.608 23.919 64 170 0
13:03:09.4 23 30 3:01.093 23.855 64 168 0
13:06:08.2 24 32 2:58.825 24.158 60 172 0
13:09:06.6 25 33 2:58.344 24.223 58 171 0
13:12:15.2 26 35 3:08.652 22.899 64 169 0
13:15:17.7 27 36 3:02.431 23.680 63 166 0
13:18:14.1 28 37 2:56.440 24.484 63 170 0
13:21:10.9 29 39 2:56.766 24.439 63 169 0
13:24:07.0 30 40 2:56.148 24.525 63 168 0
13:28:49.3 31 42 4:42.280 15.304 84 182 0
13:31:38.4 32 43 2:49.120 25.544 63 172 0
13:34:19.0 33 45 2:40.609 26.898 62 169 0
13:36:49.9 34 46 2:30.868 28.634 56 168 0
13:39:20.3 35 47 2:30.421 28.719 59 168 0
13:41:52.7 36 48 2:32.428 28.341 59 166 0
13:44:23.0 37 49 2:30.275 28.747 58 165 0
13:46:56.5 38 50 2:33.528 28.138 62 172 0
13:49:33.7 39 51 2:37.130 27.493 59 169 0
13:52:10.1 40 53 2:36.441 27.614 61 170 0
13:54:41.4 41 54 2:31.302 28.552 59 168 0
13:57:14.2 42 55 2:32.783 28.275 61 167 0
13:59:57.8 43 56 2:43.608 26.405 58 167 0
14:02:27.5 44 57 2:29.741 28.850 61 169 0
14:05:00.7 45 58 2:33.149 28.208 60 167 0
14:07:34.7 46 59 2:34.031 28.046 60 167 0
14:10:08.3 47 61 2:33.573 28.130 57 166 0
14:14:38.5 48 63 4:30.174 15.990 84 185 0
14:17:22.3 49 63 2:43.858 26.364 61 169 0
14:20:08.7 50 65 2:46.380 25.965 61 172 0
14:23:00.6 51 66 2:51.910 25.129 65 168 0
14:26:01.5 52 67 3:00.875 23.884 67 172 0
14:29:05.6 53 69 3:04.080 23.468 65 170 0
14:32:11.5 54 70 3:05.941 23.233 68 170 0
14:35:16.0 55 72 3:04.463 23.419 64 169 0
14:38:23.4 56 73 3:07.431 23.048 65 172 0
14:41:31.5 57 74 3:08.123 22.964 68 172 0
14:44:33.4 58 76 3:01.832 23.758 65 171 0
14:47:34.5 59 77 3:01.146 23.848 66 173 0
14:51:53.5 60 79 4:18.984 16.681 80 185 0
14:54:36.2 61 80 2:42.703 26.551 62 171 0
14:57:21.2 62 82 2:44.955 26.189 61 170 0
15:00:12.7 63 83 2:51.591 25.176 63 171 0
15:03:06.9 64 84 2:54.113 24.811 63 172 0
15:05:58.0 65 85 2:51.138 25.243 65 172 0
15:08:50.4 66 87 2:52.359 25.064 63 169 0
15:11:45.8 67 88 2:55.458 24.621 64 171 0
15:14:44.0 68 89 2:58.198 24.243 64 171 0
15:17:37.2 69 91 2:53.146 24.950 64 170 0
15:20:31.9 70 92 2:54.702 24.728 64 172 0
15:23:23.9 71 93 2:51.997 25.117 63 169 0
15:29:19.4 72 95 5:55.520 12.151 84 185 0
15:32:55.2 73 97 3:35.775 20.021 65 170 0
15:36:11.5 74 99 3:16.338 22.003 66 169 0
15:39:32.6 75 100 3:21.068 21.485 64 174 0
15:42:43.2 76 102 3:10.623 22.663 66 170 0
15:56:47.0 77 108 14:03.836 5.119 84 184 0
15:59:26.0 78 109 2:39.030 27.165 62 169 0
16:02:09.2 79 111 2:43.176 26.474 62 168 0
16:04:50.0 80 112 2:40.799 26.866 63 168 0
16:07:31.6 81 113 2:41.581 26.736 59 168 0
16:10:13.3 82 114 2:41.700 26.716 58 170 0
16:12:56.2 83 116 2:42.891 26.521 61 171 0
16:15:39.5 84 117 2:43.324 26.450 63 171 0
16:18:30.7 85 118 2:51.200 25.234 62 169 0
16:21:18.5 86 119 2:47.756 25.752 61 170 0
16:24:04.4 87 120 2:45.965 26.030 62 169 0
16:26:51.6 88 122 2:47.139 25.847 61 171 0
16:29:34.9 89 123 2:43.348 26.447 62 169 0
16:32:14.6 90 124 2:39.644 27.060 62 171 0
16:34:57.5 91 125 2:42.913 26.517 62 170 0
16:37:41.6 92 127 2:44.158 26.316 64 170 0
16:40:24.0 93 128 2:42.337 26.611 60 170 0
16:44:34.3 94 130 4:10.351 17.256 84 185 0
16:48:39.4 95 132 4:05.083 17.627 66 170 0
16:51:50.1 96 133 3:10.691 22.654 62 170 0
16:54:52.8 97 134 3:02.685 23.647 62 171 0
16:57:52.1 98 135 2:59.267 24.098 65 171 0
17:00:51.6 99 136 2:59.496 24.067 62 170 0
17:03:46.9 100 137 2:55.346 24.637 63 172 0
17:08:27.6 101 139 4:40.691 15.391 80 182 0
17:10:52.9 102 140 2:25.327 29.726 59 168 0
17:13:11.2 103 141 2:18.292 31.238 58 166 0
17:15:33.9 104 143 2:22.670 30.280 54 165 0
17:17:59.0 105 144 2:25.140 29.764 61 171 0
17:20:25.0 106 145 2:26.015 29.586 59 170 0
17:22:53.2 107 146 2:28.176 29.155 59 168 0
17:25:23.2 108 147 2:29.942 28.811 61 170 0
17:27:53.6 109 148 2:30.479 28.708 62 171 0
17:30:28.7 110 150 2:35.090 27.855 59 170 0
17:33:04.6 111 151 2:35.853 27.718 58 170 0
17:35:49.0 112 152 2:44.442 26.271 61 171 0
17:38:27.7 113 153 2:38.712 27.219 62 170 0
17:42:07.9 114 155 3:40.199 19.619 82 184 0
17:44:44.5 115 156 2:36.591 27.588 57 167 0
17:47:17.5 116 157 2:33.031 28.230 55 170 0
17:49:52.5 117 159 2:34.970 27.876 61 170 0
17:52:33.1 118 160 2:40.611 26.897 62 171 0
17:55:14.0 119 161 2:40.871 26.854 63 168 0
17:57:57.5 120 162 2:43.451 26.430 63 169 0
18:00:40.9 121 164 2:43.443 26.431 61 169 0
59 - Alberto Victory Christian College - B2 (YR9-10)
12:02:06.5 1 1 2:49.910 25.425 57 148 0
12:04:55.6 2 2 2:49.128 25.543 59 147 0
12:07:48.0 3 4 2:52.378 25.061 60 149 0
12:10:40.2 4 5 2:52.148 25.095 59 147 0
12:13:38.9 5 7 2:58.763 24.166 60 148 0
12:16:40.8 6 8 3:01.872 23.753 60 149 0
12:19:45.5 7 10 3:04.719 23.387 63 149 0
12:22:48.7 8 11 3:03.136 23.589 62 150 0
12:25:41.4 9 12 2:52.787 25.002 57 148 0
12:29:54.8 10 14 4:13.387 17.049 76 163 0
12:32:26.4 11 16 2:31.605 28.495 55 149 0
12:34:55.9 12 17 2:29.446 28.907 57 151 0
12:37:27.9 13 18 2:32.033 28.415 54 153 0
12:40:03.1 14 19 2:35.210 27.833 58 152 0
12:42:38.6 15 21 2:35.478 27.785 56 148 0
12:45:09.8 16 22 2:31.218 28.568 57 152 0
12:47:52.7 17 23 2:42.845 26.528 61 152 0
12:50:32.4 18 24 2:39.739 27.044 60 150 0
12:53:07.4 19 26 2:34.957 27.879 58 152 0
12:55:53.9 20 27 2:46.551 25.938 60 152 0
12:58:36.1 21 28 2:42.223 26.630 59 152 0
13:01:22.4 22 30 2:46.259 25.984 63 152 0
13:05:37.7 23 32 4:15.342 16.918 80 164 0
13:08:30.2 24 33 2:52.417 25.056 59 149 0
13:11:17.4 25 34 2:47.236 25.832 59 148 0
13:14:01.4 26 35 2:44.061 26.332 58 152 0
13:16:55.6 27 36 2:54.120 24.810 61 149 0
13:20:13.9 28 38 3:18.343 21.780 61 148 0
13:23:12.5 29 39 2:58.590 24.189 61 149 0
13:26:11.5 30 41 2:58.983 24.136 61 148 0
13:29:12.9 31 42 3:01.410 23.813 61 148 0
13:32:17.5 32 44 3:04.570 23.406 65 150 0
13:35:24.6 33 45 3:07.145 23.084 64 148 0
13:39:30.2 34 47 4:05.556 17.593 75 163 0
13:42:15.6 35 48 2:45.461 26.109 57 153 0
13:44:57.1 36 49 2:41.469 26.754 48 146 0
13:47:39.3 37 51 2:42.192 26.635 59 152 0
13:50:19.8 38 52 2:40.475 26.920 59 150 0
13:53:05.2 39 53 2:45.403 26.118 59 150 0
13:55:48.1 40 54 2:42.930 26.514 56 150 0
13:58:31.7 41 55 2:43.567 26.411 58 151 0
14:01:44.2 42 57 3:12.532 22.438 61 152 0
14:04:24.9 43 58 2:40.708 26.881 57 149 0
14:07:03.1 44 59 2:38.153 27.315 54 147 0
14:09:42.5 45 60 2:39.401 27.101 57 152 0
14:13:55.7 46 62 4:13.262 17.057 77 162 0
14:16:51.7 47 63 2:55.983 24.548 59 151 0
14:19:42.9 48 64 2:51.163 25.239 58 152 0
14:22:31.4 49 66 2:48.534 25.633 60 149 0
14:25:18.6 50 67 2:47.228 25.833 57 149 0
14:28:04.7 51 68 2:46.074 26.013 60 149 0
14:30:47.2 52 69 2:42.494 26.586 59 150 0
14:33:37.8 53 71 2:50.634 25.317 53 149 0
14:36:19.0 54 72 2:41.205 26.798 59 151 0
14:39:08.7 55 73 2:49.646 25.465 61 151 0
14:41:49.2 56 74 2:40.475 26.920 61 148 0
14:44:39.2 57 76 2:50.042 25.405 63 150 0
14:47:35.2 58 77 2:56.000 24.545 62 151 0
14:50:49.4 59 79 3:14.172 22.248 58 150 0
14:53:40.5 60 80 2:51.166 25.239 60 152 0
14:57:55.9 61 82 4:15.368 16.917 78 163 0
15:00:55.3 62 83 2:59.443 24.074 60 148 0
15:03:47.4 63 84 2:52.044 25.110 62 149 0
15:06:47.5 64 86 3:00.151 23.980 58 151 0
15:09:51.2 65 87 3:03.632 23.525 61 147 0
15:12:58.2 66 89 3:07.044 23.096 61 149 0
15:15:56.9 67 90 2:58.668 24.179 61 150 0
15:20:32.7 68 92 4:35.858 15.660 73 160 0
15:23:24.2 69 93 2:51.502 25.189 62 149 0
15:26:17.4 70 95 2:53.198 24.943 63 150 0
15:29:11.1 71 95 2:53.706 24.870 59 149 0
15:31:59.3 72 97 2:48.152 25.691 63 152 0
15:34:54.7 73 98 2:55.362 24.635 62 149 0
15:37:49.3 74 99 2:54.606 24.741 65 150 0
15:40:53.5 75 101 3:04.269 23.444 61 151 0
15:45:40.2 76 103 4:46.682 15.069 76 161 0
15:48:39.6 77 105 2:59.364 24.085 59 149 0
15:51:29.4 78 106 2:49.828 25.438 61 148 0
15:54:20.8 79 107 2:51.408 25.203 54 150 0
15:57:20.1 80 108 2:59.287 24.095 62 149 0
16:00:36.4 81 110 3:16.250 22.013 62 150 0
16:03:46.6 82 111 3:10.195 22.714 61 149 0
16:08:16.9 83 113 4:30.372 15.978 75 161 0
16:11:04.9 84 115 2:47.998 25.715 59 147 0
16:13:55.9 85 116 2:50.954 25.270 61 147 0
16:17:02.9 86 117 3:07.032 23.098 61 148 0
16:20:05.4 87 119 3:02.447 23.678 61 148 0
16:22:56.2 88 120 2:50.841 25.287 58 148 0
16:25:43.4 89 121 2:47.215 25.835 61 149 0
16:30:27.8 90 123 4:44.353 15.192 71 158 0
16:33:17.0 91 125 2:49.283 25.519 62 147 0
16:36:08.5 92 126 2:51.407 25.203 61 147 0
16:38:57.8 93 127 2:49.343 25.510 60 148 0
16:41:51.0 94 129 2:53.170 24.947 61 148 0
16:44:48.6 95 130 2:57.587 24.326 62 148 0
16:47:51.8 96 131 3:03.293 23.569 63 148 0
16:52:27.3 97 133 4:35.474 15.682 83 164 0
16:55:29.1 98 135 3:01.783 23.765 60 148 0
16:58:28.0 99 135 2:58.890 24.149 63 149 0
17:01:34.8 100 136 3:06.815 23.124 61 147 0
17:04:27.4 101 137 2:52.574 25.033 62 148 0
17:08:33.8 102 139 4:06.369 17.535 74 159 0
17:11:05.2 103 140 2:31.432 28.528 54 148 0
17:13:41.6 104 142 2:36.417 27.618 55 148 0
17:16:15.7 105 143 2:34.111 28.032 56 149 0
17:18:51.3 106 144 2:35.581 27.767 60 148 0
17:21:30.9 107 145 2:39.573 27.072 60 149 0
17:24:10.2 108 147 2:39.342 27.111 60 148 0
17:26:54.0 109 148 2:43.801 26.373 59 151 0
17:29:40.5 110 149 2:46.449 25.954 62 149 0
17:32:31.1 111 151 2:50.602 25.322 61 148 0
17:35:20.6 112 152 2:49.575 25.475 61 148 0
17:38:18.1 113 153 2:57.505 24.337 59 148 0
17:42:33.5 114 155 4:15.369 16.917 74 162 0
17:45:23.5 115 157 2:49.987 25.414 57 148 0
17:48:11.5 116 158 2:48.003 25.714 59 148 0
17:51:10.2 117 159 2:58.701 24.174 59 148 0
17:54:03.5 118 161 2:53.345 24.921 58 150 0
17:56:52.6 119 162 2:49.036 25.557 59 147 0
17:59:37.5 120 163 2:44.879 26.201 59 147 0
18:02:12.2 121 164 2:34.693 27.926 57 146 0
4 - Electra SMS/BGS - Community
12:01:44.2 1 1 2:28.346 29.121 59 162 0
12:04:28.2 2 2 2:43.975 26.345 63 160 0
12:07:18.0 3 4 2:49.821 25.439 60 160 0
12:10:08.0 4 5 2:49.970 25.416 62 161 0
12:13:01.4 5 6 2:53.442 24.907 61 161 0
12:15:57.3 6 8 2:55.905 24.559 61 160 0
12:18:52.2 7 9 2:54.845 24.708 62 160 0
12:21:48.4 8 11 2:56.240 24.512 63 161 0
12:24:38.2 9 12 2:49.752 25.449 61 161 0
12:27:27.5 10 13 2:49.368 25.507 61 161 0
12:30:21.6 11 15 2:54.127 24.809 63 162 0
12:37:34.5 12 18 7:12.888 9.979 80 176 0
12:40:49.6 13 20 3:15.024 22.151 60 163 0
12:43:56.2 14 21 3:06.641 23.146 57 161 0
12:46:54.7 15 23 2:58.510 24.200 61 163 0
12:49:55.1 16 24 3:00.402 23.947 63 163 0
12:53:05.0 17 26 3:09.935 22.745 63 164 0
12:56:20.0 18 27 3:14.964 22.158 64 162 0
12:59:27.9 19 29 3:07.924 22.988 63 163 0
13:02:50.0 20 30 3:22.054 21.380 65 164 0
13:06:17.6 21 32 3:27.642 20.805 64 164 0
13:09:44.1 22 33 3:26.480 20.922 64 162 0
13:14:41.0 23 35 4:56.936 14.549 83 178 0
13:17:26.0 24 37 2:44.930 26.193 60 163 0
13:20:05.7 25 38 2:39.674 27.055 56 160 0
13:22:53.6 26 39 2:47.948 25.722 61 160 0
13:25:40.7 27 41 2:47.080 25.856 59 160 0
13:28:26.3 28 42 2:45.609 26.086 60 160 0
13:31:14.0 29 43 2:47.742 25.754 61 160 0
13:34:02.3 30 44 2:48.235 25.678 60 162 0
13:36:50.3 31 46 2:48.002 25.714 58 162 0
13:39:40.2 32 47 2:49.921 25.424 61 161 0
13:42:32.7 33 48 2:52.496 25.044 59 162 0
13:45:24.1 34 50 2:51.424 25.201 60 160 0
13:48:13.7 35 51 2:49.619 25.469 61 162 0
13:52:37.8 36 53 4:24.113 16.357 84 175 0
13:55:30.1 37 54 2:52.230 25.083 58 162 0
13:58:15.1 38 55 2:45.034 26.176 59 161 0
14:00:59.4 39 57 2:44.294 26.294 57 160 0
14:03:43.8 40 58 2:44.387 26.279 60 161 0
14:06:24.1 41 59 2:40.346 26.942 61 162 0
14:09:05.3 42 60 2:41.191 26.801 56 161 0
14:11:43.1 43 61 2:37.801 27.376 59 161 0
14:15:57.5 44 63 4:14.364 16.984 83 177 0
14:18:55.3 45 64 2:57.809 24.296 58 162 0
14:21:40.5 46 65 2:45.161 26.156 61 161 0
14:24:35.7 47 67 2:55.266 24.648 60 164 0
14:27:33.1 48 68 2:57.403 24.351 61 162 0
14:30:31.9 49 69 2:58.788 24.163 62 164 0
14:33:30.9 50 71 2:59.010 24.133 62 165 0
14:36:32.9 51 72 3:01.991 23.737 63 162 0
14:39:29.4 52 73 2:56.459 24.482 63 163 0
14:42:30.3 53 75 3:00.974 23.871 62 163 0
14:45:27.1 54 76 2:56.739 24.443 61 163 0
14:49:58.0 55 78 4:30.948 15.944 83 176 0
14:52:45.2 56 79 2:47.179 25.841 58 161 0
14:55:30.4 57 81 2:45.203 26.150 58 163 0
14:58:22.7 58 82 2:52.266 25.077 58 163 0
15:01:13.2 59 83 2:50.527 25.333 58 162 0
15:04:01.3 60 85 2:48.106 25.698 57 161 0
15:06:48.9 61 86 2:47.579 25.779 61 160 0
15:09:44.6 62 87 2:55.683 24.590 60 162 0
15:12:38.1 63 88 2:53.566 24.890 61 161 0
15:15:32.4 64 90 2:54.282 24.787 62 164 0
15:18:30.9 65 91 2:58.510 24.200 62 163 0
15:21:28.3 66 93 2:57.353 24.358 62 164 0
15:24:24.3 67 94 2:55.981 24.548 61 163 0
15:27:18.9 68 95 2:54.629 24.738 61 163 0
15:31:20.4 69 96 4:01.513 17.887 76 176 0
15:34:08.3 70 98 2:47.902 25.729 60 163 0
15:36:52.3 71 99 2:43.979 26.345 60 162 0
15:39:51.3 72 100 2:59.022 24.131 62 161 0
15:42:50.0 73 102 2:58.683 24.177 61 163 0
15:45:40.0 74 103 2:50.005 25.411 58 161 0
15:48:46.5 75 105 3:06.488 23.165 61 160 0
15:51:58.6 76 106 3:12.095 22.489 63 163 0
15:55:05.0 77 107 3:06.403 23.176 62 162 0
15:58:06.8 78 109 3:01.796 23.763 61 161 0
16:02:22.6 79 111 4:15.766 16.890 82 176 0
16:05:07.6 80 112 2:45.016 26.179 58 161 0
16:07:53.5 81 113 2:45.975 26.028 59 160 0
16:10:37.5 82 115 2:43.985 26.344 60 161 0
16:13:29.8 83 116 2:52.301 25.072 62 161 0
16:16:37.0 84 117 3:07.211 23.076 61 162 0
16:19:39.4 85 119 3:02.319 23.695 61 161 0
16:22:29.4 86 120 2:50.022 25.408 59 159 0
16:25:20.3 87 121 2:50.902 25.278 61 161 0
16:28:23.2 88 122 3:02.916 23.617 63 163 0
16:33:15.5 89 125 4:52.306 14.779 83 175 0
16:35:47.1 90 126 2:31.580 28.500 55 161 0
16:38:19.1 91 127 2:31.982 28.424 57 160 0
16:40:52.6 92 128 2:33.550 28.134 56 162 0
16:43:29.5 93 129 2:36.867 27.539 55 160 0
16:46:10.0 94 130 2:40.494 26.917 59 159 0
16:48:51.2 95 132 2:41.211 26.797 59 160 0
16:51:34.6 96 133 2:43.398 26.439 58 161 0
16:54:15.2 97 134 2:40.569 26.904 57 160 0
16:56:54.3 98 135 2:39.126 27.148 59 161 0
16:59:37.0 99 135 2:42.723 26.548 59 161 0
17:02:18.4 100 136 2:41.356 26.773 57 161 0
17:06:41.5 101 138 4:23.116 16.419 82 174 0
17:09:40.6 102 140 2:59.112 24.119 58 160 0
17:12:26.3 103 141 2:45.724 26.067 59 160 0
17:15:13.9 104 142 2:47.607 25.775 59 161 0
17:18:00.2 105 144 2:46.311 25.975 59 160 0
17:20:46.7 106 145 2:46.426 25.957 59 160 0
17:23:33.8 107 146 2:47.157 25.844 61 161 0
17:26:27.5 108 148 2:53.675 24.874 59 160 0
17:29:19.8 109 149 2:52.266 25.077 60 162 0
17:33:28.5 110 151 4:08.720 17.369 73 172 0
17:36:16.4 111 152 2:47.936 25.724 59 161 0
17:39:07.6 112 154 2:51.217 25.231 61 160 0
17:41:58.8 113 155 2:51.182 25.236 58 162 0
17:44:45.5 114 156 2:46.673 25.919 59 162 0
17:47:38.3 115 158 2:52.798 25.000 61 161 0
17:50:27.0 116 159 2:48.730 25.603 60 161 0
17:53:15.4 117 160 2:48.378 25.657 58 161 0
17:56:06.7 118 162 2:51.329 25.215 53 163 0
17:58:52.4 119 163 2:45.694 26.072 59 160 0
18:01:38.9 120 164 2:46.461 25.952 58 160 0
54 - Scorpius SMS/BGS - C (YR11-12)
12:01:49.0 1 1 2:31.541 28.507 55 165 0
12:04:17.1 2 2 2:28.074 29.175 58 163 0
12:06:56.5 3 3 2:39.406 27.101 57 166 0
12:09:30.4 4 5 2:33.914 28.068 58 164 0
12:12:16.4 5 6 2:45.944 26.033 58 163 0
12:14:56.1 6 7 2:39.784 27.036 59 165 0
12:17:43.7 7 9 2:47.596 25.776 61 164 0
12:20:26.7 8 10 2:42.979 26.506 59 165 0
12:23:07.8 9 11 2:41.117 26.813 60 165 0
12:25:45.0 10 12 2:37.143 27.491 56 164 0
12:28:29.3 11 14 2:44.334 26.288 59 165 0
12:31:17.3 12 15 2:48.036 25.709 60 165 0
12:33:59.7 13 16 2:42.368 26.606 60 167 0
12:36:49.5 14 18 2:49.782 25.444 62 167 0
12:39:45.1 15 19 2:55.586 24.603 62 167 0
12:42:38.2 16 21 2:53.081 24.959 62 166 0
12:45:32.2 17 22 2:54.068 24.818 59 167 0
12:49:46.0 18 24 4:13.811 17.021 82 180 0
12:52:29.9 19 25 2:43.904 26.357 61 164 0
12:55:23.7 20 27 2:53.713 24.869 63 165 0
12:58:22.7 21 28 2:59.021 24.131 61 166 0
13:01:18.9 22 29 2:56.191 24.519 61 165 0
13:04:16.9 23 31 2:58.081 24.259 63 167 0
13:08:50.2 24 33 4:33.297 15.807 83 182 0
13:11:40.1 25 34 2:49.898 25.427 57 164 0
13:14:21.7 26 35 2:41.546 26.742 58 165 0
13:17:03.8 27 36 2:42.159 26.641 60 165 0
13:19:46.3 28 38 2:42.438 26.595 54 165 0
13:22:26.0 29 39 2:39.698 27.051 57 164 0
13:25:11.3 30 40 2:45.298 26.135 60 164 0
13:27:53.3 31 42 2:42.006 26.666 59 164 0
13:32:05.7 32 44 4:12.395 17.116 76 179 0
13:35:02.6 33 45 2:56.956 24.413 61 165 0
13:38:03.1 34 46 3:00.455 23.939 62 166 0
13:41:05.1 35 48 3:02.019 23.734 62 167 0
13:44:05.6 36 49 3:00.522 23.931 61 168 0
13:47:10.3 37 50 3:04.615 23.400 62 167 0
13:50:14.7 38 52 3:04.421 23.425 62 165 0
13:54:18.9 39 54 4:04.247 17.687 78 181 0
13:57:12.9 40 55 2:53.952 24.834 60 164 0
14:00:01.3 41 56 2:48.445 25.646 61 167 0
14:02:47.7 42 57 2:46.337 25.971 61 165 0
14:05:42.2 43 59 2:54.560 24.748 63 166 0
14:08:46.4 44 60 3:04.207 23.452 61 166 0
14:11:42.5 45 61 2:56.104 24.531 62 166 0
14:14:30.5 46 63 2:47.987 25.716 63 168 0
14:18:53.9 47 64 4:23.340 16.405 79 180 0
14:22:04.9 48 66 3:11.067 22.610 59 167 0
14:25:04.8 49 67 2:59.862 24.018 62 166 0
14:28:11.5 50 68 3:06.703 23.138 62 167 0
14:31:20.4 51 70 3:08.926 22.866 62 166 0
14:34:30.2 52 71 3:09.833 22.757 63 167 0
14:37:44.2 53 73 3:13.912 22.278 63 167 0
14:41:07.4 54 74 3:23.246 21.255 65 166 0
14:44:28.6 55 76 3:21.235 21.467 64 167 0
14:47:53.7 56 77 3:25.037 21.069 64 169 0
14:51:24.8 57 79 3:31.116 20.463 63 165 0
14:54:52.5 58 80 3:27.684 20.801 63 167 0
14:58:12.5 59 82 3:20.034 21.596 64 167 0
15:02:57.1 60 84 4:44.562 15.181 82 179 0
15:06:02.9 61 85 3:05.854 23.244 60 165 0
15:09:00.9 62 87 2:57.936 24.278 61 164 0
15:11:58.7 63 88 2:57.809 24.296 60 165 0
15:14:52.9 64 89 2:54.251 24.792 62 165 0
15:17:50.6 65 91 2:57.713 24.309 61 167 0
15:22:22.5 66 93 4:31.877 15.890 82 182 0
15:25:31.3 67 94 3:08.832 22.877 60 165 0
15:28:26.7 68 95 2:55.333 24.639 62 166 0
15:31:31.3 69 96 3:04.660 23.394 62 165 0
15:34:29.5 70 98 2:58.183 24.245 63 166 0
15:37:35.0 71 99 3:05.482 23.291 63 166 0
15:40:40.5 72 101 3:05.474 23.292 55 166 0
15:43:50.4 73 102 3:09.903 22.748 62 166 0
15:47:00.8 74 104 3:10.441 22.684 63 165 0
15:50:21.3 75 105 3:20.441 21.552 61 166 0
15:53:23.2 76 107 3:01.968 23.740 64 166 0
15:56:32.1 77 108 3:08.919 22.867 65 165 0
15:59:43.2 78 110 3:11.034 22.614 62 168 0
16:02:55.5 79 111 3:12.340 22.460 62 167 0
16:06:02.7 80 112 3:07.174 23.080 62 164 0
16:10:48.2 81 115 4:45.481 15.132 84 180 0
16:14:08.8 82 116 3:20.646 21.530 64 166 0
16:17:17.9 83 118 3:09.045 22.852 61 165 0
16:20:23.8 84 119 3:05.921 23.236 62 167 0
16:23:26.2 85 120 3:02.387 23.686 61 167 0
16:26:34.1 86 122 3:07.969 22.983 63 167 0
16:30:51.8 87 124 4:17.684 16.765 82 180 0
16:33:22.8 88 125 2:31.004 28.609 55 163 0
16:35:48.4 89 126 2:25.615 29.667 58 165 0
16:38:20.7 90 127 2:32.246 28.375 58 164 0
16:41:03.0 91 128 2:42.324 26.613 59 165 0
16:43:39.6 92 129 2:36.585 27.589 60 168 0
16:46:17.5 93 131 2:37.915 27.356 56 162 0
16:48:56.0 94 132 2:38.469 27.261 59 165 0
16:51:40.1 95 133 2:44.128 26.321 57 163 0
16:54:24.0 96 134 2:43.849 26.366 60 166 0
16:57:14.3 97 135 2:50.332 25.362 60 166 0
16:59:53.7 98 135 2:39.400 27.102 62 164 0
17:02:47.8 99 136 2:54.118 24.811 60 167 0
17:05:40.0 100 138 2:52.141 25.096 59 164 0
17:08:30.0 101 139 2:50.077 25.400 59 164 0
17:11:20.3 102 140 2:50.255 25.374 53 166 0
17:14:03.3 103 142 2:43.032 26.498 58 165 0
17:18:13.0 104 144 4:09.671 17.303 82 181 0
17:20:45.8 105 145 2:32.817 28.269 55 162 0
17:23:16.7 106 146 2:30.900 28.628 57 164 0
17:25:52.0 107 147 2:35.336 27.811 59 165 0
17:28:31.2 108 149 2:39.156 27.143 58 162 0
17:31:10.4 109 150 2:39.157 27.143 58 164 0
17:33:53.9 110 151 2:43.565 26.412 58 165 0
17:36:31.4 111 153 2:37.446 27.438 59 165 0
17:39:17.4 112 154 2:46.030 26.019 59 166 0
17:41:59.1 113 155 2:41.730 26.711 57 162 0
17:45:59.1 114 157 3:59.949 18.004 84 178 0
17:48:48.8 115 158 2:49.689 25.458 61 167 0
17:51:49.5 116 160 3:00.763 23.899 60 166 0
17:54:34.7 117 161 2:45.165 26.156 60 165 0
17:57:19.8 118 162 2:45.153 26.158 61 166 0
18:00:24.4 119 163 3:04.584 23.404 59 164 0
18:03:09.8 120 164 2:45.388 26.120 57 164 0
71 - MPV SMS/BGS - Community
12:01:57.9 1 1 2:44.421 26.274 61 170 0
12:05:02.7 2 2 3:04.849 23.370 62 172 0
12:08:13.6 3 4 3:10.844 22.636 61 172 0
12:11:32.2 4 6 3:18.692 21.742 63 169 0
12:14:42.1 5 7 3:09.872 22.752 64 169 0
12:18:02.6 6 9 3:20.521 21.544 64 169 0
12:21:26.6 7 10 3:23.968 21.180 65 170 0
12:25:46.1 8 12 4:19.479 16.649 84 184 0
12:28:50.1 9 14 3:04.019 23.476 60 167 0
12:31:51.3 10 15 3:01.167 23.845 62 170 0
12:35:01.4 11 17 3:10.124 22.722 62 170 0
12:38:14.1 12 18 3:12.709 22.417 64 170 0
12:41:32.8 13 20 3:18.649 21.747 64 170 0
12:44:46.0 14 22 3:13.269 22.352 64 170 0
12:48:06.8 15 23 3:20.790 21.515 64 168 0
12:53:51.0 16 26 5:44.174 12.552 77 182 0
12:56:33.6 17 27 2:42.623 26.565 58 168 0
12:59:20.9 18 29 2:47.334 25.817 57 169 0
13:02:16.6 19 30 2:55.613 24.600 61 168 0
13:05:08.9 20 31 2:52.320 25.070 59 168 0
13:08:04.2 21 33 2:55.286 24.645 61 168 0
13:10:58.4 22 34 2:54.197 24.800 60 169 0
13:13:53.2 23 35 2:54.872 24.704 61 169 0
13:16:48.7 24 36 2:55.456 24.622 61 169 0
13:19:44.1 25 38 2:55.386 24.631 60 168 0
13:22:37.7 26 39 2:53.623 24.881 60 168 0
13:26:43.0 27 41 4:05.332 17.609 75 182 0
13:29:28.6 28 42 2:45.553 26.094 59 168 0
13:32:06.4 29 44 2:37.821 27.373 58 168 0
13:34:44.9 30 45 2:38.510 27.254 59 167 0
13:37:25.1 31 46 2:40.205 26.965 59 169 0
13:40:05.8 32 47 2:40.715 26.880 50 170 0
13:42:46.6 33 48 2:40.776 26.870 57 167 0
13:45:22.9 34 50 2:36.257 27.647 57 171 0
13:48:04.2 35 51 2:41.361 26.772 59 169 0
13:50:42.8 36 52 2:38.556 27.246 57 169 0
13:53:27.4 37 53 2:44.583 26.248 52 167 0
13:56:16.6 38 54 2:49.184 25.534 59 167 0
13:59:03.3 39 56 2:46.793 25.900 60 169 0
14:03:45.4 40 58 4:42.072 15.315 83 185 0
14:06:28.8 41 59 2:43.391 26.440 59 171 0
14:09:05.7 42 60 2:36.883 27.536 56 168 0
14:11:43.9 43 61 2:38.184 27.310 59 169 0
14:14:37.2 44 63 2:53.351 24.921 62 172 0
14:17:35.7 45 64 2:58.434 24.211 62 170 0
14:20:31.4 46 65 2:55.781 24.576 60 169 0
14:23:30.8 47 66 2:59.315 24.092 61 170 0
14:26:30.8 48 68 3:00.013 23.998 62 170 0
14:29:31.3 49 69 3:00.528 23.930 62 171 0
14:32:32.0 50 70 3:00.683 23.909 62 171 0
14:35:32.4 51 72 3:00.409 23.946 63 171 0
14:40:01.7 52 74 4:29.298 16.042 75 184 0
14:42:50.4 53 75 2:48.744 25.601 61 170 0
14:45:38.4 54 76 2:48.015 25.712 59 171 0
14:48:28.3 55 78 2:49.830 25.437 58 170 0
14:51:19.8 56 79 2:51.495 25.190 61 171 0
14:54:12.5 57 80 2:52.681 25.017 62 169 0
14:57:05.0 58 81 2:52.515 25.041 58 171 0
14:59:54.3 59 83 2:49.311 25.515 59 170 0
15:02:46.8 60 84 2:52.513 25.042 61 170 0
15:05:42.0 61 85 2:55.208 24.656 59 170 0
15:08:38.2 62 87 2:56.159 24.523 61 170 0
15:11:34.8 63 88 2:56.686 24.450 61 170 0
15:15:40.8 64 90 4:05.948 17.565 74 182 0
15:18:35.1 65 91 2:54.260 24.791 59 170 0
15:21:27.9 66 93 2:52.883 24.988 55 172 0
15:24:36.2 67 94 3:08.296 22.943 63 170 0
15:27:39.5 68 95 3:03.227 23.577 61 172 0
15:30:43.4 69 96 3:03.914 23.489 62 171 0
15:33:48.5 70 98 3:05.152 23.332 64 171 0
15:37:03.8 71 99 3:15.229 22.128 62 169 0
15:41:31.4 72 101 4:27.665 16.140 81 182 0
15:44:37.4 73 103 3:05.985 23.228 61 168 0
15:47:45.5 74 104 3:08.058 22.972 64 170 0
15:50:53.3 75 106 3:07.851 22.997 62 169 0
15:53:57.7 76 107 3:04.340 23.435 61 169 0
15:56:59.5 77 108 3:01.804 23.762 62 170 0
15:59:59.7 78 110 3:00.232 23.969 61 167 0
16:04:24.6 79 112 4:24.868 16.310 83 185 0
16:07:15.1 80 113 2:50.561 25.328 58 168 0
16:09:53.5 81 114 2:38.363 27.279 60 170 0
16:12:32.6 82 115 2:39.156 27.143 57 168 0
16:15:08.3 83 117 2:35.663 27.752 59 168 0
16:17:50.7 84 118 2:42.434 26.595 60 169 0
16:20:29.7 85 119 2:39.007 27.169 58 168 0
16:23:08.7 86 120 2:38.998 27.170 58 167 0
16:25:48.1 87 121 2:39.329 27.114 59 172 0
16:28:25.8 88 122 2:37.703 27.393 58 169 0
16:31:01.6 89 124 2:35.788 27.730 59 169 0
16:35:17.0 90 126 4:15.399 16.915 80 183 0
16:38:07.0 91 127 2:50.085 25.399 60 171 0
16:40:52.4 92 128 2:45.364 26.124 58 170 0
16:43:39.0 93 129 2:46.634 25.925 60 168 0
16:46:34.5 94 131 2:55.491 24.617 60 168 0
16:49:26.9 95 132 2:52.332 25.068 61 168 0
16:52:19.5 96 133 2:52.639 25.023 60 168 0
16:55:15.8 97 135 2:56.264 24.509 61 168 0
16:58:10.8 98 135 2:54.988 24.687 59 169 0
17:01:09.3 99 136 2:58.554 24.194 60 168 0
17:04:12.1 100 137 3:02.820 23.630 61 169 0
17:07:10.5 101 138 2:58.365 24.220 62 168 0
17:11:41.9 102 141 4:31.373 15.919 78 183 0
17:14:38.2 103 142 2:56.338 24.498 60 170 0
17:17:36.1 104 143 2:57.926 24.280 61 170 0
17:20:40.3 105 145 3:04.125 23.462 56 170 0
17:23:44.5 106 146 3:04.241 23.448 62 171 0
17:26:51.5 107 148 3:06.982 23.104 61 170 0
17:30:01.4 108 149 3:09.957 22.742 60 169 0
17:33:18.2 109 151 3:16.808 21.950 63 170 0
17:37:48.8 110 153 4:30.590 15.965 80 184 0
17:40:56.9 111 155 3:08.101 22.966 62 170 0
17:44:09.8 112 156 3:12.822 22.404 63 171 0
17:47:28.9 113 158 3:19.125 21.695 63 169 0
17:50:39.5 114 159 3:10.574 22.668 63 170 0
17:54:00.4 115 161 3:20.952 21.498 63 170 0
17:57:23.0 116 162 3:22.623 21.320 63 171 0
18:00:48.7 117 164 3:25.620 21.010 64 170 0
23 - Ziptar Maiden Gully PS - Primary
12:02:02.2 1 1 2:43.040 26.497 56 156 0
12:04:39.3 2 2 2:37.111 27.496 59 156 0
12:07:31.5 3 4 2:52.229 25.083 61 157 0
12:10:25.7 4 5 2:54.140 24.808 62 159 0
12:13:16.6 5 6 2:50.937 25.272 60 159 0
12:16:08.8 6 8 2:52.194 25.088 61 157 0
12:19:01.7 7 9 2:52.919 24.983 61 157 0
12:21:52.6 8 11 2:50.946 25.271 61 158 0
12:24:46.7 9 12 2:54.046 24.821 62 158 0
12:27:30.9 10 13 2:44.163 26.315 60 158 0
12:30:18.2 11 15 2:47.318 25.819 63 159 0
12:34:35.8 12 17 4:17.634 16.768 60 158 0
12:37:44.8 13 18 3:08.990 22.858 62 157 0
12:40:50.9 14 20 3:06.059 23.218 60 159 0
12:43:56.2 15 21 3:05.333 23.309 56 157 0
12:46:57.2 16 23 3:01.004 23.867 58 157 0
12:49:58.6 17 24 3:01.382 23.817 59 157 0
12:53:01.9 18 26 3:03.296 23.568 62 157 0
12:56:04.9 19 27 3:03.061 23.599 57 159 0
12:59:07.6 20 28 3:02.660 23.650 62 158 0
13:02:11.3 21 30 3:03.664 23.521 59 157 0
13:06:13.2 22 32 4:01.898 17.859 58 157 0
13:08:50.2 23 33 2:37.067 27.504 57 158 0
13:11:38.9 24 34 2:48.631 25.618 60 160 0
13:14:31.7 25 35 2:52.839 24.994 62 161 0
13:17:23.3 26 37 2:51.642 25.169 59 158 0
13:20:14.6 27 38 2:51.242 25.227 58 160 0
13:23:07.6 28 39 2:53.027 24.967 62 158 0
13:25:56.8 29 41 2:49.193 25.533 61 158 0
13:28:46.2 30 42 2:49.388 25.504 58 156 0
13:32:41.3 31 44 3:55.095 18.376 59 156 0
13:35:25.4 32 45 2:44.135 26.320 59 157 0
13:38:12.1 33 46 2:46.727 25.911 61 158 0
13:40:58.4 34 48 2:46.270 25.982 61 157 0
13:43:54.1 35 49 2:55.673 24.591 62 159 0
13:46:57.1 36 50 3:03.020 23.604 61 158 0
13:50:04.6 37 52 3:07.467 23.044 62 158 0
13:53:14.6 38 53 3:10.017 22.735 61 158 0
13:56:23.8 39 54 3:09.172 22.836 63 158 0
14:00:39.2 40 56 4:15.404 16.914 61 158 0
14:03:46.6 41 58 3:07.459 23.045 57 161 0
14:06:55.5 42 59 3:08.868 22.873 61 159 0
14:10:06.2 43 61 3:10.715 22.652 61 159 0
14:13:11.1 44 62 3:04.884 23.366 62 159 0
14:16:21.5 45 63 3:10.431 22.685 62 159 0
14:19:38.8 46 64 3:17.274 21.898 61 159 0
14:22:52.9 47 66 3:14.074 22.260 62 159 0
14:27:26.3 48 68 4:33.413 15.800 62 159 0
14:30:37.9 49 69 3:11.599 22.547 61 161 0
14:33:53.5 50 71 3:15.571 22.089 63 159 0
14:37:05.9 51 72 3:12.441 22.448 65 159 0
14:40:23.6 52 74 3:17.664 21.855 64 159 0
14:43:52.4 53 75 3:28.868 20.683 66 162 0
14:47:22.1 54 77 3:29.693 20.602 66 160 0
14:51:01.6 55 79 3:39.462 19.685 66 161 0
14:54:39.6 56 80 3:37.991 19.817 67 161 0
14:58:23.0 57 82 3:43.383 19.339 66 159 0
15:02:38.0 58 84 4:15.041 16.938 59 158 0
15:05:49.0 59 85 3:10.959 22.623 63 158 0
15:08:54.1 60 87 3:05.099 23.339 61 157 0
15:11:55.3 61 88 3:01.237 23.836 60 158 0
15:15:08.8 62 90 3:13.524 22.323 60 158 0
15:18:23.9 63 91 3:15.097 22.143 62 159 0
15:21:39.5 64 93 3:15.594 22.087 57 158 0
15:24:52.9 65 94 3:13.372 22.340 62 158 0
15:27:56.2 66 95 3:03.281 23.570 62 158 0
15:31:58.7 67 97 4:02.580 17.809 57 159 0
15:34:47.3 68 98 2:48.566 25.628 62 159 0
15:37:46.1 69 99 2:58.831 24.157 59 159 0
15:40:46.8 70 101 3:00.638 23.915 73 162 0
15:43:52.1 71 102 3:05.298 23.314 64 159 0
15:46:55.2 72 104 3:03.138 23.589 63 159 0
15:50:24.2 73 105 3:29.037 20.666 68 160 0
15:53:36.7 74 107 3:12.453 22.447 66 160 0
15:57:27.2 75 109 3:50.537 18.739 61 158 0
16:00:22.4 76 110 2:55.193 24.659 61 158 0
16:03:19.2 77 111 2:56.784 24.437 60 158 0
16:06:29.5 78 113 3:10.267 22.705 63 158 0
16:09:36.0 79 114 3:06.527 23.160 61 157 0
16:12:33.9 80 115 2:57.858 24.289 61 158 0
16:15:33.0 81 117 2:59.166 24.112 62 158 0
16:18:40.5 82 118 3:07.476 23.043 63 157 0
16:22:38.2 83 120 3:57.716 18.173 60 158 0
16:25:18.2 84 121 2:39.935 27.011 57 156 0
16:27:59.4 85 122 2:41.233 26.794 59 157 0
16:30:43.1 86 123 2:43.725 26.386 60 156 0
16:33:31.7 87 125 2:48.539 25.632 61 157 0
16:36:23.6 88 126 2:51.971 25.121 61 157 0
16:39:13.2 89 127 2:49.523 25.483 61 158 0
16:42:08.0 90 129 2:54.898 24.700 62 159 0
16:45:10.0 91 130 3:01.956 23.742 63 159 0
16:48:04.6 92 131 2:54.560 24.748 62 159 0
16:51:00.9 93 133 2:56.362 24.495 58 158 0
16:53:57.2 94 134 2:56.322 24.501 60 157 0
16:57:54.1 95 135 3:56.851 18.239 59 157 0
17:00:48.0 96 136 2:53.889 24.843 61 157 0
17:03:43.3 97 137 2:55.286 24.645 55 156 0
17:06:28.0 98 138 2:44.759 26.220 60 157 0
17:09:22.9 99 140 2:54.903 24.699 59 156 0
17:12:17.4 100 141 2:54.413 24.769 60 157 0
17:15:13.3 101 142 2:55.907 24.558 58 156 0
17:18:07.0 102 144 2:53.777 24.859 58 155 0
17:21:03.0 103 145 2:56.005 24.545 59 156 0
17:24:00.1 104 147 2:57.057 24.399 59 157 0
17:26:57.3 105 148 2:57.207 24.378 61 156 0
17:30:07.8 106 150 3:10.511 22.676 60 157 0
17:34:04.1 107 151 3:56.322 18.280 57 156 0
17:36:46.8 108 153 2:42.692 26.553 60 155 0
17:39:31.2 109 154 2:44.396 26.278 61 157 0
17:42:17.3 110 155 2:46.039 26.018 57 155 0
17:44:54.6 111 156 2:37.340 27.456 59 155 0
17:48:46.1 112 158 3:51.472 18.663 61 156 0
17:51:51.6 113 160 3:05.517 23.286 63 157 0
17:54:53.8 114 161 3:02.229 23.706 61 156 0
17:57:55.9 115 162 3:02.112 23.722 61 157 0
18:01:01.7 116 164 3:05.722 23.261 61 157 0
63 - Taurus SMS/BGS - B1 {YR7-8)
12:02:15.6 1 1 2:52.180 25.090 59 170 0
12:05:18.4 2 3 3:02.801 23.632 63 170 0
12:08:25.8 3 4 3:07.423 23.049 64 168 0
12:11:38.9 4 6 3:13.063 22.376 65 168 0
12:14:51.5 5 7 3:12.580 22.432 64 170 0
12:18:14.8 6 9 3:23.300 21.249 65 168 0
12:21:41.5 7 11 3:26.703 20.900 66 170 0
12:26:48.2 8 13 5:06.775 14.082 84 184 0
12:30:16.8 9 15 3:28.591 20.710 65 168 0
12:33:28.8 10 16 3:11.978 22.503 63 168 0
12:36:38.3 11 18 3:09.470 22.800 64 168 0
12:39:48.7 12 19 3:10.419 22.687 65 168 0
12:42:59.2 13 21 3:10.510 22.676 64 168 0
12:46:09.6 14 22 3:10.346 22.696 63 167 0
12:49:28.3 15 24 3:18.720 21.739 62 169 0
12:52:43.4 16 25 3:15.167 22.135 64 168 0
12:56:00.5 17 27 3:17.073 21.921 66 168 0
12:59:18.8 18 29 3:18.249 21.791 66 169 0
13:02:44.3 19 30 3:25.566 21.015 66 170 0
13:06:08.4 20 32 3:24.072 21.169 62 169 0
13:11:32.7 21 34 5:24.263 13.323 84 183 0
13:15:03.1 22 35 3:30.466 20.526 63 170 0
13:18:24.9 23 37 3:21.781 21.409 64 169 0
13:21:47.0 24 39 3:22.137 21.372 64 170 0
13:25:13.0 25 40 3:25.962 20.975 66 170 0
13:28:47.5 26 42 3:34.469 20.143 64 170 0
13:32:30.8 27 44 3:43.357 19.341 68 169 0
13:38:14.7 28 46 5:43.871 12.563 81 182 0
13:41:04.3 29 48 2:49.557 25.478 58 168 0
13:43:53.6 30 49 2:49.308 25.516 61 169 0
13:46:50.4 31 50 2:56.864 24.426 61 167 0
13:50:03.2 32 52 3:12.759 22.411 62 169 0
13:53:06.9 33 53 3:03.751 23.510 63 170 0
13:57:23.5 34 55 4:16.607 16.835 83 183 0
14:00:28.7 35 56 3:05.177 23.329 61 168 0
14:03:26.1 36 58 2:57.392 24.353 62 168 0
14:06:25.8 37 59 2:59.718 24.038 62 169 0
14:09:26.5 38 60 3:00.629 23.916 63 169 0
14:12:29.3 39 62 3:02.803 23.632 62 169 0
14:17:15.0 40 63 4:45.688 15.121 84 183 0
14:20:57.9 41 65 3:42.948 19.377 66 169 0
14:33:24.1 42 71 12:26.240 5.789 79 183 0
14:36:27.0 43 72 3:02.863 23.624 58 168 0
14:39:20.6 44 73 2:53.553 24.892 58 170 0
14:42:27.0 45 75 3:06.481 23.166 64 170 0
14:45:37.6 46 76 3:10.551 22.671 62 170 0
14:49:59.3 47 78 4:21.710 16.507 84 184 0
14:52:44.2 48 79 2:44.883 26.200 56 170 0
14:55:29.6 49 81 2:45.381 26.122 61 169 0
14:58:22.3 50 82 2:52.783 25.002 60 169 0
15:01:10.6 51 83 2:48.215 25.681 59 170 0
15:04:01.4 52 85 2:50.824 25.289 60 170 0
15:06:48.5 53 86 2:47.154 25.844 61 169 0
15:09:43.7 54 87 2:55.137 24.666 61 168 0
15:12:33.8 55 88 2:50.169 25.387 61 169 0
15:15:32.0 56 90 2:58.109 24.255 63 171 0
15:18:30.8 57 91 2:58.833 24.157 64 169 0
15:21:27.9 58 93 2:57.090 24.394 58 168 0
15:24:23.9 59 94 2:56.057 24.538 63 170 0
15:27:18.3 60 95 2:54.392 24.772 62 169 0
15:30:14.3 61 96 2:56.011 24.544 62 170 0
15:33:13.8 62 97 2:59.416 24.078 65 172 0
15:36:19.7 63 99 3:05.915 23.236 65 170 0
15:39:16.2 64 100 2:56.547 24.469 57 167 0
15:43:07.6 65 102 3:51.336 18.674 78 187 0
15:45:41.8 66 103 2:34.216 28.013 57 168 0
15:48:13.6 67 104 2:31.782 28.462 56 166 0
15:50:52.5 68 106 2:38.955 27.178 60 168 0
15:53:30.9 69 107 2:38.432 27.267 59 168 0
15:56:06.8 70 108 2:35.814 27.725 59 169 0
15:58:51.7 71 109 2:44.917 26.195 58 169 0
16:01:44.0 72 110 2:52.291 25.074 61 170 0
16:04:38.7 73 112 2:54.722 24.725 62 171 0
16:07:42.3 74 113 3:03.661 23.522 61 167 0
16:10:38.0 75 115 2:55.612 24.600 59 166 0
16:13:28.1 76 116 2:50.107 25.396 63 168 0
16:16:19.1 77 117 2:51.048 25.256 61 168 0
16:19:09.8 78 118 2:50.680 25.311 61 167 0
16:21:57.8 79 120 2:48.024 25.711 62 168 0
16:25:06.5 80 121 3:08.700 22.893 63 170 0
16:28:18.1 81 122 3:11.542 22.554 65 168 0
16:32:44.3 82 124 4:26.255 16.225 80 180 0
16:35:27.5 83 126 2:43.211 26.469 55 167 0
16:37:54.5 84 127 2:26.980 29.392 57 166 0
16:40:27.1 85 128 2:32.604 28.309 58 166 0
16:43:04.7 86 129 2:37.555 27.419 59 167 0
16:45:43.1 87 130 2:38.435 27.267 58 168 0
16:48:18.4 88 131 2:35.276 27.821 58 166 0
16:50:59.5 89 133 2:41.139 26.809 57 166 0
16:53:40.5 90 134 2:41.035 26.826 58 167 0
16:56:19.4 91 135 2:38.807 27.203 57 165 0
16:59:03.3 92 135 2:43.909 26.356 58 169 0
17:01:45.4 93 136 2:42.149 26.642 59 167 0
17:04:33.1 94 137 2:47.698 25.761 59 167 0
17:07:20.9 95 139 2:47.799 25.745 59 166 0
17:10:13.8 96 140 2:52.904 24.985 60 166 0
17:12:57.6 97 141 2:43.773 26.378 61 167 0
17:16:56.4 98 143 3:58.822 18.089 83 185 0
17:19:27.0 99 144 2:30.616 28.682 55 164 0
17:21:54.1 100 146 2:27.073 29.373 58 167 0
17:24:24.9 101 147 2:30.790 28.649 58 168 0
17:26:58.2 102 148 2:33.347 28.171 56 166 0
17:29:35.0 103 149 2:36.802 27.551 55 168 0
17:32:12.0 104 150 2:36.949 27.525 54 166 0
17:34:50.8 105 152 2:38.799 27.204 54 166 0
17:37:27.0 106 153 2:36.231 27.651 60 169 0
17:40:09.1 107 154 2:42.096 26.651 60 167 0
17:42:55.0 108 156 2:45.880 26.043 59 170 0
17:45:37.9 109 157 2:42.939 26.513 57 167 0
17:48:21.6 110 158 2:43.656 26.397 58 167 0
17:51:08.3 111 159 2:46.723 25.911 57 169 0
17:53:52.6 112 160 2:44.253 26.301 60 167 0
17:56:37.4 113 162 2:44.850 26.206 60 168 0
17:59:22.2 114 163 2:44.814 26.211 54 166 0
18:02:02.8 115 164 2:40.559 26.906 57 166 0
53 - Cassiopeia SMS/BGS - C (YR11-12)
12:02:00.8 1 1 2:45.117 26.163 62 168 0
12:05:09.8 2 3 3:08.966 22.861 62 167 0
12:08:27.6 3 4 3:17.884 21.831 64 168 0
12:11:43.9 4 6 3:16.220 22.016 65 166 0
12:15:07.5 5 7 3:23.680 21.210 67 165 0
12:18:38.0 6 9 3:30.417 20.531 66 167 0
12:22:18.2 7 11 3:40.233 19.616 68 168 0
12:25:53.5 8 13 3:35.258 20.069 65 168 0
12:30:49.6 9 15 4:56.169 14.586 84 182 0
12:33:33.7 10 16 2:44.113 26.323 57 164 0
12:36:10.2 11 17 2:36.440 27.614 58 164 0
12:39:01.4 12 19 2:51.270 25.223 59 166 0
12:41:50.9 13 20 2:49.440 25.496 59 165 0
12:44:35.7 14 21 2:44.815 26.211 60 165 0
12:47:30.0 15 23 2:54.281 24.788 61 165 0
12:50:23.8 16 24 2:53.785 24.858 56 166 0
12:53:03.9 17 26 2:40.184 26.969 60 166 0
12:57:37.7 18 28 4:33.749 15.781 83 180 0
13:00:15.3 19 29 2:37.581 27.414 61 165 0
13:03:05.8 20 30 2:50.555 25.329 60 167 0
13:06:10.5 21 32 3:04.630 23.398 65 169 0
13:09:37.3 22 33 3:26.887 20.881 67 169 0
13:12:55.5 23 35 3:18.182 21.798 59 166 0
13:15:56.5 24 36 3:00.964 23.872 63 169 0
13:20:14.8 25 38 4:18.301 16.725 80 181 0
13:23:11.9 26 39 2:57.139 24.388 59 165 0
13:25:59.2 27 41 2:47.243 25.831 59 164 0
13:28:51.2 28 42 2:52.045 25.110 60 166 0
13:31:44.8 29 43 2:53.611 24.883 58 164 0
13:34:38.6 30 45 2:53.737 24.865 51 168 0
13:37:38.0 31 46 2:59.442 24.075 61 166 0
13:40:32.7 32 47 2:54.680 24.731 59 167 0
13:47:29.5 33 51 6:56.813 10.364 84 183 0
13:50:31.1 34 52 3:01.565 23.793 58 165 0
13:53:27.4 35 53 2:56.319 24.501 56 165 0
13:56:32.0 36 54 3:04.560 23.407 60 166 0
13:59:41.9 37 56 3:09.937 22.744 60 167 0
14:02:51.0 38 57 3:09.070 22.849 62 168 0
14:06:00.8 39 59 3:09.869 22.753 60 168 0
14:10:35.9 40 61 4:35.086 15.704 84 181 0
14:13:31.9 41 62 2:55.984 24.548 60 165 0
14:16:27.1 42 63 2:55.234 24.653 61 167 0
14:19:33.6 43 64 3:06.511 23.162 59 165 0
14:22:14.2 44 66 2:40.536 26.910 58 165 0
14:25:04.4 45 67 2:50.209 25.381 62 166 0
14:28:07.9 46 68 3:03.491 23.543 61 167 0
14:31:06.5 47 70 2:58.624 24.185 59 166 0
14:34:12.1 48 71 3:05.568 23.280 61 170 0
14:38:57.4 49 73 4:45.333 15.140 77 177 0
14:41:44.3 50 74 2:46.908 25.883 59 165 0
14:44:26.5 51 76 2:42.193 26.635 57 165 0
14:47:10.0 52 77 2:43.488 26.424 58 166 0
14:49:53.8 53 78 2:43.823 26.370 58 164 0
14:52:37.4 54 79 2:43.590 26.407 57 164 0
14:55:19.7 55 81 2:42.331 26.612 59 166 0
14:58:03.1 56 82 2:43.343 26.447 54 167 0
15:00:51.6 57 83 2:48.529 25.634 61 165 0
15:05:20.9 58 85 4:29.330 16.040 78 180 0
15:08:25.4 59 87 3:04.467 23.419 61 167 0
15:11:33.5 60 88 3:08.054 22.972 59 165 0
15:14:38.6 61 89 3:05.166 23.330 62 164 0
15:17:52.9 62 91 3:14.272 22.237 63 168 0
15:21:15.9 63 92 3:23.024 21.278 64 167 0
15:24:38.7 64 94 3:22.769 21.305 64 168 0
15:29:21.3 65 95 4:42.594 15.287 84 182 0
15:32:18.6 66 97 2:57.345 24.359 58 166 0
15:34:53.7 67 98 2:35.082 27.856 61 166 0
15:37:46.5 68 99 2:52.829 24.996 58 167 0
15:40:39.4 69 101 2:52.842 24.994 57 164 0
15:43:23.3 70 102 2:43.900 26.358 60 165 0
15:46:16.7 71 103 2:53.391 24.915 59 164 0
15:49:13.6 72 105 2:56.885 24.423 60 167 0
15:52:15.4 73 106 3:01.794 23.763 62 168 0
15:57:11.5 74 108 4:56.173 14.586 82 181 0
15:59:52.8 75 110 2:41.302 26.782 58 166 0
16:02:42.0 76 111 2:49.193 25.533 60 167 0
16:05:43.8 77 112 3:01.802 23.762 58 170 0
16:08:43.4 78 114 2:59.615 24.051 62 167 0
16:11:46.5 79 115 3:03.030 23.603 61 167 0
16:14:51.6 80 116 3:05.113 23.337 61 169 0
16:17:59.2 81 118 3:07.622 23.025 60 166 0
16:22:21.3 82 120 4:22.121 16.481 83 182 0
16:25:14.4 83 121 2:53.055 24.963 58 166 0
16:28:02.6 84 122 2:48.247 25.677 59 165 0
16:30:52.8 85 124 2:50.161 25.388 55 165 0
16:33:44.6 86 125 2:51.781 25.148 60 165 0
16:36:37.9 87 126 2:53.359 24.919 59 165 0
16:39:32.0 88 127 2:54.085 24.815 59 167 0
16:44:26.6 89 130 4:54.594 14.664 81 181 0
16:47:34.7 90 131 3:08.136 22.962 60 168 0
16:50:37.2 91 132 3:02.414 23.682 60 167 0
16:53:39.9 92 134 3:02.741 23.640 61 165 0
16:56:47.0 93 135 3:07.116 23.087 61 165 0
16:59:52.2 94 135 3:05.224 23.323 61 168 0
17:04:34.1 95 137 4:41.826 15.329 83 180 0
17:07:39.0 96 139 3:04.889 23.365 62 166 0
17:10:50.4 97 140 3:11.419 22.568 60 166 0
17:13:43.0 98 142 2:52.635 25.024 61 165 0
17:16:47.9 99 143 3:04.881 23.366 56 163 0
17:19:43.6 100 145 2:55.758 24.579 61 164 0
17:22:49.6 101 146 3:05.950 23.232 59 163 0
17:25:54.2 102 147 3:04.564 23.407 62 167 0
17:29:01.1 103 149 3:06.970 23.105 62 168 0
17:33:46.4 104 151 4:45.235 15.145 73 177 0
17:36:31.8 105 153 2:45.443 26.112 54 164 0
17:39:17.2 106 154 2:45.426 26.114 58 164 0
17:41:58.6 107 155 2:41.394 26.767 54 162 0
17:44:44.7 108 156 2:46.117 26.006 58 165 0
17:47:36.2 109 158 2:51.444 25.198 59 165 0
17:50:26.5 110 159 2:50.267 25.372 58 164 0
17:53:11.1 111 160 2:44.614 26.243 59 164 0
17:56:06.7 112 162 2:55.624 24.598 52 165 0
17:58:55.9 113 163 2:49.248 25.525 59 165 0
18:01:51.1 114 164 2:55.179 24.660 61 163 0
30 - Open Wizard Wonthaggi SC - Open
12:01:41.7 1 1 2:25.133 29.766 57 129 0
12:04:19.2 2 2 2:37.497 27.429 47 132 0
12:07:05.0 3 3 2:45.810 26.054 57 129 0
12:09:42.3 4 5 2:37.269 27.469 57 130 0
12:12:24.8 5 6 2:42.455 26.592 55 132 0
12:15:07.1 6 7 2:42.357 26.608 59 130 0
12:17:51.6 7 9 2:44.505 26.261 54 131 0
12:20:30.7 8 10 2:39.042 27.163 59 133 0
12:23:14.3 9 11 2:43.614 26.404 58 130 0
12:26:02.3 10 13 2:48.009 25.713 58 131 0
12:28:48.5 11 14 2:46.184 25.995 58 134 0
12:31:35.7 12 15 2:47.172 25.842 59 134 0
12:34:19.7 13 17 2:44.064 26.331 56 131 0
12:37:05.9 14 18 2:46.206 25.992 58 134 0
12:41:43.2 15 20 4:37.317 15.578 58 132 0
12:44:43.0 16 22 2:59.731 24.036 58 132 0
12:47:45.9 17 23 3:02.900 23.619 57 131 0
12:50:47.9 18 24 3:02.065 23.728 60 134 0
12:53:57.0 19 26 3:09.098 22.845 60 134 0
12:57:20.1 20 28 3:23.048 21.276 58 134 0
13:00:07.5 21 29 2:47.442 25.800 58 136 0
13:03:08.7 22 30 3:01.164 23.846 58 134 0
13:06:11.0 23 32 3:02.328 23.694 58 132 0
13:11:36.3 24 34 5:25.260 13.282 63 137 0
13:14:50.1 25 35 3:13.795 22.292 55 134 0
13:18:15.8 26 37 3:25.714 21.000 62 134 0
13:21:28.1 27 39 3:12.272 22.468 63 137 0
13:24:52.1 28 40 3:24.032 21.173 61 136 0
13:28:13.8 29 42 3:21.689 21.419 58 134 0
13:31:32.1 30 43 3:18.329 21.782 62 136 0
13:35:33.3 31 45 4:01.216 17.909 63 134 0
13:38:44.0 32 47 3:10.633 22.661 58 130 0
13:43:05.2 33 49 4:21.258 16.535 48 130 0
13:45:50.1 34 50 2:44.848 26.206 57 133 0
13:48:39.9 35 51 2:49.871 25.431 57 132 0
13:51:28.5 36 52 2:48.537 25.632 58 131 0
13:54:18.3 37 53 2:49.782 25.444 58 131 0
13:57:07.6 38 55 2:49.339 25.511 58 130 0
13:59:55.3 39 56 2:47.684 25.763 58 135 0
14:02:38.9 40 57 2:43.618 26.403 55 134 0
14:05:28.6 41 59 2:49.674 25.461 56 135 0
14:08:19.0 42 60 2:50.389 25.354 60 135 0
14:11:15.6 43 61 2:56.604 24.462 59 137 0
14:16:14.6 44 63 4:59.050 14.446 65 135 0
14:19:35.2 45 64 3:20.546 21.541 52 136 0
14:22:29.4 46 66 2:54.227 24.795 56 134 0
14:25:17.6 47 67 2:48.209 25.682 58 132 0
14:28:16.3 48 68 2:58.737 24.170 62 136 0
14:31:14.2 49 70 2:57.825 24.294 61 132 0
14:34:10.2 50 71 2:56.067 24.536 62 134 0
14:37:15.4 51 72 3:05.134 23.334 59 135 0
14:40:23.1 52 74 3:07.779 23.006 60 135 0
14:43:34.0 53 75 3:10.826 22.638 62 134 0
14:48:17.2 54 77 4:43.229 15.253 59 132 0
14:51:21.9 55 79 3:04.761 23.382 59 133 0
14:54:41.4 56 80 3:19.458 21.659 63 137 0
14:58:04.2 57 82 3:22.747 21.307 61 136 0
15:01:28.3 58 83 3:24.137 21.162 60 137 0
15:04:54.4 59 85 3:26.117 20.959 62 135 0
15:08:27.1 60 87 3:32.666 20.314 63 137 0
15:11:48.1 61 88 3:21.019 21.491 62 135 0
15:15:12.1 62 90 3:23.979 21.179 63 137 0
15:19:10.0 63 91 3:57.890 18.160 56 133 0
15:21:38.4 64 93 2:28.444 29.102 57 133 0
15:24:16.3 65 94 2:37.919 27.356 57 132 0
15:26:56.4 66 95 2:40.051 26.991 57 132 0
15:29:34.6 67 96 2:38.268 27.295 56 134 0
15:32:16.4 68 97 2:41.751 26.708 55 135 0
15:35:11.8 69 98 2:55.401 24.629 59 136 0
15:37:58.0 70 100 2:46.247 25.985 57 133 0
15:40:49.2 71 101 2:51.192 25.235 58 136 0
15:43:39.5 72 102 2:50.281 25.370 53 132 0
15:46:30.0 73 104 2:50.470 25.342 59 134 0
15:49:24.4 74 105 2:54.441 24.765 58 133 0
15:52:19.9 75 106 2:55.459 24.621 60 134 0
15:55:12.7 76 107 2:52.785 25.002 57 133 0
15:58:06.4 77 109 2:53.763 24.861 56 135 0
16:02:35.0 78 111 4:28.521 16.088 60 135 0
16:05:32.7 79 112 2:57.784 24.299 60 135 0
16:08:39.1 80 114 3:06.314 23.187 60 135 0
16:11:46.8 81 115 3:07.762 23.008 60 140 0
16:15:20.9 82 117 3:34.133 20.174 61 137 0
16:19:40.4 83 119 4:19.440 16.651 64 137 0
16:23:57.3 84 120 4:16.932 16.814 63 136 0
16:27:17.1 85 122 3:19.754 21.627 62 135 0
16:32:51.4 86 124 5:34.364 12.920 65 138 0
16:36:50.1 87 126 3:58.626 18.104 68 139 0
16:40:42.6 88 128 3:52.523 18.579 69 137 0
16:44:30.3 89 130 3:47.683 18.974 55 136 0
16:47:42.9 90 131 3:12.625 22.427 64 137 0
16:51:19.9 91 133 3:37.051 19.903 62 139 0
16:54:29.8 92 134 3:09.894 22.750 58 136 0
16:58:46.2 93 135 4:16.404 16.848 47 132 0
17:01:30.2 94 136 2:43.940 26.351 57 133 0
17:04:17.3 95 137 2:47.076 25.856 57 134 0
17:07:03.3 96 138 2:46.072 26.013 60 135 0
17:09:49.0 97 140 2:45.631 26.082 57 133 0
17:12:35.6 98 141 2:46.612 25.929 59 137 0
17:15:23.2 99 142 2:47.634 25.770 56 134 0
17:20:49.6 100 145 5:26.374 13.236 60 133 0
17:23:32.7 101 146 2:43.141 26.480 62 133 0
17:26:34.3 102 148 3:01.547 23.795 63 135 0
17:29:38.9 103 149 3:04.641 23.397 57 138 0
17:32:39.6 104 151 3:00.679 23.910 60 134 0
17:37:25.7 105 153 4:46.126 15.098 53 136 0
17:40:42.2 106 154 3:16.435 21.992 62 134 0
17:44:03.4 107 156 3:21.298 21.461 62 137 0
17:47:30.5 108 158 3:27.052 20.864 62 135 0
17:50:53.2 109 159 3:22.740 21.308 63 137 0
17:54:13.4 110 161 3:20.111 21.588 63 137 0
17:57:44.5 111 162 3:31.126 20.462 63 136 0
18:01:14.3 112 164 3:29.797 20.591 64 135 0
65 - JPPS 1 Jells Park PS - Primary
12:02:42.1 1 1 3:10.982 22.620 59 185 0
12:05:30.9 2 3 2:48.864 25.583 60 185 0
12:08:30.0 3 4 2:59.039 24.129 62 182 0
12:11:54.9 4 6 3:24.964 21.077 73 194 0
12:14:55.5 5 7 3:00.565 23.925 61 185 0
12:17:56.0 6 9 3:00.490 23.935 64 180 0
12:21:23.2 7 10 3:27.249 20.844 78 196 0
12:24:29.7 8 12 3:06.426 23.173 65 183 0
12:27:30.3 9 13 3:00.643 23.915 63 183 0
12:30:32.6 10 15 3:02.319 23.695 63 186 0
12:33:31.4 11 16 2:58.741 24.169 61 182 0
12:37:27.9 12 18 3:56.534 18.264 75 197 0
12:40:33.9 13 20 3:05.984 23.228 62 185 0
12:43:41.4 14 21 3:07.502 23.040 61 180 0
12:46:48.7 15 23 3:07.301 23.064 63 182 0
12:49:53.4 16 24 3:04.678 23.392 63 182 0
12:53:01.0 17 26 3:07.592 23.029 66 184 0
12:56:17.6 18 27 3:16.608 21.973 65 186 0
13:00:12.0 19 29 3:54.423 18.428 74 195 0
13:03:33.1 20 31 3:21.055 21.487 63 184 0
13:06:53.4 21 32 3:20.302 21.567 67 186 0
13:10:17.4 22 34 3:24.008 21.176 68 186 0
13:13:43.5 23 35 3:26.184 20.952 63 187 0
13:18:14.6 24 37 4:31.039 15.939 75 196 0
13:21:31.2 25 39 3:16.649 21.968 62 185 0
13:24:41.3 26 40 3:10.023 22.734 61 182 0
13:27:58.3 27 42 3:17.003 21.929 64 184 0
13:31:10.5 28 43 3:12.262 22.469 63 186 0
13:34:20.0 29 45 3:09.508 22.796 64 184 0
13:37:32.5 30 46 3:12.504 22.441 59 185 0
13:40:39.3 31 48 3:06.741 23.134 62 183 0
13:43:50.9 32 49 3:11.665 22.539 61 186 0
13:46:58.9 33 50 3:07.947 22.985 62 188 0
13:51:00.8 34 52 4:01.876 17.860 80 196 0
13:54:08.5 35 53 3:07.744 23.010 63 184 0
13:57:06.6 36 55 2:58.044 24.264 58 181 0
14:00:07.4 37 56 3:00.836 23.889 60 187 0
14:03:05.1 38 57 2:57.738 24.305 60 185 0
14:06:08.8 39 59 3:03.695 23.517 63 183 0
14:09:16.2 40 60 3:07.360 23.057 62 186 0
14:12:29.7 41 62 3:13.483 22.328 65 186 0
14:15:43.1 42 63 3:13.446 22.332 66 184 0
14:18:56.1 43 64 3:12.962 22.388 63 185 0
14:22:07.7 44 66 3:11.649 22.541 65 183 0
14:26:37.6 45 68 4:29.910 16.005 78 196 0
14:30:00.7 46 69 3:23.031 21.278 65 186 0
14:33:18.7 47 71 3:18.042 21.814 65 185 0
14:36:29.0 48 72 3:10.280 22.703 63 188 0
14:39:41.6 49 74 3:12.661 22.423 63 186 0
14:42:55.0 50 75 3:13.321 22.346 66 187 0
14:46:09.8 51 76 3:14.862 22.170 64 183 0
14:49:28.9 52 78 3:19.114 21.696 65 186 0
14:52:44.1 53 79 3:15.146 22.137 61 186 0
14:56:04.8 54 81 3:20.666 21.528 65 184 0
15:00:10.0 55 83 4:05.210 17.618 73 192 0
15:03:14.8 56 84 3:04.837 23.372 66 182 0
15:06:27.9 57 86 3:13.082 22.374 63 184 0
15:09:47.0 58 87 3:19.096 21.698 66 181 0
15:13:20.1 59 89 3:33.082 20.274 64 182 0
15:16:42.1 60 90 3:22.055 21.380 64 183 0
15:20:07.7 61 92 3:25.592 21.012 67 182 0
15:23:39.2 62 94 3:31.488 20.427 66 184 0
15:27:13.3 63 95 3:34.089 20.179 66 181 0
15:30:50.4 64 96 3:37.082 19.900 65 183 0
15:35:20.6 65 98 4:30.245 15.985 72 194 0
15:38:20.4 66 100 2:59.838 24.022 61 187 0
15:41:15.0 67 101 2:54.544 24.750 63 182 0
15:44:18.3 68 102 3:03.287 23.570 63 184 0
15:47:58.8 69 104 3:40.555 19.587 62 183 0
15:52:06.4 70 106 4:07.517 17.453 80 195 0
15:55:23.6 71 108 3:17.289 21.897 62 184 0
15:58:33.2 72 109 3:09.586 22.786 62 182 0
16:01:39.1 73 110 3:05.921 23.236 67 182 0
16:06:14.9 74 113 4:35.765 15.666 74 193 0
16:09:58.1 75 114 3:43.200 19.355 65 181 0
16:13:41.7 76 116 3:43.549 19.325 70 183 0
16:17:38.9 77 118 3:57.219 18.211 66 182 0
16:21:35.9 78 119 3:57.053 18.224 71 183 0
16:25:29.5 79 121 3:53.568 18.496 65 183 0
16:29:16.6 80 123 3:47.121 19.021 68 182 0
16:33:59.1 81 125 4:42.489 15.293 73 191 0
16:36:51.1 82 126 2:51.994 25.117 62 182 0
16:39:40.2 83 128 2:49.058 25.553 63 185 0
16:42:31.8 84 129 2:51.590 25.176 61 184 0
16:45:25.1 85 130 2:53.325 24.924 60 185 0
16:48:21.7 86 131 2:56.644 24.456 61 183 0
16:51:20.9 87 133 2:59.211 24.106 61 181 0
16:54:20.5 88 134 2:59.611 24.052 62 180 0
16:57:26.0 89 135 3:05.451 23.295 65 189 0
17:00:37.8 90 135 3:11.829 22.520 60 184 0
17:03:38.9 91 137 3:01.113 23.853 62 183 0
17:06:43.6 92 138 3:04.674 23.393 61 183 0
17:11:05.0 93 140 4:21.387 16.527 74 195 0
17:14:19.0 94 142 3:13.956 22.273 64 189 0
17:17:29.7 95 143 3:10.735 22.649 63 184 0
17:20:44.7 96 145 3:15.033 22.150 63 190 0
17:23:59.4 97 147 3:14.712 22.187 66 182 0
17:27:08.6 98 148 3:09.155 22.838 62 184 0
17:31:23.9 99 150 4:15.322 16.920 76 193 0
17:34:18.6 100 152 2:54.648 24.735 62 189 0
17:37:16.1 101 153 2:57.492 24.339 61 183 0
17:40:08.3 102 154 2:52.204 25.087 62 181 0
17:43:06.3 103 156 2:58.046 24.263 61 194 0
17:46:01.1 104 157 2:54.822 24.711 58 186 0
17:48:50.6 105 158 2:49.487 25.489 62 182 0
17:51:47.2 106 160 2:56.632 24.458 61 184 0
17:54:45.7 107 161 2:58.418 24.213 64 182 0
17:57:43.7 108 162 2:58.088 24.258 63 181 0
18:00:46.7 109 164 3:02.917 23.617 63 184 0
24 - Miss Janey Maiden Gully PS - Primary
12:02:31.6 1 1 3:05.325 23.310 59 154 0
12:05:31.7 2 3 3:00.142 23.981 58 154 0
12:08:38.2 3 4 3:06.448 23.170 58 155 0
12:11:36.9 4 6 2:58.735 24.170 58 154 0
12:14:40.1 5 7 3:03.171 23.585 59 153 0
12:17:45.3 6 9 3:05.241 23.321 61 154 0
12:21:02.3 7 10 3:16.964 21.933 62 155 0
12:24:25.5 8 12 3:23.287 21.251 61 156 0
12:27:39.6 9 13 3:14.060 22.261 58 155 0
12:31:00.3 10 15 3:20.726 21.522 60 155 0
12:35:15.3 11 17 4:14.991 16.942 55 153 0
12:38:06.6 12 18 2:51.269 25.223 57 153 0
12:41:09.3 13 20 3:02.721 23.643 60 154 0
12:44:21.4 14 21 3:12.039 22.495 59 154 0
12:47:44.9 15 23 3:23.595 21.219 62 156 0
12:51:03.8 16 25 3:18.870 21.723 61 156 0
12:54:19.3 17 26 3:15.487 22.099 59 154 0
12:58:44.1 18 28 4:24.787 16.315 58 154 0
13:01:56.0 19 30 3:11.866 22.516 60 154 0
13:05:05.9 20 31 3:09.896 22.749 62 155 0
13:08:15.1 21 33 3:09.288 22.822 60 155 0
13:11:26.2 22 34 3:11.036 22.614 61 154 0
13:14:49.0 23 35 3:22.838 21.298 63 156 0
13:18:03.5 24 37 3:14.447 22.217 63 155 0
13:21:22.3 25 39 3:18.790 21.731 58 155 0
13:25:38.6 26 41 4:16.312 16.854 58 156 0
13:28:41.3 27 42 3:02.737 23.641 60 155 0
13:31:46.6 28 43 3:05.285 23.315 57 158 0
13:34:49.7 29 45 3:03.068 23.598 57 154 0
13:37:49.9 30 46 3:00.262 23.965 60 155 0
13:40:51.2 31 48 3:01.292 23.829 58 154 0
13:43:56.0 32 49 3:04.810 23.375 57 154 0
13:47:00.3 33 50 3:04.260 23.445 60 156 0
13:49:59.1 34 52 2:58.810 24.160 56 153 0
13:54:03.2 35 53 4:04.124 17.696 56 154 0
13:57:06.7 36 55 3:03.448 23.549 50 157 0
14:00:07.2 37 56 3:00.526 23.930 57 153 0
14:03:08.7 38 57 3:01.558 23.794 57 153 0
14:06:08.7 39 59 2:59.966 24.005 57 154 0
14:09:18.4 40 60 3:09.673 22.776 59 155 0
14:12:30.5 41 62 3:12.103 22.488 59 154 0
14:15:44.8 42 63 3:14.263 22.238 58 154 0
14:18:55.8 43 64 3:11.072 22.609 60 154 0
14:23:26.7 44 66 4:30.912 15.946 63 158 0
14:27:08.2 45 68 3:41.427 19.510 62 155 0
14:30:38.2 46 69 3:30.066 20.565 61 155 0
14:33:59.6 47 71 3:21.367 21.453 63 156 0
14:37:26.4 48 73 3:26.819 20.888 61 156 0
14:40:56.0 49 74 3:29.544 20.616 63 156 0
14:44:25.0 50 76 3:29.063 20.664 61 155 0
14:47:52.4 51 77 3:27.384 20.831 62 155 0
14:51:29.5 52 79 3:37.067 19.902 62 155 0
14:55:32.9 53 81 4:03.411 17.748 59 154 0
14:58:54.5 54 82 3:21.619 21.427 61 155 0
15:02:21.3 55 84 3:26.817 20.888 62 154 0
15:05:52.9 56 85 3:31.569 20.419 62 154 0
15:09:21.8 57 87 3:28.877 20.682 62 154 0
15:13:02.7 58 89 3:40.945 19.552 64 155 0
15:17:01.5 59 90 3:58.747 18.094 60 154 0
15:20:54.3 60 92 3:52.865 18.552 65 155 0
15:25:10.7 61 94 4:16.421 16.847 57 153 0
15:28:24.9 62 95 3:14.150 22.251 62 155 0
15:31:51.8 63 97 3:26.928 20.877 64 156 0
15:35:24.7 64 98 3:32.829 20.298 63 155 0
15:38:49.0 65 100 3:24.355 21.140 66 156 0
15:42:33.7 66 102 3:44.707 19.225 62 155 0
15:46:59.2 67 104 4:25.522 16.270 58 155 0
15:50:26.0 68 105 3:26.814 20.888 60 156 0
15:53:51.4 69 107 3:25.375 21.035 57 153 0
15:57:22.4 70 109 3:31.014 20.473 57 154 0
16:00:42.7 71 110 3:20.219 21.576 60 154 0
16:04:07.2 72 112 3:24.555 21.119 62 154 0
16:07:33.5 73 113 3:26.278 20.943 60 154 0
16:12:32.3 74 115 4:58.772 14.459 55 156 0
16:15:42.2 75 117 3:09.965 22.741 60 154 0
16:19:05.9 76 118 3:23.722 21.205 57 153 0
16:22:14.3 77 120 3:08.321 22.940 59 154 0
16:25:22.1 78 121 3:07.807 23.002 59 152 0
16:28:30.5 79 122 3:08.389 22.931 61 154 0
16:31:44.1 80 124 3:13.610 22.313 60 153 0
16:35:01.0 81 125 3:16.895 21.941 60 153 0
16:38:13.8 82 127 3:12.855 22.400 59 153 0
16:41:23.7 83 128 3:09.896 22.749 60 153 0
16:45:25.2 84 130 4:01.503 17.888 59 152 0
16:48:36.8 85 132 3:11.604 22.547 59 152 0
16:51:57.2 86 133 3:20.343 21.563 54 154 0
16:55:13.6 87 134 3:16.403 21.996 57 153 0
16:58:26.7 88 135 3:13.118 22.370 58 152 0
17:01:42.6 89 136 3:15.894 22.053 60 153 0
17:05:08.0 90 138 3:25.403 21.032 61 153 0
17:08:49.4 91 139 3:41.377 19.514 62 153 0
17:12:59.0 92 141 4:09.670 17.303 58 153 0
17:16:12.4 93 143 3:13.378 22.340 60 153 0
17:19:28.9 94 144 3:16.472 21.988 61 152 0
17:22:40.6 95 146 3:11.703 22.535 60 153 0
17:26:03.6 96 148 3:23.026 21.278 60 153 0
17:29:27.6 97 149 3:24.006 21.176 61 153 0
17:33:34.0 98 151 4:06.338 17.537 57 152 0
17:36:31.9 99 153 2:57.965 24.274 54 152 0
17:39:44.3 100 154 3:12.327 22.462 58 152 0
17:42:47.0 101 155 3:02.734 23.641 58 151 0
17:45:45.3 102 157 2:58.327 24.225 56 152 0
17:49:38.5 103 159 3:53.153 18.529 56 151 0
17:52:40.7 104 160 3:02.198 23.710 57 151 0
17:55:43.6 105 161 3:02.968 23.611 57 152 0
17:58:50.1 106 163 3:06.485 23.165 56 152 0
18:02:01.7 107 164 3:11.547 22.553 59 153 0
72 - Kestrel KooWeeRup - B2 (YR9-10)
12:02:18.1 1 1 3:02.454 23.677 61 136 0
12:05:28.9 2 3 3:10.855 22.635 61 139 0
12:08:52.2 3 4 3:23.293 21.250 65 138 0
12:12:12.5 4 6 3:20.263 21.572 66 140 0
12:15:39.0 5 8 3:26.526 20.917 63 138 0
12:19:09.5 6 9 3:30.459 20.527 64 138 0
12:22:43.0 7 11 3:33.479 20.236 55 138 0
12:26:15.6 8 13 3:32.649 20.315 64 137 0
12:29:41.1 9 14 3:25.477 21.024 65 137 0
12:33:20.8 10 16 3:39.692 19.664 65 140 0
12:36:53.0 11 18 3:32.168 20.361 67 141 0
12:41:50.1 12 20 4:57.126 14.539 57 137 0
12:44:43.9 13 22 2:53.856 24.848 61 138 0
12:47:54.3 14 23 3:10.334 22.697 64 140 0
12:51:09.2 15 25 3:14.944 22.160 62 139 0
12:54:19.0 16 26 3:09.811 22.759 60 140 0
12:57:37.0 17 28 3:17.953 21.823 64 142 0
13:00:51.5 18 29 3:14.508 22.210 64 142 0
13:04:16.1 19 31 3:24.660 21.108 63 139 0
13:09:26.3 20 33 5:10.133 13.930 61 137 0
13:12:27.0 21 35 3:00.757 23.899 59 138 0
13:15:33.9 22 36 3:06.865 23.118 61 137 0
13:18:37.6 23 37 3:03.746 23.511 61 136 0
13:21:40.4 24 39 3:02.801 23.632 60 139 0
13:24:43.0 25 40 3:02.592 23.659 58 137 0
13:27:41.7 26 41 2:58.660 24.180 59 136 0
13:30:35.6 27 43 2:53.888 24.844 60 136 0
13:33:36.5 28 44 3:00.918 23.878 61 137 0
13:36:34.2 29 46 2:57.650 24.317 60 137 0
13:41:21.5 30 48 4:47.334 15.035 58 136 0
13:44:13.2 31 49 2:51.663 25.166 50 136 0
13:47:09.4 32 50 2:56.265 24.509 59 137 0
13:50:08.9 33 52 2:59.499 24.067 58 136 0
13:53:05.2 34 53 2:56.283 24.506 54 136 0
13:56:00.8 35 54 2:55.611 24.600 58 136 0
13:58:59.8 36 56 2:59.005 24.133 58 136 0
14:03:26.9 37 58 4:27.037 16.178 57 137 0
14:06:28.0 38 59 3:01.159 23.846 58 137 0
14:09:44.2 39 60 3:16.192 22.019 63 139 0
14:13:04.3 40 62 3:20.098 21.589 61 138 0
14:16:23.1 41 63 3:18.758 21.735 63 139 0
14:19:51.3 42 65 3:28.250 20.744 65 138 0
14:23:25.2 43 66 3:33.886 20.198 65 139 0
14:26:45.1 44 68 3:19.932 21.607 65 139 0
14:31:24.2 45 70 4:39.100 15.478 62 138 0
14:34:27.5 46 71 3:03.277 23.571 59 137 0
14:37:25.8 47 73 2:58.286 24.231 60 138 0
14:40:27.9 48 74 3:02.103 23.723 62 137 0
14:43:36.6 49 75 3:08.671 22.897 61 139 0
14:46:43.5 50 77 3:06.986 23.103 59 138 0
14:49:53.3 51 78 3:09.725 22.770 63 138 0
14:54:32.6 52 80 4:39.313 15.467 61 136 0
14:57:22.7 53 82 2:50.070 25.401 58 136 0
15:00:24.8 54 83 3:02.164 23.715 61 137 0
15:03:33.8 55 84 3:08.943 22.864 60 136 0
15:06:40.1 56 86 3:06.302 23.188 59 137 0
15:09:49.6 57 87 3:09.523 22.794 60 137 0
15:13:00.5 58 89 3:10.942 22.625 59 137 0
15:16:10.9 59 90 3:10.380 22.691 62 137 0
15:19:28.2 60 92 3:17.289 21.897 60 140 0
15:22:43.3 61 93 3:15.105 22.142 63 138 0
15:26:15.6 62 95 3:32.324 20.346 65 138 0
15:31:38.1 63 97 5:22.422 13.399 62 137 0
15:34:50.8 64 98 3:12.756 22.412 60 137 0
15:37:55.4 65 100 3:04.612 23.400 60 137 0
15:41:07.7 66 101 3:12.272 22.468 63 139 0
15:44:17.7 67 102 3:10.032 22.733 62 139 0
15:47:22.0 68 104 3:04.241 23.448 62 137 0
15:50:32.6 69 105 3:10.632 22.661 62 137 0
15:53:39.7 70 107 3:07.141 23.084 60 137 0
15:56:51.0 71 108 3:11.297 22.583 63 138 0
16:00:05.3 72 110 3:14.306 22.233 62 136 0
16:03:22.8 73 111 3:17.496 21.874 62 137 0
16:06:42.3 74 113 3:19.501 21.654 64 140 0
16:10:17.4 75 114 3:35.113 20.082 64 137 0
16:15:22.6 76 117 5:05.171 14.156 61 139 0
16:18:11.8 77 118 2:49.227 25.528 59 135 0
16:21:07.3 78 119 2:55.450 24.622 60 137 0
16:24:08.4 79 121 3:01.095 23.855 61 139 0
16:27:15.1 80 122 3:06.716 23.137 62 137 0
16:30:21.3 81 123 3:06.171 23.204 61 140 0
16:33:30.3 82 125 3:09.051 22.851 61 137 0
16:36:49.4 83 126 3:19.046 21.704 63 139 0
16:40:11.7 84 128 3:22.313 21.353 64 139 0
16:43:45.5 85 129 3:33.823 20.204 61 137 0
16:46:56.5 86 131 3:10.975 22.621 63 140 0
16:51:52.5 87 133 4:56.008 14.594 60 134 0
16:55:08.9 88 134 3:16.449 21.990 64 136 0
16:58:41.0 89 135 3:32.094 20.368 63 137 0
17:02:04.6 90 136 3:23.583 21.220 63 138 0
17:10:57.9 91 140 8:53.318 8.100 61 136 0
17:14:23.4 92 142 3:25.496 21.022 63 135 0
17:17:48.4 93 144 3:24.916 21.082 62 137 0
17:21:12.1 94 145 3:23.717 21.206 63 136 0
17:24:46.2 95 147 3:34.114 20.176 63 137 0
17:28:22.6 96 149 3:36.424 19.961 64 137 0
17:31:56.8 97 150 3:34.176 20.170 61 136 0
17:35:34.5 98 152 3:37.726 19.841 63 137 0
17:40:31.1 99 154 4:56.632 14.563 59 138 0
17:43:28.1 100 156 2:56.961 24.412 52 140 0
17:46:33.4 101 157 3:05.327 23.310 59 135 0
17:49:41.9 102 159 3:08.424 22.927 61 135 0
17:53:55.1 103 161 4:13.226 17.060 56 135 0
17:56:43.8 104 162 2:48.674 25.612 57 134 0
17:59:38.4 105 163 2:54.601 24.742 59 135 0
18:02:39.1 106 164 3:00.771 23.898 50 136 0
66 - JPPS 2 Jells Park PS - Primary
12:02:33.5 1 1 3:03.348 23.562 55 112 0
12:05:36.1 2 3 3:02.511 23.670 51 114 0
12:08:50.5 3 4 3:14.483 22.213 52 114 0
12:12:05.3 4 6 3:14.712 22.187 58 118 0
12:15:24.6 5 8 3:19.311 21.675 58 110 0
12:18:41.4 6 9 3:16.874 21.943 61 119 0
12:21:59.8 7 11 3:18.369 21.778 61 122 0
12:25:22.0 8 12 3:22.163 21.369 62 120 0
12:28:47.9 9 14 3:25.937 20.977 61 120 0
12:32:09.2 10 16 3:21.291 21.461 60 118 0
12:35:26.8 11 17 3:17.631 21.859 61 117 0
12:40:06.8 12 19 4:39.995 15.429 78 131 0
12:43:09.9 13 21 3:03.078 23.596 47 113 0
12:46:05.6 14 22 2:55.657 24.593 58 117 0
12:48:59.5 15 24 2:53.915 24.840 54 115 0
12:51:57.4 16 25 2:57.923 24.280 58 116 0
12:54:59.0 17 26 3:01.561 23.794 59 114 0
12:58:03.7 18 28 3:04.715 23.387 50 113 0
13:01:10.1 19 29 3:06.421 23.173 58 111 0
13:04:14.3 20 31 3:04.184 23.455 53 116 0
13:07:24.5 21 32 3:10.237 22.709 57 115 0
13:10:28.6 22 34 3:04.047 23.472 59 118 0
13:14:53.8 23 35 4:25.244 16.287 74 124 0
13:18:25.0 24 37 3:31.185 20.456 54 118 0
13:21:39.9 25 39 3:14.923 22.163 60 114 0
13:24:52.3 26 40 3:12.387 22.455 60 117 0
13:28:20.9 27 42 3:28.640 20.706 57 113 0
13:31:35.8 28 43 3:14.865 22.169 49 116 0
13:34:48.2 29 45 3:12.381 22.455 56 113 0
13:38:03.9 30 46 3:15.684 22.076 61 113 0
13:41:17.8 31 48 3:13.955 22.273 57 114 0
13:44:36.1 32 49 3:18.244 21.791 58 121 0
13:47:49.6 33 51 3:13.496 22.326 60 116 0
13:51:13.5 34 52 3:23.929 21.184 54 119 0
13:55:41.0 35 54 4:27.526 16.148 79 129 0
13:59:13.9 36 56 3:32.882 20.293 55 115 0
14:02:34.7 37 57 3:20.799 21.514 59 116 0
14:06:00.2 38 59 3:25.508 21.021 59 115 0
14:09:24.2 39 60 3:24.040 21.172 60 120 0
14:12:51.8 40 62 3:27.506 20.819 59 119 0
14:16:23.3 41 63 3:31.557 20.420 64 118 0
14:19:46.6 42 65 3:23.311 21.248 52 115 0
14:23:20.1 43 66 3:33.435 20.240 62 122 0
14:27:54.2 44 68 4:34.190 15.755 73 124 0
14:31:21.1 45 70 3:26.843 20.885 60 112 0
14:34:58.5 46 71 3:37.375 19.873 63 110 0
14:38:45.1 47 73 3:46.594 19.065 57 124 0
14:42:48.7 48 75 4:03.650 17.730 65 113 0
14:46:47.8 49 77 3:59.050 18.072 63 112 0
14:50:37.3 50 78 3:49.513 18.822 58 109 0
14:54:41.2 51 80 4:03.956 17.708 62 115 0
14:59:35.8 52 83 4:54.553 14.666 68 122 0
15:02:59.3 53 84 3:23.538 21.225 61 126 0
15:06:26.0 54 86 3:26.637 20.906 55 113 0
15:10:02.7 55 87 3:36.730 19.933 50 117 0
15:13:35.5 56 89 3:32.791 20.302 51 119 0
15:17:07.8 57 91 3:32.353 20.343 59 113 0
15:20:46.9 58 92 3:39.094 19.718 61 120 0
15:24:47.2 59 94 4:00.270 17.980 64 116 0
15:28:47.9 60 95 4:00.720 17.946 58 131 0
15:34:00.8 61 98 5:12.905 13.806 76 127 0
15:37:47.9 62 99 3:47.067 19.025 58 115 0
15:41:21.8 63 101 3:33.953 20.191 61 114 0
15:45:00.9 64 103 3:39.080 19.719 61 116 0
15:48:36.9 65 105 3:35.957 20.004 61 112 0
15:52:12.0 66 106 3:35.082 20.085 61 124 0
15:55:45.0 67 108 3:33.053 20.277 61 114 0
15:59:33.5 68 109 3:48.493 18.906 63 111 0
16:03:18.1 69 111 3:44.597 19.234 62 114 0
16:08:29.0 70 114 5:10.945 13.893 72 118 0
16:11:50.8 71 115 3:21.796 21.408 48 123 0
16:15:11.1 72 117 3:20.290 21.569 59 115 0
16:18:37.6 73 118 3:26.486 20.922 49 117 0
16:22:02.8 74 120 3:25.166 21.056 55 117 0
16:25:28.9 75 121 3:26.113 20.959 59 115 0
16:28:53.9 76 123 3:25.015 21.072 60 117 0
16:32:22.8 77 124 3:28.923 20.677 59 114 0
16:35:50.9 78 126 3:28.042 20.765 59 114 0
16:39:17.0 79 127 3:26.124 20.958 60 115 0
16:43:55.6 80 129 4:38.569 15.508 70 124 0
16:47:14.7 81 131 3:19.137 21.694 49 118 0
16:50:33.9 82 132 3:19.176 21.689 49 124 0
16:54:00.8 83 134 3:26.885 20.881 61 133 0
16:57:27.1 84 135 3:26.310 20.939 56 113 0
17:02:10.9 85 136 4:43.778 15.223 59 135 0
17:05:15.6 86 138 3:04.700 23.389 56 112 0
17:08:21.4 87 139 3:05.844 23.245 49 112 0
17:11:33.8 88 141 3:12.420 22.451 53 114 0
17:14:48.4 89 142 3:14.552 22.205 50 113 0
17:18:07.3 90 144 3:18.883 21.721 46 115 0
17:21:26.0 91 145 3:18.726 21.738 57 119 0
17:24:50.7 92 147 3:24.692 21.105 57 111 0
17:28:19.9 93 149 3:29.219 20.648 56 113 0
17:32:42.9 94 151 4:23.052 16.423 67 121 0
17:35:53.2 95 152 3:10.239 22.708 58 117 0
17:38:54.7 96 154 3:01.522 23.799 46 115 0
17:41:57.8 97 155 3:03.062 23.599 47 115 0
17:45:03.3 98 156 3:05.499 23.289 48 119 0
17:48:06.6 99 158 3:03.337 23.563 56 118 0
17:51:15.9 100 159 3:09.267 22.825 56 113 0
17:54:26.4 101 161 3:10.523 22.674 59 115 0
17:57:38.8 102 162 3:12.408 22.452 57 118 0
18:00:49.4 103 164 3:10.574 22.668 60 114 0
64 - Bolt Catholic College - Open
12:02:21.2 1 1 3:04.185 23.455 64 176 0
12:05:25.7 2 3 3:04.471 23.418 64 176 0
12:08:35.0 3 4 3:09.321 22.818 68 178 0
12:11:41.1 4 6 3:06.051 23.219 65 177 0
12:14:49.6 5 7 3:08.569 22.909 64 175 0
12:18:01.4 6 9 3:11.772 22.527 67 179 0
12:22:43.1 7 11 4:41.734 15.334 75 192 0
12:25:45.3 8 12 3:02.183 23.712 63 176 0
12:29:00.0 9 14 3:14.693 22.189 64 177 0
12:32:17.9 10 16 3:17.939 21.825 67 179 0
12:35:36.5 11 17 3:18.538 21.759 68 177 0
12:39:03.1 12 19 3:26.657 20.904 67 178 0
12:43:44.0 13 21 4:40.875 15.381 73 191 0
12:49:24.3 14 24 5:40.320 12.694 81 194 0
12:52:50.6 15 25 3:26.309 20.939 66 177 0
12:56:05.3 16 27 3:14.627 22.196 63 181 0
12:59:16.9 17 29 3:11.671 22.539 63 178 0
13:02:30.5 18 30 3:13.513 22.324 69 180 0
13:05:34.0 19 32 3:03.582 23.532 63 179 0
13:10:20.6 20 34 4:46.579 15.074 76 190 0
13:14:01.8 21 35 3:41.186 19.531 66 179 0
13:17:27.3 22 37 3:25.532 21.019 68 178 0
13:20:56.8 23 38 3:29.435 20.627 68 179 0
13:24:22.6 24 40 3:25.859 20.985 69 179 0
13:27:48.7 25 42 3:26.040 20.967 66 179 0
13:34:09.5 26 45 6:20.850 11.343 83 194 0
13:39:30.8 27 47 5:21.284 13.446 70 182 0
13:46:42.2 28 50 7:11.348 10.015 76 191 0
13:50:59.8 29 52 4:17.637 16.768 68 181 0
13:57:07.0 30 55 6:07.218 11.764 73 191 0
14:00:25.9 31 56 3:18.881 21.722 64 178 0
14:03:42.1 32 58 3:16.171 22.022 64 177 0
14:06:57.8 33 59 3:15.721 22.072 61 177 0
14:10:12.7 34 61 3:14.916 22.163 68 179 0
14:14:40.2 35 63 4:27.465 16.152 83 193 0
14:17:37.2 36 64 2:57.058 24.399 65 178 0
14:20:45.2 37 65 3:08.010 22.978 65 178 0
14:24:01.7 38 66 3:16.422 21.993 67 181 0
14:27:18.9 39 68 3:17.272 21.899 71 181 0
14:30:33.8 40 69 3:14.878 22.168 67 181 0
14:33:54.0 41 71 3:20.210 21.577 68 180 0
14:37:08.6 42 72 3:14.579 22.202 70 181 0
14:40:32.5 43 74 3:23.936 21.183 67 180 0
14:45:10.6 44 76 4:38.079 15.535 76 194 0
14:48:29.2 45 78 3:18.583 21.754 69 179 0
14:51:43.5 46 79 3:14.307 22.233 65 180 0
14:54:51.6 47 80 3:08.142 22.961 67 179 0
14:58:13.2 48 82 3:21.554 21.433 69 179 0
15:01:28.4 49 83 3:15.164 22.135 61 180 0
15:04:42.1 50 85 3:13.696 22.303 67 182 0
15:07:57.1 51 86 3:15.040 22.149 68 180 0
15:11:20.9 52 88 3:23.852 21.192 69 179 0
15:14:40.1 53 89 3:19.180 21.689 68 182 0
15:19:19.9 54 92 4:39.802 15.439 77 191 0
15:22:35.1 55 93 3:15.143 22.138 69 180 0
15:25:46.9 56 94 3:11.783 22.525 68 182 0
15:29:06.2 57 95 3:19.330 21.673 63 177 0
15:32:05.1 58 97 2:58.913 24.146 67 178 0
15:35:20.7 59 98 3:15.616 22.084 70 180 0
15:38:34.7 60 100 3:13.976 22.271 62 179 0
15:41:53.4 61 101 3:18.693 21.742 67 180 0
15:45:22.9 62 103 3:29.497 20.621 66 176 0
15:48:51.4 63 105 3:28.571 20.712 67 177 0
15:52:27.0 64 106 3:35.574 20.040 68 179 0
15:56:03.4 65 108 3:36.376 19.965 68 179 0
15:59:41.1 66 110 3:37.675 19.846 69 178 0
16:02:58.1 67 111 3:16.976 21.932 59 179 0
16:06:24.5 68 113 3:26.427 20.927 69 179 0
16:11:18.2 69 115 4:53.718 14.708 73 187 0
16:14:45.2 70 116 3:26.981 20.871 67 178 0
16:18:09.6 71 118 3:24.415 21.133 70 179 0
16:21:31.1 72 119 3:21.461 21.443 67 180 0
16:24:47.0 73 121 3:15.954 22.046 68 179 0
16:28:14.4 74 122 3:27.376 20.832 70 181 0
16:31:49.5 75 124 3:35.142 20.080 67 179 0
16:35:22.7 76 126 3:33.173 20.265 68 176 0
16:40:25.0 77 128 5:02.311 14.290 78 193 0
16:43:59.1 78 129 3:34.089 20.179 66 180 0
16:47:12.5 79 131 3:13.355 22.342 64 179 0
16:50:16.5 80 132 3:04.068 23.470 67 177 0
16:53:18.6 81 134 3:02.056 23.729 65 178 0
16:56:23.9 82 135 3:05.322 23.311 58 179 0
16:59:17.0 83 135 2:53.053 24.963 64 178 0
17:03:56.9 84 137 4:39.908 15.434 72 189 0
17:08:38.3 85 139 4:41.455 15.349 73 190 0
17:12:20.1 86 141 3:41.824 19.475 69 179 0
17:15:56.6 87 143 3:36.485 19.955 72 180 0
17:19:41.5 88 145 3:44.890 19.209 69 180 0
17:23:28.1 89 146 3:46.623 19.062 70 179 0
17:29:35.2 90 149 6:07.071 11.769 73 189 0
17:34:08.6 91 151 4:33.425 15.800 68 180 0
17:38:35.8 92 154 4:27.203 16.167 72 184 0
17:44:40.3 93 156 6:04.465 11.853 79 188 0
17:47:51.4 94 158 3:11.082 22.608 65 175 0
17:51:02.8 95 159 3:11.413 22.569 66 182 0
17:54:21.4 96 161 3:18.641 21.748 62 176 0
17:57:39.1 97 162 3:17.635 21.858 64 181 0
18:01:04.9 98 164 3:25.877 20.983 67 179 0
20 - Heart Attack Emerald PS - Primary
12:03:03.6 1 1 3:31.399 20.435 65 159 0
12:07:14.8 2 4 4:11.188 17.198 67 158 0
12:12:41.7 3 6 5:26.876 13.216 84 174 0
12:17:26.4 4 8 4:44.741 15.172 74 163 0
12:22:19.7 5 11 4:53.277 14.730 76 164 0
12:28:03.2 6 14 5:43.498 12.576 84 175 0
12:31:15.1 7 15 3:11.960 22.505 62 158 0
12:34:34.0 8 17 3:18.891 21.720 65 159 0
12:37:54.9 9 18 3:20.910 21.502 58 158 0
12:41:17.0 10 20 3:22.098 21.376 64 160 0
12:45:55.1 11 22 4:38.066 15.536 83 177 0
12:49:38.9 12 24 3:43.812 19.302 64 159 0
12:53:15.7 13 26 3:36.751 19.931 68 159 0
12:58:11.9 14 28 4:56.220 14.584 80 173 0
13:01:40.1 15 30 3:28.170 20.752 65 160 0
13:05:16.6 16 31 3:36.571 19.947 67 160 0
13:09:00.0 17 33 3:43.380 19.339 66 160 0
13:13:49.7 18 35 4:49.725 14.911 84 174 0
13:16:50.2 19 36 3:00.433 23.942 63 158 0
13:19:58.6 20 38 3:08.458 22.923 59 158 0
13:23:09.2 21 39 3:10.534 22.673 65 159 0
13:26:19.3 22 41 3:10.105 22.724 62 159 0
13:29:32.1 23 42 3:12.839 22.402 65 159 0
13:32:42.7 24 44 3:10.617 22.663 62 158 0
13:35:53.9 25 45 3:11.148 22.600 62 159 0
13:39:58.8 26 47 4:04.951 17.636 84 174 0
13:43:03.2 27 49 3:04.352 23.433 60 161 0
13:46:21.4 28 50 3:18.217 21.794 61 162 0
13:49:28.7 29 51 3:07.261 23.069 61 160 0
13:52:25.7 30 53 2:57.018 24.404 58 156 0
13:55:24.4 31 54 2:58.681 24.177 61 160 0
13:58:31.9 32 55 3:07.497 23.040 62 158 0
14:01:43.0 33 57 3:11.167 22.598 60 161 0
14:06:11.1 34 59 4:28.057 16.116 76 171 0
14:09:08.8 35 60 2:57.715 24.309 63 163 0
14:12:09.5 36 61 3:00.742 23.901 63 159 0
14:15:19.5 37 63 3:09.933 22.745 67 161 0
14:18:35.2 38 64 3:15.779 22.066 63 159 0
14:21:50.8 39 65 3:15.590 22.087 63 159 0
14:25:07.2 40 67 3:16.360 22.000 65 159 0
14:28:19.9 41 68 3:12.693 22.419 64 160 0
14:31:37.1 42 70 3:17.225 21.904 65 160 0
14:34:54.2 43 71 3:17.039 21.925 67 163 0
14:38:13.0 44 73 3:18.824 21.728 63 161 0
14:43:00.2 45 75 4:47.207 15.041 84 174 0
14:46:54.8 46 77 3:54.608 18.414 65 160 0
14:50:30.3 47 78 3:35.471 20.049 66 160 0
14:55:27.6 48 81 4:57.310 14.530 84 173 0
15:00:07.1 49 83 4:39.483 15.457 72 163 0
15:04:42.7 50 85 4:35.599 15.675 69 163 0
15:10:22.8 51 87 5:40.104 12.702 83 174 0
15:13:36.7 52 89 3:13.975 22.271 62 157 0
15:16:50.8 53 90 3:14.088 22.258 64 161 0
15:20:09.3 54 92 3:18.523 21.761 66 159 0
15:23:27.5 55 93 3:18.165 21.800 65 161 0
15:26:51.4 56 95 3:23.921 21.185 67 163 0
15:30:12.9 57 96 3:21.465 21.443 67 162 0
15:34:41.3 58 98 4:28.422 16.094 84 173 0
15:38:14.6 59 100 3:33.275 20.256 66 159 0
15:41:48.7 60 101 3:34.080 20.179 65 161 0
15:45:25.9 61 103 3:37.207 19.889 65 160 0
15:50:18.3 62 105 4:52.453 14.772 84 176 0
15:53:56.3 63 107 3:37.955 19.821 64 160 0
15:57:34.9 64 109 3:38.649 19.758 65 162 0
16:01:14.3 65 110 3:39.383 19.692 67 160 0
16:06:11.7 66 113 4:57.381 14.527 81 172 0
16:09:26.9 67 114 3:15.250 22.125 65 163 0
16:12:53.9 68 116 3:26.986 20.871 66 160 0
16:16:26.1 69 117 3:32.138 20.364 65 160 0
16:20:54.5 70 119 4:28.440 16.093 80 172 0
16:24:07.9 71 121 3:13.387 22.339 66 159 0
16:27:27.4 72 122 3:19.518 21.652 65 160 0
16:30:48.1 73 123 3:20.714 21.523 64 160 0
16:34:08.8 74 125 3:20.662 21.529 65 158 0
16:37:14.6 75 126 3:05.764 23.255 61 158 0
16:41:42.6 76 128 4:28.031 16.118 82 173 0
16:45:33.5 77 130 3:50.891 18.710 66 159 0
16:49:20.4 78 132 3:46.923 19.037 66 161 0
16:53:11.5 79 134 3:51.052 18.697 67 160 0
16:57:00.8 80 135 3:49.337 18.837 69 159 0
17:03:04.5 81 137 6:03.750 11.876 84 173 0
17:06:35.8 82 138 3:31.225 20.452 59 157 0
17:09:34.8 83 140 2:58.999 24.134 59 160 0
17:12:30.8 84 141 2:56.062 24.537 57 161 0
17:15:30.5 85 142 2:59.685 24.042 58 159 0
17:18:26.2 86 144 2:55.714 24.585 61 158 0
17:21:25.8 87 145 2:59.574 24.057 59 160 0
17:25:45.5 88 147 4:19.744 16.632 84 172 0
17:30:28.7 89 150 4:43.123 15.258 68 162 0
17:36:15.0 90 152 5:46.320 12.474 83 174 0
17:39:24.7 91 154 3:09.697 22.773 64 159 0
17:42:45.9 92 155 3:21.252 21.466 64 160 0
17:46:13.2 93 157 3:27.246 20.845 65 160 0
17:49:39.2 94 159 3:26.046 20.966 65 160 0
17:53:11.0 95 160 3:31.760 20.400 66 159 0
17:56:44.6 96 162 3:33.587 20.226 65 162 0
18:00:18.8 97 163 3:34.235 20.165 66 161 0
18:03:50.3 98 164 3:31.491 20.426 64 161 0
42 - Emerald Velocity TomKat HPV - Community
12:02:15.9 1 1 2:59.273 24.097 62 169 0
12:05:49.2 2 3 3:33.294 20.254 69 170 0
12:09:33.3 3 5 3:44.160 19.272 72 174 0
12:13:15.2 4 6 3:41.861 19.472 71 172 0
12:18:05.4 5 9 4:50.224 14.885 84 186 0
12:21:20.5 6 10 3:15.065 22.146 65 170 0
12:24:46.2 7 12 3:25.743 20.997 69 172 0
12:28:22.0 8 14 3:35.798 20.019 70 173 0
12:31:58.6 9 15 3:36.579 19.947 72 173 0
12:35:31.4 10 17 3:32.800 20.301 69 171 0
12:39:14.1 11 19 3:42.671 19.401 67 171 0
12:42:53.5 12 21 3:39.460 19.685 71 173 0
12:47:11.9 13 23 4:18.338 16.722 83 183 0
12:50:28.6 14 24 3:16.749 21.957 69 171 0
12:53:54.5 15 26 3:25.855 20.986 70 171 0
12:57:27.8 16 28 3:33.373 20.246 71 171 0
13:00:59.0 17 29 3:31.162 20.458 70 171 0
13:05:37.1 18 32 4:38.081 15.535 81 184 0
13:08:52.5 19 33 3:15.439 22.104 67 171 0
13:12:25.4 20 35 3:32.879 20.293 67 171 0
13:16:06.4 21 36 3:40.989 19.548 69 171 0
13:19:46.0 22 38 3:39.625 19.670 59 171 0
13:23:25.0 23 40 3:39.036 19.723 70 171 0
13:27:07.5 24 41 3:42.488 19.417 69 171 0
13:30:51.1 25 43 3:43.543 19.325 62 169 0
13:35:43.7 26 45 4:52.572 14.766 77 182 0
13:38:48.2 27 47 3:04.532 23.411 67 172 0
13:42:15.2 28 48 3:27.029 20.867 65 172 0
13:45:52.8 29 50 3:37.575 19.855 66 171 0
13:49:29.2 30 51 3:36.459 19.958 65 170 0
13:52:57.2 31 53 3:27.964 20.773 68 171 0
13:56:30.1 32 54 3:32.864 20.295 68 173 0
14:01:29.1 33 57 4:59.020 14.447 84 185 0
14:05:21.3 34 58 3:52.163 18.608 67 171 0
14:09:11.2 35 60 3:49.955 18.786 70 173 0
14:12:51.5 36 62 3:40.240 19.615 68 172 0
14:17:47.0 37 64 4:55.503 14.619 83 183 0
14:21:18.0 38 65 3:31.027 20.471 71 174 0
14:24:52.7 39 67 3:34.708 20.120 70 174 0
14:28:26